<?xml version="1.0" encoding="UTF-8" standalone="no" ?>
<gpx xmlns="http://www.topografix.com/GPX/1/1" xmlns:xsi="http://www.w3.org/2001/XMLSchema-instance" xsi:schemaLocation="http://www.topografix.com/GPX/1/1 http://www.topografix.com/GPX/1/1/gpx.xsd" version="1.1" creator="VisuGPX - https://www.visugpx.com">
  <metadata>
    <name>Tour de la Cime Roccasiéra_Départ L\'escarène</name>
    <desc><![CDATA[Rando de niveau V4 a V5 avec de nombreux portages, tres technique et endurante.]]></desc>
  </metadata>
  <trk>
    <name><![CDATA[Escarène-Tour Cime de Roccassièra]]></name>
    <trkseg>
      <trkpt lat="43.83601" lon="7.35224">
        <ele>341.41</ele>
        <time>2013-02-03T07:37:46Z</time>
      </trkpt>
      <trkpt lat="43.83629" lon="7.35215">
        <ele>363.52</ele>
        <time>2013-02-03T07:38:20Z</time>
      </trkpt>
      <trkpt lat="43.83626" lon="7.35215">
        <ele>364</ele>
        <time>2013-02-03T07:38:48Z</time>
      </trkpt>
      <trkpt lat="43.8363" lon="7.35215">
        <ele>365.92</ele>
        <time>2013-02-03T07:39:18Z</time>
      </trkpt>
      <trkpt lat="43.83628" lon="7.35217">
        <ele>368.32</ele>
        <time>2013-02-03T07:39:43Z</time>
      </trkpt>
      <trkpt lat="43.83629" lon="7.35213">
        <ele>367.36</ele>
        <time>2013-02-03T07:40:10Z</time>
      </trkpt>
      <trkpt lat="43.83627" lon="7.35214">
        <ele>363.04</ele>
        <time>2013-02-03T07:40:29Z</time>
      </trkpt>
      <trkpt lat="43.83624" lon="7.35216">
        <ele>360.63</ele>
        <time>2013-02-03T07:40:49Z</time>
      </trkpt>
      <trkpt lat="43.83624" lon="7.35216">
        <ele>359.67</ele>
        <time>2013-02-03T07:41:07Z</time>
      </trkpt>
      <trkpt lat="43.83625" lon="7.35214">
        <ele>357.27</ele>
        <time>2013-02-03T07:41:34Z</time>
      </trkpt>
      <trkpt lat="43.83624" lon="7.35215">
        <ele>358.23</ele>
        <time>2013-02-03T07:42:05Z</time>
      </trkpt>
      <trkpt lat="43.83624" lon="7.35214">
        <ele>360.15</ele>
        <time>2013-02-03T07:42:27Z</time>
      </trkpt>
      <trkpt lat="43.83624" lon="7.35213">
        <ele>358.71</ele>
        <time>2013-02-03T07:42:53Z</time>
      </trkpt>
      <trkpt lat="43.83626" lon="7.35217">
        <ele>358.23</ele>
        <time>2013-02-03T07:43:23Z</time>
      </trkpt>
      <trkpt lat="43.83625" lon="7.35213">
        <ele>357.75</ele>
        <time>2013-02-03T07:43:44Z</time>
      </trkpt>
      <trkpt lat="43.83628" lon="7.35212">
        <ele>357.75</ele>
        <time>2013-02-03T07:43:46Z</time>
      </trkpt>
      <trkpt lat="43.83637" lon="7.35207">
        <ele>358.71</ele>
        <time>2013-02-03T07:43:55Z</time>
      </trkpt>
      <trkpt lat="43.83649" lon="7.35194">
        <ele>359.19</ele>
        <time>2013-02-03T07:44:04Z</time>
      </trkpt>
      <trkpt lat="43.8368" lon="7.35159">
        <ele>357.75</ele>
        <time>2013-02-03T07:44:20Z</time>
      </trkpt>
      <trkpt lat="43.83713" lon="7.35126">
        <ele>357.27</ele>
        <time>2013-02-03T07:44:35Z</time>
      </trkpt>
      <trkpt lat="43.83728" lon="7.3509">
        <ele>356.79</ele>
        <time>2013-02-03T07:44:46Z</time>
      </trkpt>
      <trkpt lat="43.8375" lon="7.35042">
        <ele>357.75</ele>
        <time>2013-02-03T07:45:00Z</time>
      </trkpt>
      <trkpt lat="43.83765" lon="7.34984">
        <ele>359.67</ele>
        <time>2013-02-03T07:45:15Z</time>
      </trkpt>
      <trkpt lat="43.83776" lon="7.34914">
        <ele>360.63</ele>
        <time>2013-02-03T07:45:31Z</time>
      </trkpt>
      <trkpt lat="43.83812" lon="7.34872">
        <ele>360.63</ele>
        <time>2013-02-03T07:45:46Z</time>
      </trkpt>
      <trkpt lat="43.83861" lon="7.34853">
        <ele>360.63</ele>
        <time>2013-02-03T07:46:02Z</time>
      </trkpt>
      <trkpt lat="43.839" lon="7.34818">
        <ele>360.15</ele>
        <time>2013-02-03T07:46:16Z</time>
      </trkpt>
      <trkpt lat="43.83937" lon="7.34803">
        <ele>361.11</ele>
        <time>2013-02-03T07:46:29Z</time>
      </trkpt>
      <trkpt lat="43.83962" lon="7.34785">
        <ele>362.55</ele>
        <time>2013-02-03T07:46:43Z</time>
      </trkpt>
      <trkpt lat="43.83992" lon="7.34784">
        <ele>364.48</ele>
        <time>2013-02-03T07:46:58Z</time>
      </trkpt>
      <trkpt lat="43.84022" lon="7.34801">
        <ele>369.76</ele>
        <time>2013-02-03T07:47:14Z</time>
      </trkpt>
      <trkpt lat="43.84035" lon="7.34806">
        <ele>372.17</ele>
        <time>2013-02-03T07:47:21Z</time>
      </trkpt>
      <trkpt lat="43.84042" lon="7.34795">
        <ele>374.09</ele>
        <time>2013-02-03T07:47:27Z</time>
      </trkpt>
      <trkpt lat="43.84037" lon="7.34751">
        <ele>379.38</ele>
        <time>2013-02-03T07:47:42Z</time>
      </trkpt>
      <trkpt lat="43.84042" lon="7.34706">
        <ele>384.18</ele>
        <time>2013-02-03T07:47:59Z</time>
      </trkpt>
      <trkpt lat="43.84061" lon="7.34678">
        <ele>388.51</ele>
        <time>2013-02-03T07:48:13Z</time>
      </trkpt>
      <trkpt lat="43.84091" lon="7.34656">
        <ele>389.47</ele>
        <time>2013-02-03T07:48:30Z</time>
      </trkpt>
      <trkpt lat="43.8411" lon="7.34634">
        <ele>391.87</ele>
        <time>2013-02-03T07:48:45Z</time>
      </trkpt>
      <trkpt lat="43.84111" lon="7.34597">
        <ele>397.16</ele>
        <time>2013-02-03T07:49:01Z</time>
      </trkpt>
      <trkpt lat="43.84112" lon="7.34576">
        <ele>400.53</ele>
        <time>2013-02-03T07:49:14Z</time>
      </trkpt>
      <trkpt lat="43.84112" lon="7.34575">
        <ele>400.53</ele>
        <time>2013-02-03T07:49:28Z</time>
      </trkpt>
      <trkpt lat="43.84126" lon="7.34546">
        <ele>401.01</ele>
        <time>2013-02-03T07:49:42Z</time>
      </trkpt>
      <trkpt lat="43.84151" lon="7.34516">
        <ele>401.97</ele>
        <time>2013-02-03T07:49:56Z</time>
      </trkpt>
      <trkpt lat="43.84171" lon="7.34476">
        <ele>400.53</ele>
        <time>2013-02-03T07:50:08Z</time>
      </trkpt>
      <trkpt lat="43.84202" lon="7.34432">
        <ele>400.05</ele>
        <time>2013-02-03T07:50:22Z</time>
      </trkpt>
      <trkpt lat="43.84239" lon="7.34399">
        <ele>401.97</ele>
        <time>2013-02-03T07:50:37Z</time>
      </trkpt>
      <trkpt lat="43.84261" lon="7.34358">
        <ele>404.85</ele>
        <time>2013-02-03T07:50:52Z</time>
      </trkpt>
      <trkpt lat="43.84274" lon="7.34288">
        <ele>407.26</ele>
        <time>2013-02-03T07:51:11Z</time>
      </trkpt>
      <trkpt lat="43.84266" lon="7.34241">
        <ele>408.22</ele>
        <time>2013-02-03T07:51:23Z</time>
      </trkpt>
      <trkpt lat="43.84247" lon="7.34191">
        <ele>410.62</ele>
        <time>2013-02-03T07:51:37Z</time>
      </trkpt>
      <trkpt lat="43.84259" lon="7.34132">
        <ele>410.62</ele>
        <time>2013-02-03T07:51:51Z</time>
      </trkpt>
      <trkpt lat="43.84245" lon="7.34102">
        <ele>411.1</ele>
        <time>2013-02-03T07:51:59Z</time>
      </trkpt>
      <trkpt lat="43.84251" lon="7.34084">
        <ele>411.58</ele>
        <time>2013-02-03T07:52:04Z</time>
      </trkpt>
      <trkpt lat="43.8426" lon="7.34035">
        <ele>411.58</ele>
        <time>2013-02-03T07:52:16Z</time>
      </trkpt>
      <trkpt lat="43.84247" lon="7.33985">
        <ele>412.54</ele>
        <time>2013-02-03T07:52:28Z</time>
      </trkpt>
      <trkpt lat="43.84243" lon="7.33941">
        <ele>412.54</ele>
        <time>2013-02-03T07:52:38Z</time>
      </trkpt>
      <trkpt lat="43.84232" lon="7.33884">
        <ele>414.47</ele>
        <time>2013-02-03T07:52:52Z</time>
      </trkpt>
      <trkpt lat="43.84216" lon="7.3384">
        <ele>418.31</ele>
        <time>2013-02-03T07:53:07Z</time>
      </trkpt>
      <trkpt lat="43.84206" lon="7.33799">
        <ele>419.75</ele>
        <time>2013-02-03T07:53:19Z</time>
      </trkpt>
      <trkpt lat="43.84191" lon="7.33752">
        <ele>418.79</ele>
        <time>2013-02-03T07:53:30Z</time>
      </trkpt>
      <trkpt lat="43.84186" lon="7.33744">
        <ele>418.79</ele>
        <time>2013-02-03T07:53:32Z</time>
      </trkpt>
      <trkpt lat="43.84189" lon="7.33708">
        <ele>419.27</ele>
        <time>2013-02-03T07:53:40Z</time>
      </trkpt>
      <trkpt lat="43.8419" lon="7.33703">
        <ele>419.27</ele>
        <time>2013-02-03T07:53:41Z</time>
      </trkpt>
      <trkpt lat="43.84186" lon="7.33637">
        <ele>417.83</ele>
        <time>2013-02-03T07:53:54Z</time>
      </trkpt>
      <trkpt lat="43.8417" lon="7.33586">
        <ele>418.31</ele>
        <time>2013-02-03T07:54:06Z</time>
      </trkpt>
      <trkpt lat="43.84134" lon="7.33575">
        <ele>420.71</ele>
        <time>2013-02-03T07:54:16Z</time>
      </trkpt>
      <trkpt lat="43.84096" lon="7.33574">
        <ele>422.16</ele>
        <time>2013-02-03T07:54:27Z</time>
      </trkpt>
      <trkpt lat="43.84085" lon="7.3358">
        <ele>422.16</ele>
        <time>2013-02-03T07:54:30Z</time>
      </trkpt>
      <trkpt lat="43.84045" lon="7.33572">
        <ele>422.64</ele>
        <time>2013-02-03T07:54:41Z</time>
      </trkpt>
      <trkpt lat="43.84041" lon="7.33572">
        <ele>422.64</ele>
        <time>2013-02-03T07:54:42Z</time>
      </trkpt>
      <trkpt lat="43.84041" lon="7.33547">
        <ele>423.6</ele>
        <time>2013-02-03T07:54:49Z</time>
      </trkpt>
      <trkpt lat="43.8405" lon="7.33541">
        <ele>424.08</ele>
        <time>2013-02-03T07:54:52Z</time>
      </trkpt>
      <trkpt lat="43.84063" lon="7.33536">
        <ele>424.56</ele>
        <time>2013-02-03T07:54:57Z</time>
      </trkpt>
      <trkpt lat="43.84056" lon="7.33526">
        <ele>426</ele>
        <time>2013-02-03T07:55:04Z</time>
      </trkpt>
      <trkpt lat="43.84032" lon="7.33532">
        <ele>429.85</ele>
        <time>2013-02-03T07:55:14Z</time>
      </trkpt>
      <trkpt lat="43.84042" lon="7.3352">
        <ele>431.29</ele>
        <time>2013-02-03T07:55:23Z</time>
      </trkpt>
      <trkpt lat="43.84044" lon="7.33518">
        <ele>431.29</ele>
        <time>2013-02-03T07:55:24Z</time>
      </trkpt>
      <trkpt lat="43.84058" lon="7.33483">
        <ele>434.17</ele>
        <time>2013-02-03T07:55:39Z</time>
      </trkpt>
      <trkpt lat="43.84056" lon="7.33452">
        <ele>436.1</ele>
        <time>2013-02-03T07:55:50Z</time>
      </trkpt>
      <trkpt lat="43.84065" lon="7.33415">
        <ele>437.54</ele>
        <time>2013-02-03T07:56:04Z</time>
      </trkpt>
      <trkpt lat="43.84071" lon="7.33394">
        <ele>436.1</ele>
        <time>2013-02-03T07:56:09Z</time>
      </trkpt>
      <trkpt lat="43.84066" lon="7.33372">
        <ele>435.13</ele>
        <time>2013-02-03T07:56:13Z</time>
      </trkpt>
      <trkpt lat="43.8406" lon="7.33362">
        <ele>435.13</ele>
        <time>2013-02-03T07:56:15Z</time>
      </trkpt>
      <trkpt lat="43.84059" lon="7.33312">
        <ele>433.69</ele>
        <time>2013-02-03T07:56:25Z</time>
      </trkpt>
      <trkpt lat="43.84087" lon="7.33315">
        <ele>434.65</ele>
        <time>2013-02-03T07:56:34Z</time>
      </trkpt>
      <trkpt lat="43.84104" lon="7.33346">
        <ele>434.65</ele>
        <time>2013-02-03T07:56:42Z</time>
      </trkpt>
      <trkpt lat="43.84122" lon="7.33378">
        <ele>435.13</ele>
        <time>2013-02-03T07:56:50Z</time>
      </trkpt>
      <trkpt lat="43.8412" lon="7.33391">
        <ele>435.13</ele>
        <time>2013-02-03T07:56:53Z</time>
      </trkpt>
      <trkpt lat="43.84124" lon="7.3345">
        <ele>439.46</ele>
        <time>2013-02-03T07:57:08Z</time>
      </trkpt>
      <trkpt lat="43.84127" lon="7.33455">
        <ele>439.94</ele>
        <time>2013-02-03T07:57:10Z</time>
      </trkpt>
      <trkpt lat="43.84141" lon="7.33449">
        <ele>441.38</ele>
        <time>2013-02-03T07:57:17Z</time>
      </trkpt>
      <trkpt lat="43.84148" lon="7.33395">
        <ele>443.31</ele>
        <time>2013-02-03T07:57:33Z</time>
      </trkpt>
      <trkpt lat="43.84157" lon="7.33339">
        <ele>445.23</ele>
        <time>2013-02-03T07:57:50Z</time>
      </trkpt>
      <trkpt lat="43.84162" lon="7.33296">
        <ele>447.15</ele>
        <time>2013-02-03T07:58:05Z</time>
      </trkpt>
      <trkpt lat="43.84158" lon="7.33251">
        <ele>450.52</ele>
        <time>2013-02-03T07:58:21Z</time>
      </trkpt>
      <trkpt lat="43.84159" lon="7.33205">
        <ele>453.88</ele>
        <time>2013-02-03T07:58:38Z</time>
      </trkpt>
      <trkpt lat="43.84164" lon="7.3316">
        <ele>457.24</ele>
        <time>2013-02-03T07:58:55Z</time>
      </trkpt>
      <trkpt lat="43.84166" lon="7.33152">
        <ele>458.21</ele>
        <time>2013-02-03T07:58:58Z</time>
      </trkpt>
      <trkpt lat="43.84182" lon="7.33156">
        <ele>460.13</ele>
        <time>2013-02-03T07:59:08Z</time>
      </trkpt>
      <trkpt lat="43.84208" lon="7.3319">
        <ele>464.93</ele>
        <time>2013-02-03T07:59:25Z</time>
      </trkpt>
      <trkpt lat="43.84236" lon="7.33169">
        <ele>465.9</ele>
        <time>2013-02-03T07:59:39Z</time>
      </trkpt>
      <trkpt lat="43.84252" lon="7.33148">
        <ele>464.93</ele>
        <time>2013-02-03T07:59:45Z</time>
      </trkpt>
      <trkpt lat="43.84274" lon="7.33155">
        <ele>465.42</ele>
        <time>2013-02-03T07:59:52Z</time>
      </trkpt>
      <trkpt lat="43.84297" lon="7.3316">
        <ele>465.9</ele>
        <time>2013-02-03T07:59:59Z</time>
      </trkpt>
      <trkpt lat="43.84343" lon="7.3315">
        <ele>466.86</ele>
        <time>2013-02-03T08:00:13Z</time>
      </trkpt>
      <trkpt lat="43.8438" lon="7.33143">
        <ele>469.26</ele>
        <time>2013-02-03T08:00:25Z</time>
      </trkpt>
      <trkpt lat="43.84407" lon="7.33112">
        <ele>473.11</ele>
        <time>2013-02-03T08:00:39Z</time>
      </trkpt>
      <trkpt lat="43.84435" lon="7.33079">
        <ele>475.99</ele>
        <time>2013-02-03T08:00:53Z</time>
      </trkpt>
      <trkpt lat="43.84466" lon="7.33077">
        <ele>478.39</ele>
        <time>2013-02-03T08:01:05Z</time>
      </trkpt>
      <trkpt lat="43.84484" lon="7.3306">
        <ele>480.8</ele>
        <time>2013-02-03T08:01:17Z</time>
      </trkpt>
      <trkpt lat="43.84509" lon="7.33033">
        <ele>485.12</ele>
        <time>2013-02-03T08:01:34Z</time>
      </trkpt>
      <trkpt lat="43.84525" lon="7.33004">
        <ele>486.56</ele>
        <time>2013-02-03T08:01:50Z</time>
      </trkpt>
      <trkpt lat="43.84528" lon="7.32993">
        <ele>487.05</ele>
        <time>2013-02-03T08:02:03Z</time>
      </trkpt>
      <trkpt lat="43.84528" lon="7.32991">
        <ele>485.12</ele>
        <time>2013-02-03T08:02:29Z</time>
      </trkpt>
      <trkpt lat="43.84529" lon="7.32994">
        <ele>488.49</ele>
        <time>2013-02-03T08:02:58Z</time>
      </trkpt>
      <trkpt lat="43.84529" lon="7.32993">
        <ele>488.49</ele>
        <time>2013-02-03T08:03:28Z</time>
      </trkpt>
      <trkpt lat="43.84541" lon="7.32974">
        <ele>486.56</ele>
        <time>2013-02-03T08:03:35Z</time>
      </trkpt>
      <trkpt lat="43.84547" lon="7.32963">
        <ele>485.6</ele>
        <time>2013-02-03T08:03:37Z</time>
      </trkpt>
      <trkpt lat="43.8456" lon="7.32946">
        <ele>483.68</ele>
        <time>2013-02-03T08:03:40Z</time>
      </trkpt>
      <trkpt lat="43.84582" lon="7.32906">
        <ele>480.32</ele>
        <time>2013-02-03T08:03:46Z</time>
      </trkpt>
      <trkpt lat="43.84589" lon="7.32906">
        <ele>479.35</ele>
        <time>2013-02-03T08:03:47Z</time>
      </trkpt>
      <trkpt lat="43.84603" lon="7.3291">
        <ele>477.43</ele>
        <time>2013-02-03T08:03:49Z</time>
      </trkpt>
      <trkpt lat="43.84625" lon="7.32922">
        <ele>475.03</ele>
        <time>2013-02-03T08:03:52Z</time>
      </trkpt>
      <trkpt lat="43.84705" lon="7.32963">
        <ele>464.45</ele>
        <time>2013-02-03T08:04:01Z</time>
      </trkpt>
      <trkpt lat="43.84713" lon="7.32969">
        <ele>463.49</ele>
        <time>2013-02-03T08:04:02Z</time>
      </trkpt>
      <trkpt lat="43.84742" lon="7.32965">
        <ele>459.65</ele>
        <time>2013-02-03T08:04:06Z</time>
      </trkpt>
      <trkpt lat="43.8477" lon="7.32971">
        <ele>457.24</ele>
        <time>2013-02-03T08:04:12Z</time>
      </trkpt>
      <trkpt lat="43.84786" lon="7.33018">
        <ele>462.53</ele>
        <time>2013-02-03T08:04:25Z</time>
      </trkpt>
      <trkpt lat="43.84805" lon="7.33054">
        <ele>466.38</ele>
        <time>2013-02-03T08:04:40Z</time>
      </trkpt>
      <trkpt lat="43.84831" lon="7.33086">
        <ele>470.7</ele>
        <time>2013-02-03T08:04:55Z</time>
      </trkpt>
      <trkpt lat="43.8486" lon="7.33075">
        <ele>473.59</ele>
        <time>2013-02-03T08:05:10Z</time>
      </trkpt>
      <trkpt lat="43.84878" lon="7.33046">
        <ele>475.51</ele>
        <time>2013-02-03T08:05:25Z</time>
      </trkpt>
      <trkpt lat="43.84901" lon="7.33014">
        <ele>480.32</ele>
        <time>2013-02-03T08:05:42Z</time>
      </trkpt>
      <trkpt lat="43.84923" lon="7.32988">
        <ele>484.16</ele>
        <time>2013-02-03T08:05:59Z</time>
      </trkpt>
      <trkpt lat="43.84952" lon="7.32967">
        <ele>488.01</ele>
        <time>2013-02-03T08:06:16Z</time>
      </trkpt>
      <trkpt lat="43.84974" lon="7.32948">
        <ele>490.41</ele>
        <time>2013-02-03T08:06:31Z</time>
      </trkpt>
      <trkpt lat="43.85003" lon="7.32914">
        <ele>494.74</ele>
        <time>2013-02-03T08:06:50Z</time>
      </trkpt>
      <trkpt lat="43.85023" lon="7.3287">
        <ele>495.22</ele>
        <time>2013-02-03T08:07:07Z</time>
      </trkpt>
      <trkpt lat="43.85052" lon="7.32855">
        <ele>495.7</ele>
        <time>2013-02-03T08:07:20Z</time>
      </trkpt>
      <trkpt lat="43.85073" lon="7.32886">
        <ele>499.54</ele>
        <time>2013-02-03T08:07:33Z</time>
      </trkpt>
      <trkpt lat="43.85103" lon="7.32901">
        <ele>502.91</ele>
        <time>2013-02-03T08:07:48Z</time>
      </trkpt>
      <trkpt lat="43.85128" lon="7.32889">
        <ele>504.83</ele>
        <time>2013-02-03T08:08:02Z</time>
      </trkpt>
      <trkpt lat="43.85153" lon="7.32863">
        <ele>509.64</ele>
        <time>2013-02-03T08:08:19Z</time>
      </trkpt>
      <trkpt lat="43.85171" lon="7.32831">
        <ele>511.08</ele>
        <time>2013-02-03T08:08:35Z</time>
      </trkpt>
      <trkpt lat="43.8518" lon="7.32793">
        <ele>513</ele>
        <time>2013-02-03T08:08:52Z</time>
      </trkpt>
      <trkpt lat="43.85185" lon="7.32751">
        <ele>514.44</ele>
        <time>2013-02-03T08:09:10Z</time>
      </trkpt>
      <trkpt lat="43.85187" lon="7.32719">
        <ele>516.85</ele>
        <time>2013-02-03T08:09:24Z</time>
      </trkpt>
      <trkpt lat="43.8518" lon="7.32678">
        <ele>520.69</ele>
        <time>2013-02-03T08:09:41Z</time>
      </trkpt>
      <trkpt lat="43.85172" lon="7.3264">
        <ele>525.02</ele>
        <time>2013-02-03T08:09:58Z</time>
      </trkpt>
      <trkpt lat="43.85162" lon="7.32616">
        <ele>528.38</ele>
        <time>2013-02-03T08:10:12Z</time>
      </trkpt>
      <trkpt lat="43.85161" lon="7.32611">
        <ele>527.42</ele>
        <time>2013-02-03T08:10:26Z</time>
      </trkpt>
      <trkpt lat="43.85162" lon="7.32612">
        <ele>528.86</ele>
        <time>2013-02-03T08:10:51Z</time>
      </trkpt>
      <trkpt lat="43.85161" lon="7.32611">
        <ele>528.86</ele>
        <time>2013-02-03T08:11:13Z</time>
      </trkpt>
      <trkpt lat="43.85158" lon="7.32609">
        <ele>529.34</ele>
        <time>2013-02-03T08:11:16Z</time>
      </trkpt>
      <trkpt lat="43.85154" lon="7.3258">
        <ele>531.75</ele>
        <time>2013-02-03T08:11:29Z</time>
      </trkpt>
      <trkpt lat="43.85157" lon="7.32545">
        <ele>534.63</ele>
        <time>2013-02-03T08:11:44Z</time>
      </trkpt>
      <trkpt lat="43.85164" lon="7.32508">
        <ele>537.03</ele>
        <time>2013-02-03T08:11:58Z</time>
      </trkpt>
      <trkpt lat="43.85158" lon="7.32472">
        <ele>538.96</ele>
        <time>2013-02-03T08:12:12Z</time>
      </trkpt>
      <trkpt lat="43.85135" lon="7.32465">
        <ele>541.84</ele>
        <time>2013-02-03T08:12:26Z</time>
      </trkpt>
      <trkpt lat="43.85116" lon="7.32463">
        <ele>544.72</ele>
        <time>2013-02-03T08:12:40Z</time>
      </trkpt>
      <trkpt lat="43.85097" lon="7.32437">
        <ele>546.65</ele>
        <time>2013-02-03T08:12:55Z</time>
      </trkpt>
      <trkpt lat="43.85072" lon="7.32409">
        <ele>549.05</ele>
        <time>2013-02-03T08:13:13Z</time>
      </trkpt>
      <trkpt lat="43.85045" lon="7.32387">
        <ele>551.45</ele>
        <time>2013-02-03T08:13:30Z</time>
      </trkpt>
      <trkpt lat="43.85026" lon="7.32365">
        <ele>554.34</ele>
        <time>2013-02-03T08:13:45Z</time>
      </trkpt>
      <trkpt lat="43.8501" lon="7.32338">
        <ele>558.18</ele>
        <time>2013-02-03T08:14:01Z</time>
      </trkpt>
      <trkpt lat="43.8501" lon="7.32334">
        <ele>558.66</ele>
        <time>2013-02-03T08:14:03Z</time>
      </trkpt>
      <trkpt lat="43.85012" lon="7.32299">
        <ele>560.11</ele>
        <time>2013-02-03T08:14:19Z</time>
      </trkpt>
      <trkpt lat="43.8502" lon="7.32268">
        <ele>563.47</ele>
        <time>2013-02-03T08:14:35Z</time>
      </trkpt>
      <trkpt lat="43.85024" lon="7.32247">
        <ele>565.39</ele>
        <time>2013-02-03T08:14:45Z</time>
      </trkpt>
      <trkpt lat="43.85027" lon="7.32233">
        <ele>565.87</ele>
        <time>2013-02-03T08:14:51Z</time>
      </trkpt>
      <trkpt lat="43.85038" lon="7.32198">
        <ele>571.16</ele>
        <time>2013-02-03T08:15:08Z</time>
      </trkpt>
      <trkpt lat="43.85042" lon="7.32179">
        <ele>573.08</ele>
        <time>2013-02-03T08:15:17Z</time>
      </trkpt>
      <trkpt lat="43.85042" lon="7.32148">
        <ele>575.97</ele>
        <time>2013-02-03T08:15:33Z</time>
      </trkpt>
      <trkpt lat="43.85043" lon="7.32136">
        <ele>576.93</ele>
        <time>2013-02-03T08:15:39Z</time>
      </trkpt>
      <trkpt lat="43.85038" lon="7.32095">
        <ele>578.37</ele>
        <time>2013-02-03T08:15:57Z</time>
      </trkpt>
      <trkpt lat="43.85032" lon="7.32087">
        <ele>578.85</ele>
        <time>2013-02-03T08:16:02Z</time>
      </trkpt>
      <trkpt lat="43.85028" lon="7.32096">
        <ele>580.29</ele>
        <time>2013-02-03T08:16:08Z</time>
      </trkpt>
      <trkpt lat="43.8503" lon="7.32122">
        <ele>585.58</ele>
        <time>2013-02-03T08:16:21Z</time>
      </trkpt>
      <trkpt lat="43.85029" lon="7.32132">
        <ele>586.54</ele>
        <time>2013-02-03T08:16:26Z</time>
      </trkpt>
      <trkpt lat="43.85019" lon="7.3216">
        <ele>590.87</ele>
        <time>2013-02-03T08:16:41Z</time>
      </trkpt>
      <trkpt lat="43.85004" lon="7.32186">
        <ele>596.15</ele>
        <time>2013-02-03T08:16:58Z</time>
      </trkpt>
      <trkpt lat="43.84984" lon="7.32201">
        <ele>598.08</ele>
        <time>2013-02-03T08:17:14Z</time>
      </trkpt>
      <trkpt lat="43.84965" lon="7.32219">
        <ele>599.04</ele>
        <time>2013-02-03T08:17:32Z</time>
      </trkpt>
      <trkpt lat="43.84946" lon="7.32235">
        <ele>601.44</ele>
        <time>2013-02-03T08:17:49Z</time>
      </trkpt>
      <trkpt lat="43.84927" lon="7.32244">
        <ele>605.29</ele>
        <time>2013-02-03T08:18:03Z</time>
      </trkpt>
      <trkpt lat="43.84905" lon="7.32244">
        <ele>609.61</ele>
        <time>2013-02-03T08:18:20Z</time>
      </trkpt>
      <trkpt lat="43.84887" lon="7.32235">
        <ele>613.94</ele>
        <time>2013-02-03T08:18:36Z</time>
      </trkpt>
      <trkpt lat="43.84869" lon="7.32215">
        <ele>617.3</ele>
        <time>2013-02-03T08:18:53Z</time>
      </trkpt>
      <trkpt lat="43.84844" lon="7.32195">
        <ele>623.55</ele>
        <time>2013-02-03T08:19:11Z</time>
      </trkpt>
      <trkpt lat="43.8482" lon="7.32189">
        <ele>625.96</ele>
        <time>2013-02-03T08:19:27Z</time>
      </trkpt>
      <trkpt lat="43.84803" lon="7.32213">
        <ele>629.32</ele>
        <time>2013-02-03T08:19:43Z</time>
      </trkpt>
      <trkpt lat="43.84783" lon="7.32234">
        <ele>629.8</ele>
        <time>2013-02-03T08:19:58Z</time>
      </trkpt>
      <trkpt lat="43.84757" lon="7.32236">
        <ele>632.2</ele>
        <time>2013-02-03T08:20:15Z</time>
      </trkpt>
      <trkpt lat="43.84737" lon="7.32209">
        <ele>635.57</ele>
        <time>2013-02-03T08:20:34Z</time>
      </trkpt>
      <trkpt lat="43.84716" lon="7.32183">
        <ele>640.38</ele>
        <time>2013-02-03T08:20:52Z</time>
      </trkpt>
      <trkpt lat="43.84688" lon="7.32183">
        <ele>644.22</ele>
        <time>2013-02-03T08:21:11Z</time>
      </trkpt>
      <trkpt lat="43.84658" lon="7.32175">
        <ele>647.59</ele>
        <time>2013-02-03T08:21:30Z</time>
      </trkpt>
      <trkpt lat="43.84648" lon="7.32165">
        <ele>648.07</ele>
        <time>2013-02-03T08:21:38Z</time>
      </trkpt>
      <trkpt lat="43.84661" lon="7.3216">
        <ele>649.03</ele>
        <time>2013-02-03T08:21:50Z</time>
      </trkpt>
      <trkpt lat="43.84673" lon="7.32167">
        <ele>649.99</ele>
        <time>2013-02-03T08:21:59Z</time>
      </trkpt>
      <trkpt lat="43.84698" lon="7.32163">
        <ele>653.83</ele>
        <time>2013-02-03T08:22:17Z</time>
      </trkpt>
      <trkpt lat="43.847" lon="7.32163">
        <ele>653.83</ele>
        <time>2013-02-03T08:22:18Z</time>
      </trkpt>
      <trkpt lat="43.84721" lon="7.3216">
        <ele>657.68</ele>
        <time>2013-02-03T08:22:34Z</time>
      </trkpt>
      <trkpt lat="43.8474" lon="7.3217">
        <ele>660.08</ele>
        <time>2013-02-03T08:22:48Z</time>
      </trkpt>
      <trkpt lat="43.84753" lon="7.32177">
        <ele>661.04</ele>
        <time>2013-02-03T08:22:57Z</time>
      </trkpt>
      <trkpt lat="43.84777" lon="7.32166">
        <ele>664.41</ele>
        <time>2013-02-03T08:23:14Z</time>
      </trkpt>
      <trkpt lat="43.84784" lon="7.3213">
        <ele>666.33</ele>
        <time>2013-02-03T08:23:31Z</time>
      </trkpt>
      <trkpt lat="43.84799" lon="7.32108">
        <ele>670.18</ele>
        <time>2013-02-03T08:23:45Z</time>
      </trkpt>
      <trkpt lat="43.84821" lon="7.32099">
        <ele>672.58</ele>
        <time>2013-02-03T08:24:00Z</time>
      </trkpt>
      <trkpt lat="43.84842" lon="7.321">
        <ele>674.02</ele>
        <time>2013-02-03T08:24:15Z</time>
      </trkpt>
      <trkpt lat="43.84868" lon="7.32109">
        <ele>675.46</ele>
        <time>2013-02-03T08:24:32Z</time>
      </trkpt>
      <trkpt lat="43.84894" lon="7.32111">
        <ele>678.35</ele>
        <time>2013-02-03T08:24:48Z</time>
      </trkpt>
      <trkpt lat="43.84919" lon="7.32102">
        <ele>680.27</ele>
        <time>2013-02-03T08:25:04Z</time>
      </trkpt>
      <trkpt lat="43.84916" lon="7.32094">
        <ele>681.71</ele>
        <time>2013-02-03T08:25:11Z</time>
      </trkpt>
      <trkpt lat="43.84911" lon="7.32096">
        <ele>682.19</ele>
        <time>2013-02-03T08:25:14Z</time>
      </trkpt>
      <trkpt lat="43.84882" lon="7.32093">
        <ele>685.08</ele>
        <time>2013-02-03T08:25:33Z</time>
      </trkpt>
      <trkpt lat="43.84871" lon="7.32088">
        <ele>687</ele>
        <time>2013-02-03T08:25:41Z</time>
      </trkpt>
      <trkpt lat="43.84848" lon="7.32067">
        <ele>690.84</ele>
        <time>2013-02-03T08:26:00Z</time>
      </trkpt>
      <trkpt lat="43.84827" lon="7.3206">
        <ele>694.21</ele>
        <time>2013-02-03T08:26:15Z</time>
      </trkpt>
      <trkpt lat="43.84802" lon="7.32057">
        <ele>697.57</ele>
        <time>2013-02-03T08:26:32Z</time>
      </trkpt>
      <trkpt lat="43.84779" lon="7.32065">
        <ele>701.42</ele>
        <time>2013-02-03T08:26:48Z</time>
      </trkpt>
      <trkpt lat="43.84757" lon="7.32074">
        <ele>702.38</ele>
        <time>2013-02-03T08:27:03Z</time>
      </trkpt>
      <trkpt lat="43.84737" lon="7.32065">
        <ele>705.26</ele>
        <time>2013-02-03T08:27:18Z</time>
      </trkpt>
      <trkpt lat="43.84712" lon="7.32061">
        <ele>707.67</ele>
        <time>2013-02-03T08:27:34Z</time>
      </trkpt>
      <trkpt lat="43.84689" lon="7.3206">
        <ele>711.03</ele>
        <time>2013-02-03T08:27:49Z</time>
      </trkpt>
      <trkpt lat="43.84691" lon="7.32047">
        <ele>711.99</ele>
        <time>2013-02-03T08:27:59Z</time>
      </trkpt>
      <trkpt lat="43.84716" lon="7.32044">
        <ele>712.47</ele>
        <time>2013-02-03T08:28:14Z</time>
      </trkpt>
      <trkpt lat="43.8474" lon="7.32046">
        <ele>714.4</ele>
        <time>2013-02-03T08:28:29Z</time>
      </trkpt>
      <trkpt lat="43.84769" lon="7.3204">
        <ele>717.76</ele>
        <time>2013-02-03T08:28:47Z</time>
      </trkpt>
      <trkpt lat="43.84794" lon="7.3202">
        <ele>721.13</ele>
        <time>2013-02-03T08:29:03Z</time>
      </trkpt>
      <trkpt lat="43.84822" lon="7.3201">
        <ele>724.49</ele>
        <time>2013-02-03T08:29:20Z</time>
      </trkpt>
      <trkpt lat="43.84841" lon="7.31988">
        <ele>724.97</ele>
        <time>2013-02-03T08:29:35Z</time>
      </trkpt>
      <trkpt lat="43.84828" lon="7.31955">
        <ele>725.45</ele>
        <time>2013-02-03T08:29:49Z</time>
      </trkpt>
      <trkpt lat="43.8481" lon="7.31929">
        <ele>727.37</ele>
        <time>2013-02-03T08:30:04Z</time>
      </trkpt>
      <trkpt lat="43.84787" lon="7.31896">
        <ele>729.3</ele>
        <time>2013-02-03T08:30:22Z</time>
      </trkpt>
      <trkpt lat="43.84775" lon="7.3187">
        <ele>730.26</ele>
        <time>2013-02-03T08:30:35Z</time>
      </trkpt>
      <trkpt lat="43.84778" lon="7.31839">
        <ele>735.07</ele>
        <time>2013-02-03T08:30:49Z</time>
      </trkpt>
      <trkpt lat="43.84771" lon="7.31812">
        <ele>737.95</ele>
        <time>2013-02-03T08:31:05Z</time>
      </trkpt>
      <trkpt lat="43.84757" lon="7.31784">
        <ele>740.35</ele>
        <time>2013-02-03T08:31:20Z</time>
      </trkpt>
      <trkpt lat="43.84752" lon="7.31755">
        <ele>743.72</ele>
        <time>2013-02-03T08:31:35Z</time>
      </trkpt>
      <trkpt lat="43.84749" lon="7.31725">
        <ele>743.24</ele>
        <time>2013-02-03T08:31:49Z</time>
      </trkpt>
      <trkpt lat="43.84744" lon="7.31692">
        <ele>748.04</ele>
        <time>2013-02-03T08:32:04Z</time>
      </trkpt>
      <trkpt lat="43.8474" lon="7.31683">
        <ele>748.04</ele>
        <time>2013-02-03T08:32:09Z</time>
      </trkpt>
      <trkpt lat="43.84734" lon="7.31668">
        <ele>750.45</ele>
        <time>2013-02-03T08:32:17Z</time>
      </trkpt>
      <trkpt lat="43.84733" lon="7.31664">
        <ele>751.89</ele>
        <time>2013-02-03T08:32:20Z</time>
      </trkpt>
      <trkpt lat="43.84731" lon="7.31644">
        <ele>758.62</ele>
        <time>2013-02-03T08:32:30Z</time>
      </trkpt>
      <trkpt lat="43.84731" lon="7.3163">
        <ele>761.98</ele>
        <time>2013-02-03T08:32:38Z</time>
      </trkpt>
      <trkpt lat="43.84729" lon="7.31621">
        <ele>762.46</ele>
        <time>2013-02-03T08:32:44Z</time>
      </trkpt>
      <trkpt lat="43.84727" lon="7.31615">
        <ele>762.94</ele>
        <time>2013-02-03T08:32:57Z</time>
      </trkpt>
      <trkpt lat="43.84724" lon="7.31619">
        <ele>767.75</ele>
        <time>2013-02-03T08:33:33Z</time>
      </trkpt>
      <trkpt lat="43.84725" lon="7.31619">
        <ele>768.23</ele>
        <time>2013-02-03T08:34:08Z</time>
      </trkpt>
      <trkpt lat="43.84723" lon="7.31617">
        <ele>765.35</ele>
        <time>2013-02-03T08:34:39Z</time>
      </trkpt>
      <trkpt lat="43.84724" lon="7.31618">
        <ele>765.35</ele>
        <time>2013-02-03T08:34:44Z</time>
      </trkpt>
      <trkpt lat="43.84737" lon="7.31624">
        <ele>762.94</ele>
        <time>2013-02-03T08:34:51Z</time>
      </trkpt>
      <trkpt lat="43.84783" lon="7.31622">
        <ele>759.1</ele>
        <time>2013-02-03T08:35:00Z</time>
      </trkpt>
      <trkpt lat="43.8481" lon="7.31625">
        <ele>757.66</ele>
        <time>2013-02-03T08:35:05Z</time>
      </trkpt>
      <trkpt lat="43.84839" lon="7.31624">
        <ele>758.62</ele>
        <time>2013-02-03T08:35:13Z</time>
      </trkpt>
      <trkpt lat="43.84865" lon="7.31625">
        <ele>758.62</ele>
        <time>2013-02-03T08:35:24Z</time>
      </trkpt>
      <trkpt lat="43.84898" lon="7.31632">
        <ele>759.1</ele>
        <time>2013-02-03T08:35:36Z</time>
      </trkpt>
      <trkpt lat="43.84924" lon="7.31617">
        <ele>760.54</ele>
        <time>2013-02-03T08:35:47Z</time>
      </trkpt>
      <trkpt lat="43.84935" lon="7.31613">
        <ele>759.1</ele>
        <time>2013-02-03T08:35:51Z</time>
      </trkpt>
      <trkpt lat="43.84956" lon="7.31604">
        <ele>754.77</ele>
        <time>2013-02-03T08:35:57Z</time>
      </trkpt>
      <trkpt lat="43.84981" lon="7.3158">
        <ele>747.56</ele>
        <time>2013-02-03T08:36:06Z</time>
      </trkpt>
      <trkpt lat="43.85011" lon="7.31572">
        <ele>747.08</ele>
        <time>2013-02-03T08:36:14Z</time>
      </trkpt>
      <trkpt lat="43.85033" lon="7.31561">
        <ele>746.12</ele>
        <time>2013-02-03T08:36:22Z</time>
      </trkpt>
      <trkpt lat="43.85037" lon="7.31562">
        <ele>746.12</ele>
        <time>2013-02-03T08:36:23Z</time>
      </trkpt>
      <trkpt lat="43.8506" lon="7.31577">
        <ele>746.12</ele>
        <time>2013-02-03T08:36:29Z</time>
      </trkpt>
      <trkpt lat="43.85075" lon="7.31595">
        <ele>746.6</ele>
        <time>2013-02-03T08:36:34Z</time>
      </trkpt>
      <trkpt lat="43.85081" lon="7.31607">
        <ele>746.6</ele>
        <time>2013-02-03T08:36:37Z</time>
      </trkpt>
      <trkpt lat="43.85092" lon="7.31622">
        <ele>746.6</ele>
        <time>2013-02-03T08:36:42Z</time>
      </trkpt>
      <trkpt lat="43.85094" lon="7.31635">
        <ele>746.6</ele>
        <time>2013-02-03T08:36:45Z</time>
      </trkpt>
      <trkpt lat="43.85101" lon="7.31663">
        <ele>746.12</ele>
        <time>2013-02-03T08:36:50Z</time>
      </trkpt>
      <trkpt lat="43.85129" lon="7.31688">
        <ele>743.24</ele>
        <time>2013-02-03T08:36:58Z</time>
      </trkpt>
      <trkpt lat="43.85164" lon="7.31679">
        <ele>743.24</ele>
        <time>2013-02-03T08:37:06Z</time>
      </trkpt>
      <trkpt lat="43.85181" lon="7.31699">
        <ele>743.72</ele>
        <time>2013-02-03T08:37:11Z</time>
      </trkpt>
      <trkpt lat="43.85186" lon="7.31713">
        <ele>743.24</ele>
        <time>2013-02-03T08:37:13Z</time>
      </trkpt>
      <trkpt lat="43.852" lon="7.31739">
        <ele>740.83</ele>
        <time>2013-02-03T08:37:17Z</time>
      </trkpt>
      <trkpt lat="43.85206" lon="7.31772">
        <ele>735.07</ele>
        <time>2013-02-03T08:37:25Z</time>
      </trkpt>
      <trkpt lat="43.8521" lon="7.31778">
        <ele>732.18</ele>
        <time>2013-02-03T08:37:28Z</time>
      </trkpt>
      <trkpt lat="43.85241" lon="7.3177">
        <ele>726.89</ele>
        <time>2013-02-03T08:37:39Z</time>
      </trkpt>
      <trkpt lat="43.85266" lon="7.31769">
        <ele>725.45</ele>
        <time>2013-02-03T08:37:46Z</time>
      </trkpt>
      <trkpt lat="43.8529" lon="7.3178">
        <ele>723.05</ele>
        <time>2013-02-03T08:37:53Z</time>
      </trkpt>
      <trkpt lat="43.85304" lon="7.31785">
        <ele>721.61</ele>
        <time>2013-02-03T08:37:56Z</time>
      </trkpt>
      <trkpt lat="43.85333" lon="7.31802">
        <ele>720.16</ele>
        <time>2013-02-03T08:38:02Z</time>
      </trkpt>
      <trkpt lat="43.85345" lon="7.31821">
        <ele>719.68</ele>
        <time>2013-02-03T08:38:06Z</time>
      </trkpt>
      <trkpt lat="43.85365" lon="7.31835">
        <ele>718.24</ele>
        <time>2013-02-03T08:38:11Z</time>
      </trkpt>
      <trkpt lat="43.85397" lon="7.31844">
        <ele>718.72</ele>
        <time>2013-02-03T08:38:18Z</time>
      </trkpt>
      <trkpt lat="43.85405" lon="7.31853">
        <ele>719.2</ele>
        <time>2013-02-03T08:38:20Z</time>
      </trkpt>
      <trkpt lat="43.85432" lon="7.31871">
        <ele>718.72</ele>
        <time>2013-02-03T08:38:28Z</time>
      </trkpt>
      <trkpt lat="43.8544" lon="7.31891">
        <ele>716.32</ele>
        <time>2013-02-03T08:38:34Z</time>
      </trkpt>
      <trkpt lat="43.85463" lon="7.31909">
        <ele>711.99</ele>
        <time>2013-02-03T08:38:41Z</time>
      </trkpt>
      <trkpt lat="43.85469" lon="7.31917">
        <ele>710.55</ele>
        <time>2013-02-03T08:38:44Z</time>
      </trkpt>
      <trkpt lat="43.85474" lon="7.31924">
        <ele>709.11</ele>
        <time>2013-02-03T08:38:55Z</time>
      </trkpt>
      <trkpt lat="43.8548" lon="7.31926">
        <ele>709.11</ele>
        <time>2013-02-03T08:38:58Z</time>
      </trkpt>
      <trkpt lat="43.85506" lon="7.31922">
        <ele>706.23</ele>
        <time>2013-02-03T08:39:07Z</time>
      </trkpt>
      <trkpt lat="43.85527" lon="7.31908">
        <ele>704.78</ele>
        <time>2013-02-03T08:39:13Z</time>
      </trkpt>
      <trkpt lat="43.8556" lon="7.31867">
        <ele>704.78</ele>
        <time>2013-02-03T08:39:22Z</time>
      </trkpt>
      <trkpt lat="43.85573" lon="7.31858">
        <ele>704.3</ele>
        <time>2013-02-03T08:39:25Z</time>
      </trkpt>
      <trkpt lat="43.85608" lon="7.31857">
        <ele>703.34</ele>
        <time>2013-02-03T08:39:33Z</time>
      </trkpt>
      <trkpt lat="43.85629" lon="7.31855">
        <ele>702.38</ele>
        <time>2013-02-03T08:39:39Z</time>
      </trkpt>
      <trkpt lat="43.85651" lon="7.31864">
        <ele>699.98</ele>
        <time>2013-02-03T08:39:46Z</time>
      </trkpt>
      <trkpt lat="43.85658" lon="7.31863">
        <ele>699.02</ele>
        <time>2013-02-03T08:39:48Z</time>
      </trkpt>
      <trkpt lat="43.85676" lon="7.31869">
        <ele>696.13</ele>
        <time>2013-02-03T08:39:52Z</time>
      </trkpt>
      <trkpt lat="43.85683" lon="7.31897">
        <ele>691.81</ele>
        <time>2013-02-03T08:39:57Z</time>
      </trkpt>
      <trkpt lat="43.85679" lon="7.3192">
        <ele>689.4</ele>
        <time>2013-02-03T08:40:00Z</time>
      </trkpt>
      <trkpt lat="43.85681" lon="7.3194">
        <ele>687.96</ele>
        <time>2013-02-03T08:40:04Z</time>
      </trkpt>
      <trkpt lat="43.85683" lon="7.31948">
        <ele>687</ele>
        <time>2013-02-03T08:40:14Z</time>
      </trkpt>
      <trkpt lat="43.85684" lon="7.31955">
        <ele>687</ele>
        <time>2013-02-03T08:40:25Z</time>
      </trkpt>
      <trkpt lat="43.85689" lon="7.31967">
        <ele>682.19</ele>
        <time>2013-02-03T08:40:38Z</time>
      </trkpt>
      <trkpt lat="43.85691" lon="7.31972">
        <ele>680.75</ele>
        <time>2013-02-03T08:40:43Z</time>
      </trkpt>
      <trkpt lat="43.85696" lon="7.31985">
        <ele>677.39</ele>
        <time>2013-02-03T08:40:48Z</time>
      </trkpt>
      <trkpt lat="43.85703" lon="7.31998">
        <ele>674.98</ele>
        <time>2013-02-03T08:40:54Z</time>
      </trkpt>
      <trkpt lat="43.85708" lon="7.32003">
        <ele>675.46</ele>
        <time>2013-02-03T08:41:03Z</time>
      </trkpt>
      <trkpt lat="43.85711" lon="7.32006">
        <ele>675.46</ele>
        <time>2013-02-03T08:41:08Z</time>
      </trkpt>
      <trkpt lat="43.85713" lon="7.32005">
        <ele>675.46</ele>
        <time>2013-02-03T08:41:10Z</time>
      </trkpt>
      <trkpt lat="43.85739" lon="7.32007">
        <ele>672.58</ele>
        <time>2013-02-03T08:41:20Z</time>
      </trkpt>
      <trkpt lat="43.85747" lon="7.32005">
        <ele>671.62</ele>
        <time>2013-02-03T08:41:22Z</time>
      </trkpt>
      <trkpt lat="43.85783" lon="7.32027">
        <ele>668.73</ele>
        <time>2013-02-03T08:41:32Z</time>
      </trkpt>
      <trkpt lat="43.85798" lon="7.3205">
        <ele>667.77</ele>
        <time>2013-02-03T08:41:37Z</time>
      </trkpt>
      <trkpt lat="43.85824" lon="7.32066">
        <ele>666.81</ele>
        <time>2013-02-03T08:41:44Z</time>
      </trkpt>
      <trkpt lat="43.85859" lon="7.32065">
        <ele>666.33</ele>
        <time>2013-02-03T08:41:52Z</time>
      </trkpt>
      <trkpt lat="43.8587" lon="7.32066">
        <ele>665.37</ele>
        <time>2013-02-03T08:41:54Z</time>
      </trkpt>
      <trkpt lat="43.85894" lon="7.32069">
        <ele>663.93</ele>
        <time>2013-02-03T08:41:59Z</time>
      </trkpt>
      <trkpt lat="43.85918" lon="7.32062">
        <ele>664.41</ele>
        <time>2013-02-03T08:42:05Z</time>
      </trkpt>
      <trkpt lat="43.85933" lon="7.32067">
        <ele>663.45</ele>
        <time>2013-02-03T08:42:10Z</time>
      </trkpt>
      <trkpt lat="43.85954" lon="7.32055">
        <ele>661.52</ele>
        <time>2013-02-03T08:42:15Z</time>
      </trkpt>
      <trkpt lat="43.85987" lon="7.32033">
        <ele>652.87</ele>
        <time>2013-02-03T08:42:23Z</time>
      </trkpt>
      <trkpt lat="43.86019" lon="7.32048">
        <ele>646.62</ele>
        <time>2013-02-03T08:42:29Z</time>
      </trkpt>
      <trkpt lat="43.86022" lon="7.32048">
        <ele>646.14</ele>
        <time>2013-02-03T08:42:37Z</time>
      </trkpt>
      <trkpt lat="43.86024" lon="7.32049">
        <ele>646.62</ele>
        <time>2013-02-03T08:42:52Z</time>
      </trkpt>
      <trkpt lat="43.86025" lon="7.32051">
        <ele>646.14</ele>
        <time>2013-02-03T08:43:12Z</time>
      </trkpt>
      <trkpt lat="43.86025" lon="7.32072">
        <ele>645.66</ele>
        <time>2013-02-03T08:43:19Z</time>
      </trkpt>
      <trkpt lat="43.86035" lon="7.32099">
        <ele>643.74</ele>
        <time>2013-02-03T08:43:27Z</time>
      </trkpt>
      <trkpt lat="43.86033" lon="7.32114">
        <ele>644.7</ele>
        <time>2013-02-03T08:43:32Z</time>
      </trkpt>
      <trkpt lat="43.86037" lon="7.32152">
        <ele>645.18</ele>
        <time>2013-02-03T08:43:42Z</time>
      </trkpt>
      <trkpt lat="43.86034" lon="7.32187">
        <ele>646.14</ele>
        <time>2013-02-03T08:43:54Z</time>
      </trkpt>
      <trkpt lat="43.86041" lon="7.32209">
        <ele>647.59</ele>
        <time>2013-02-03T08:44:05Z</time>
      </trkpt>
      <trkpt lat="43.86042" lon="7.32211">
        <ele>647.59</ele>
        <time>2013-02-03T08:44:06Z</time>
      </trkpt>
      <trkpt lat="43.86047" lon="7.32226">
        <ele>650.47</ele>
        <time>2013-02-03T08:44:18Z</time>
      </trkpt>
      <trkpt lat="43.86047" lon="7.32231">
        <ele>651.43</ele>
        <time>2013-02-03T08:44:22Z</time>
      </trkpt>
      <trkpt lat="43.86047" lon="7.32236">
        <ele>651.91</ele>
        <time>2013-02-03T08:44:28Z</time>
      </trkpt>
      <trkpt lat="43.86051" lon="7.32246">
        <ele>652.39</ele>
        <time>2013-02-03T08:44:35Z</time>
      </trkpt>
      <trkpt lat="43.86059" lon="7.32271">
        <ele>653.35</ele>
        <time>2013-02-03T08:44:48Z</time>
      </trkpt>
      <trkpt lat="43.86072" lon="7.32305">
        <ele>655.28</ele>
        <time>2013-02-03T08:44:59Z</time>
      </trkpt>
      <trkpt lat="43.86083" lon="7.32332">
        <ele>658.16</ele>
        <time>2013-02-03T08:45:13Z</time>
      </trkpt>
      <trkpt lat="43.86086" lon="7.32339">
        <ele>658.16</ele>
        <time>2013-02-03T08:45:17Z</time>
      </trkpt>
      <trkpt lat="43.8609" lon="7.32346">
        <ele>660.08</ele>
        <time>2013-02-03T08:45:26Z</time>
      </trkpt>
      <trkpt lat="43.86093" lon="7.32361">
        <ele>662.97</ele>
        <time>2013-02-03T08:45:39Z</time>
      </trkpt>
      <trkpt lat="43.86097" lon="7.32374">
        <ele>662.97</ele>
        <time>2013-02-03T08:45:50Z</time>
      </trkpt>
      <trkpt lat="43.86104" lon="7.32402">
        <ele>664.89</ele>
        <time>2013-02-03T08:46:06Z</time>
      </trkpt>
      <trkpt lat="43.86107" lon="7.3242">
        <ele>667.77</ele>
        <time>2013-02-03T08:46:16Z</time>
      </trkpt>
      <trkpt lat="43.86111" lon="7.32431">
        <ele>669.22</ele>
        <time>2013-02-03T08:46:24Z</time>
      </trkpt>
      <trkpt lat="43.86117" lon="7.32435">
        <ele>670.18</ele>
        <time>2013-02-03T08:46:30Z</time>
      </trkpt>
      <trkpt lat="43.86124" lon="7.3244">
        <ele>670.18</ele>
        <time>2013-02-03T08:46:34Z</time>
      </trkpt>
      <trkpt lat="43.86136" lon="7.32435">
        <ele>672.1</ele>
        <time>2013-02-03T08:46:41Z</time>
      </trkpt>
      <trkpt lat="43.86163" lon="7.32433">
        <ele>674.98</ele>
        <time>2013-02-03T08:46:54Z</time>
      </trkpt>
      <trkpt lat="43.86187" lon="7.32423">
        <ele>675.94</ele>
        <time>2013-02-03T08:47:06Z</time>
      </trkpt>
      <trkpt lat="43.86203" lon="7.32412">
        <ele>680.75</ele>
        <time>2013-02-03T08:47:16Z</time>
      </trkpt>
      <trkpt lat="43.8622" lon="7.32395">
        <ele>682.19</ele>
        <time>2013-02-03T08:47:27Z</time>
      </trkpt>
      <trkpt lat="43.86226" lon="7.32394">
        <ele>682.67</ele>
        <time>2013-02-03T08:47:30Z</time>
      </trkpt>
      <trkpt lat="43.86238" lon="7.32388">
        <ele>684.6</ele>
        <time>2013-02-03T08:47:38Z</time>
      </trkpt>
      <trkpt lat="43.86252" lon="7.32381">
        <ele>684.12</ele>
        <time>2013-02-03T08:47:45Z</time>
      </trkpt>
      <trkpt lat="43.86278" lon="7.3238">
        <ele>683.63</ele>
        <time>2013-02-03T08:47:54Z</time>
      </trkpt>
      <trkpt lat="43.86302" lon="7.32376">
        <ele>684.6</ele>
        <time>2013-02-03T08:48:07Z</time>
      </trkpt>
      <trkpt lat="43.86322" lon="7.32366">
        <ele>686.52</ele>
        <time>2013-02-03T08:48:20Z</time>
      </trkpt>
      <trkpt lat="43.86341" lon="7.32354">
        <ele>690.84</ele>
        <time>2013-02-03T08:48:33Z</time>
      </trkpt>
      <trkpt lat="43.86344" lon="7.32353">
        <ele>691.33</ele>
        <time>2013-02-03T08:48:35Z</time>
      </trkpt>
      <trkpt lat="43.86352" lon="7.32351">
        <ele>693.73</ele>
        <time>2013-02-03T08:48:41Z</time>
      </trkpt>
      <trkpt lat="43.8636" lon="7.32341">
        <ele>695.65</ele>
        <time>2013-02-03T08:48:53Z</time>
      </trkpt>
      <trkpt lat="43.86365" lon="7.32335">
        <ele>696.61</ele>
        <time>2013-02-03T08:49:00Z</time>
      </trkpt>
      <trkpt lat="43.86373" lon="7.32331">
        <ele>696.13</ele>
        <time>2013-02-03T08:49:12Z</time>
      </trkpt>
      <trkpt lat="43.8638" lon="7.32323">
        <ele>696.13</ele>
        <time>2013-02-03T08:49:19Z</time>
      </trkpt>
      <trkpt lat="43.86386" lon="7.32321">
        <ele>696.61</ele>
        <time>2013-02-03T08:49:24Z</time>
      </trkpt>
      <trkpt lat="43.86403" lon="7.32314">
        <ele>697.57</ele>
        <time>2013-02-03T08:49:38Z</time>
      </trkpt>
      <trkpt lat="43.86426" lon="7.32304">
        <ele>698.53</ele>
        <time>2013-02-03T08:49:51Z</time>
      </trkpt>
      <trkpt lat="43.86448" lon="7.32295">
        <ele>699.5</ele>
        <time>2013-02-03T08:50:04Z</time>
      </trkpt>
      <trkpt lat="43.86475" lon="7.32288">
        <ele>702.38</ele>
        <time>2013-02-03T08:50:17Z</time>
      </trkpt>
      <trkpt lat="43.86501" lon="7.3229">
        <ele>701.9</ele>
        <time>2013-02-03T08:50:29Z</time>
      </trkpt>
      <trkpt lat="43.86503" lon="7.32288">
        <ele>701.42</ele>
        <time>2013-02-03T08:50:30Z</time>
      </trkpt>
      <trkpt lat="43.8651" lon="7.32299">
        <ele>701.42</ele>
        <time>2013-02-03T08:50:37Z</time>
      </trkpt>
      <trkpt lat="43.86514" lon="7.3232">
        <ele>701.42</ele>
        <time>2013-02-03T08:50:45Z</time>
      </trkpt>
      <trkpt lat="43.86523" lon="7.32349">
        <ele>702.86</ele>
        <time>2013-02-03T08:50:59Z</time>
      </trkpt>
      <trkpt lat="43.86539" lon="7.32372">
        <ele>706.71</ele>
        <time>2013-02-03T08:51:12Z</time>
      </trkpt>
      <trkpt lat="43.86561" lon="7.32371">
        <ele>710.07</ele>
        <time>2013-02-03T08:51:26Z</time>
      </trkpt>
      <trkpt lat="43.86578" lon="7.32358">
        <ele>712.47</ele>
        <time>2013-02-03T08:51:38Z</time>
      </trkpt>
      <trkpt lat="43.86586" lon="7.32348">
        <ele>713.92</ele>
        <time>2013-02-03T08:51:44Z</time>
      </trkpt>
      <trkpt lat="43.86592" lon="7.32352">
        <ele>714.88</ele>
        <time>2013-02-03T08:51:48Z</time>
      </trkpt>
      <trkpt lat="43.86622" lon="7.32377">
        <ele>714.4</ele>
        <time>2013-02-03T08:52:03Z</time>
      </trkpt>
      <trkpt lat="43.86655" lon="7.32396">
        <ele>713.44</ele>
        <time>2013-02-03T08:52:16Z</time>
      </trkpt>
      <trkpt lat="43.86692" lon="7.32389">
        <ele>713.44</ele>
        <time>2013-02-03T08:52:29Z</time>
      </trkpt>
      <trkpt lat="43.86729" lon="7.32362">
        <ele>714.4</ele>
        <time>2013-02-03T08:52:42Z</time>
      </trkpt>
      <trkpt lat="43.86748" lon="7.32333">
        <ele>714.88</ele>
        <time>2013-02-03T08:52:51Z</time>
      </trkpt>
      <trkpt lat="43.86775" lon="7.32333">
        <ele>715.84</ele>
        <time>2013-02-03T08:53:01Z</time>
      </trkpt>
      <trkpt lat="43.86786" lon="7.32324">
        <ele>716.32</ele>
        <time>2013-02-03T08:53:07Z</time>
      </trkpt>
      <trkpt lat="43.86805" lon="7.3232">
        <ele>715.84</ele>
        <time>2013-02-03T08:53:18Z</time>
      </trkpt>
      <trkpt lat="43.86833" lon="7.32307">
        <ele>716.8</ele>
        <time>2013-02-03T08:53:31Z</time>
      </trkpt>
      <trkpt lat="43.86862" lon="7.3229">
        <ele>718.24</ele>
        <time>2013-02-03T08:53:45Z</time>
      </trkpt>
      <trkpt lat="43.86887" lon="7.32274">
        <ele>720.16</ele>
        <time>2013-02-03T08:53:59Z</time>
      </trkpt>
      <trkpt lat="43.86922" lon="7.32255">
        <ele>720.16</ele>
        <time>2013-02-03T08:54:12Z</time>
      </trkpt>
      <trkpt lat="43.8696" lon="7.32229">
        <ele>719.2</ele>
        <time>2013-02-03T08:54:25Z</time>
      </trkpt>
      <trkpt lat="43.86968" lon="7.32219">
        <ele>719.68</ele>
        <time>2013-02-03T08:54:28Z</time>
      </trkpt>
      <trkpt lat="43.86987" lon="7.32199">
        <ele>720.16</ele>
        <time>2013-02-03T08:54:37Z</time>
      </trkpt>
      <trkpt lat="43.86995" lon="7.32196">
        <ele>721.61</ele>
        <time>2013-02-03T08:54:41Z</time>
      </trkpt>
      <trkpt lat="43.8701" lon="7.32177">
        <ele>723.53</ele>
        <time>2013-02-03T08:54:52Z</time>
      </trkpt>
      <trkpt lat="43.87032" lon="7.32169">
        <ele>724.49</ele>
        <time>2013-02-03T08:55:04Z</time>
      </trkpt>
      <trkpt lat="43.87035" lon="7.32165">
        <ele>724.49</ele>
        <time>2013-02-03T08:55:07Z</time>
      </trkpt>
      <trkpt lat="43.87059" lon="7.32162">
        <ele>724.97</ele>
        <time>2013-02-03T08:55:19Z</time>
      </trkpt>
      <trkpt lat="43.87089" lon="7.32164">
        <ele>725.45</ele>
        <time>2013-02-03T08:55:32Z</time>
      </trkpt>
      <trkpt lat="43.87094" lon="7.32169">
        <ele>725.93</ele>
        <time>2013-02-03T08:55:43Z</time>
      </trkpt>
      <trkpt lat="43.87094" lon="7.32168">
        <ele>725.93</ele>
        <time>2013-02-03T08:56:14Z</time>
      </trkpt>
      <trkpt lat="43.87096" lon="7.32169">
        <ele>723.05</ele>
        <time>2013-02-03T08:56:48Z</time>
      </trkpt>
      <trkpt lat="43.87096" lon="7.3217">
        <ele>722.57</ele>
        <time>2013-02-03T08:57:15Z</time>
      </trkpt>
      <trkpt lat="43.87094" lon="7.3217">
        <ele>723.05</ele>
        <time>2013-02-03T08:57:41Z</time>
      </trkpt>
      <trkpt lat="43.87094" lon="7.32168">
        <ele>722.57</ele>
        <time>2013-02-03T08:58:07Z</time>
      </trkpt>
      <trkpt lat="43.87095" lon="7.32168">
        <ele>722.57</ele>
        <time>2013-02-03T08:58:21Z</time>
      </trkpt>
      <trkpt lat="43.87095" lon="7.32167">
        <ele>721.13</ele>
        <time>2013-02-03T08:59:01Z</time>
      </trkpt>
      <trkpt lat="43.87094" lon="7.32165">
        <ele>719.2</ele>
        <time>2013-02-03T08:59:46Z</time>
      </trkpt>
      <trkpt lat="43.87095" lon="7.32167">
        <ele>721.13</ele>
        <time>2013-02-03T09:00:13Z</time>
      </trkpt>
      <trkpt lat="43.87093" lon="7.32165">
        <ele>718.72</ele>
        <time>2013-02-03T09:00:48Z</time>
      </trkpt>
      <trkpt lat="43.87093" lon="7.32165">
        <ele>720.16</ele>
        <time>2013-02-03T09:01:18Z</time>
      </trkpt>
      <trkpt lat="43.87096" lon="7.32166">
        <ele>721.61</ele>
        <time>2013-02-03T09:01:37Z</time>
      </trkpt>
      <trkpt lat="43.87099" lon="7.32188">
        <ele>723.53</ele>
        <time>2013-02-03T09:01:48Z</time>
      </trkpt>
      <trkpt lat="43.87101" lon="7.32201">
        <ele>724.49</ele>
        <time>2013-02-03T09:01:55Z</time>
      </trkpt>
      <trkpt lat="43.87106" lon="7.32216">
        <ele>726.89</ele>
        <time>2013-02-03T09:02:07Z</time>
      </trkpt>
      <trkpt lat="43.87109" lon="7.32231">
        <ele>729.3</ele>
        <time>2013-02-03T09:02:19Z</time>
      </trkpt>
      <trkpt lat="43.87109" lon="7.32236">
        <ele>730.26</ele>
        <time>2013-02-03T09:02:21Z</time>
      </trkpt>
      <trkpt lat="43.87116" lon="7.32252">
        <ele>733.62</ele>
        <time>2013-02-03T09:02:34Z</time>
      </trkpt>
      <trkpt lat="43.87124" lon="7.32258">
        <ele>735.55</ele>
        <time>2013-02-03T09:02:46Z</time>
      </trkpt>
      <trkpt lat="43.87135" lon="7.32269">
        <ele>736.51</ele>
        <time>2013-02-03T09:02:59Z</time>
      </trkpt>
      <trkpt lat="43.87145" lon="7.32279">
        <ele>737.95</ele>
        <time>2013-02-03T09:03:11Z</time>
      </trkpt>
      <trkpt lat="43.87161" lon="7.3229">
        <ele>740.35</ele>
        <time>2013-02-03T09:03:27Z</time>
      </trkpt>
      <trkpt lat="43.87171" lon="7.32291">
        <ele>743.72</ele>
        <time>2013-02-03T09:03:40Z</time>
      </trkpt>
      <trkpt lat="43.87181" lon="7.32286">
        <ele>746.12</ele>
        <time>2013-02-03T09:03:53Z</time>
      </trkpt>
      <trkpt lat="43.87182" lon="7.32287">
        <ele>746.12</ele>
        <time>2013-02-03T09:03:54Z</time>
      </trkpt>
      <trkpt lat="43.87186" lon="7.32291">
        <ele>745.64</ele>
        <time>2013-02-03T09:03:58Z</time>
      </trkpt>
      <trkpt lat="43.87201" lon="7.32294">
        <ele>748.04</ele>
        <time>2013-02-03T09:04:12Z</time>
      </trkpt>
      <trkpt lat="43.8722" lon="7.32294">
        <ele>751.89</ele>
        <time>2013-02-03T09:04:29Z</time>
      </trkpt>
      <trkpt lat="43.87231" lon="7.3229">
        <ele>753.81</ele>
        <time>2013-02-03T09:04:40Z</time>
      </trkpt>
      <trkpt lat="43.87235" lon="7.32292">
        <ele>755.25</ele>
        <time>2013-02-03T09:04:44Z</time>
      </trkpt>
      <trkpt lat="43.8725" lon="7.32291">
        <ele>757.18</ele>
        <time>2013-02-03T09:04:59Z</time>
      </trkpt>
      <trkpt lat="43.87255" lon="7.32288">
        <ele>758.14</ele>
        <time>2013-02-03T09:05:05Z</time>
      </trkpt>
      <trkpt lat="43.8727" lon="7.32287">
        <ele>760.54</ele>
        <time>2013-02-03T09:05:21Z</time>
      </trkpt>
      <trkpt lat="43.87275" lon="7.32288">
        <ele>761.02</ele>
        <time>2013-02-03T09:05:26Z</time>
      </trkpt>
      <trkpt lat="43.87278" lon="7.32287">
        <ele>761.5</ele>
        <time>2013-02-03T09:05:29Z</time>
      </trkpt>
      <trkpt lat="43.87287" lon="7.32288">
        <ele>762.46</ele>
        <time>2013-02-03T09:05:42Z</time>
      </trkpt>
      <trkpt lat="43.87297" lon="7.32288">
        <ele>764.39</ele>
        <time>2013-02-03T09:05:54Z</time>
      </trkpt>
      <trkpt lat="43.873" lon="7.32289">
        <ele>764.87</ele>
        <time>2013-02-03T09:05:59Z</time>
      </trkpt>
      <trkpt lat="43.87302" lon="7.3229">
        <ele>765.35</ele>
        <time>2013-02-03T09:06:01Z</time>
      </trkpt>
      <trkpt lat="43.87315" lon="7.32293">
        <ele>767.27</ele>
        <time>2013-02-03T09:06:16Z</time>
      </trkpt>
      <trkpt lat="43.87328" lon="7.32301">
        <ele>769.19</ele>
        <time>2013-02-03T09:06:32Z</time>
      </trkpt>
      <trkpt lat="43.8733" lon="7.32301">
        <ele>769.67</ele>
        <time>2013-02-03T09:06:33Z</time>
      </trkpt>
      <trkpt lat="43.87345" lon="7.32313">
        <ele>772.08</ele>
        <time>2013-02-03T09:06:49Z</time>
      </trkpt>
      <trkpt lat="43.87358" lon="7.32332">
        <ele>773.04</ele>
        <time>2013-02-03T09:07:04Z</time>
      </trkpt>
      <trkpt lat="43.87367" lon="7.3234">
        <ele>775.44</ele>
        <time>2013-02-03T09:07:19Z</time>
      </trkpt>
      <trkpt lat="43.87373" lon="7.32345">
        <ele>778.32</ele>
        <time>2013-02-03T09:07:32Z</time>
      </trkpt>
      <trkpt lat="43.8738" lon="7.32354">
        <ele>781.21</ele>
        <time>2013-02-03T09:07:46Z</time>
      </trkpt>
      <trkpt lat="43.87385" lon="7.32347">
        <ele>783.61</ele>
        <time>2013-02-03T09:07:57Z</time>
      </trkpt>
      <trkpt lat="43.8739" lon="7.32347">
        <ele>785.53</ele>
        <time>2013-02-03T09:08:10Z</time>
      </trkpt>
      <trkpt lat="43.87394" lon="7.32347">
        <ele>787.94</ele>
        <time>2013-02-03T09:08:21Z</time>
      </trkpt>
      <trkpt lat="43.87396" lon="7.32349">
        <ele>787.94</ele>
        <time>2013-02-03T09:08:24Z</time>
      </trkpt>
      <trkpt lat="43.87408" lon="7.32352">
        <ele>789.38</ele>
        <time>2013-02-03T09:08:37Z</time>
      </trkpt>
      <trkpt lat="43.87417" lon="7.32349">
        <ele>791.3</ele>
        <time>2013-02-03T09:08:50Z</time>
      </trkpt>
      <trkpt lat="43.87422" lon="7.32353">
        <ele>792.74</ele>
        <time>2013-02-03T09:09:00Z</time>
      </trkpt>
      <trkpt lat="43.87424" lon="7.32354">
        <ele>793.22</ele>
        <time>2013-02-03T09:09:02Z</time>
      </trkpt>
      <trkpt lat="43.87434" lon="7.32368">
        <ele>796.11</ele>
        <time>2013-02-03T09:09:18Z</time>
      </trkpt>
      <trkpt lat="43.87437" lon="7.32375">
        <ele>797.55</ele>
        <time>2013-02-03T09:09:23Z</time>
      </trkpt>
      <trkpt lat="43.87439" lon="7.32378">
        <ele>798.99</ele>
        <time>2013-02-03T09:09:37Z</time>
      </trkpt>
      <trkpt lat="43.87439" lon="7.32382">
        <ele>798.99</ele>
        <time>2013-02-03T09:09:50Z</time>
      </trkpt>
      <trkpt lat="43.87426" lon="7.32415">
        <ele>795.63</ele>
        <time>2013-02-03T09:10:00Z</time>
      </trkpt>
      <trkpt lat="43.87406" lon="7.32441">
        <ele>792.74</ele>
        <time>2013-02-03T09:10:07Z</time>
      </trkpt>
      <trkpt lat="43.87379" lon="7.32468">
        <ele>791.3</ele>
        <time>2013-02-03T09:10:18Z</time>
      </trkpt>
      <trkpt lat="43.87364" lon="7.3251">
        <ele>791.3</ele>
        <time>2013-02-03T09:10:29Z</time>
      </trkpt>
      <trkpt lat="43.87347" lon="7.32556">
        <ele>791.78</ele>
        <time>2013-02-03T09:10:41Z</time>
      </trkpt>
      <trkpt lat="43.87333" lon="7.32608">
        <ele>791.78</ele>
        <time>2013-02-03T09:10:52Z</time>
      </trkpt>
      <trkpt lat="43.87311" lon="7.3265">
        <ele>792.26</ele>
        <time>2013-02-03T09:11:03Z</time>
      </trkpt>
      <trkpt lat="43.87305" lon="7.32696">
        <ele>791.78</ele>
        <time>2013-02-03T09:11:14Z</time>
      </trkpt>
      <trkpt lat="43.87349" lon="7.32714">
        <ele>792.26</ele>
        <time>2013-02-03T09:11:27Z</time>
      </trkpt>
      <trkpt lat="43.87364" lon="7.32713">
        <ele>791.3</ele>
        <time>2013-02-03T09:11:32Z</time>
      </trkpt>
      <trkpt lat="43.87381" lon="7.32719">
        <ele>788.42</ele>
        <time>2013-02-03T09:11:38Z</time>
      </trkpt>
      <trkpt lat="43.87408" lon="7.32737">
        <ele>786.5</ele>
        <time>2013-02-03T09:11:47Z</time>
      </trkpt>
      <trkpt lat="43.87416" lon="7.32726">
        <ele>786.5</ele>
        <time>2013-02-03T09:11:51Z</time>
      </trkpt>
      <trkpt lat="43.8744" lon="7.32732">
        <ele>786.02</ele>
        <time>2013-02-03T09:12:00Z</time>
      </trkpt>
      <trkpt lat="43.87447" lon="7.32737">
        <ele>785.53</ele>
        <time>2013-02-03T09:12:02Z</time>
      </trkpt>
      <trkpt lat="43.87457" lon="7.32745">
        <ele>785.05</ele>
        <time>2013-02-03T09:12:05Z</time>
      </trkpt>
      <trkpt lat="43.87474" lon="7.32741">
        <ele>784.09</ele>
        <time>2013-02-03T09:12:11Z</time>
      </trkpt>
      <trkpt lat="43.87487" lon="7.32753">
        <ele>783.61</ele>
        <time>2013-02-03T09:12:17Z</time>
      </trkpt>
      <trkpt lat="43.87496" lon="7.32766">
        <ele>780.25</ele>
        <time>2013-02-03T09:12:26Z</time>
      </trkpt>
      <trkpt lat="43.875" lon="7.32766">
        <ele>780.73</ele>
        <time>2013-02-03T09:12:30Z</time>
      </trkpt>
      <trkpt lat="43.8751" lon="7.32767">
        <ele>779.77</ele>
        <time>2013-02-03T09:12:35Z</time>
      </trkpt>
      <trkpt lat="43.87518" lon="7.32769">
        <ele>777.36</ele>
        <time>2013-02-03T09:12:42Z</time>
      </trkpt>
      <trkpt lat="43.87522" lon="7.32779">
        <ele>777.36</ele>
        <time>2013-02-03T09:12:53Z</time>
      </trkpt>
      <trkpt lat="43.87525" lon="7.32798">
        <ele>776.88</ele>
        <time>2013-02-03T09:13:05Z</time>
      </trkpt>
      <trkpt lat="43.87526" lon="7.32811">
        <ele>777.84</ele>
        <time>2013-02-03T09:13:09Z</time>
      </trkpt>
      <trkpt lat="43.87523" lon="7.32852">
        <ele>778.32</ele>
        <time>2013-02-03T09:13:20Z</time>
      </trkpt>
      <trkpt lat="43.87527" lon="7.32885">
        <ele>781.69</ele>
        <time>2013-02-03T09:13:32Z</time>
      </trkpt>
      <trkpt lat="43.87526" lon="7.3289">
        <ele>783.13</ele>
        <time>2013-02-03T09:13:41Z</time>
      </trkpt>
      <trkpt lat="43.87526" lon="7.32896">
        <ele>781.69</ele>
        <time>2013-02-03T09:13:45Z</time>
      </trkpt>
      <trkpt lat="43.87533" lon="7.32905">
        <ele>781.69</ele>
        <time>2013-02-03T09:13:54Z</time>
      </trkpt>
      <trkpt lat="43.87534" lon="7.3293">
        <ele>782.17</ele>
        <time>2013-02-03T09:14:01Z</time>
      </trkpt>
      <trkpt lat="43.8754" lon="7.3295">
        <ele>784.09</ele>
        <time>2013-02-03T09:14:08Z</time>
      </trkpt>
      <trkpt lat="43.87543" lon="7.32975">
        <ele>782.65</ele>
        <time>2013-02-03T09:14:13Z</time>
      </trkpt>
      <trkpt lat="43.87545" lon="7.3298">
        <ele>782.65</ele>
        <time>2013-02-03T09:14:15Z</time>
      </trkpt>
      <trkpt lat="43.87554" lon="7.33009">
        <ele>786.02</ele>
        <time>2013-02-03T09:14:27Z</time>
      </trkpt>
      <trkpt lat="43.87564" lon="7.3303">
        <ele>788.42</ele>
        <time>2013-02-03T09:14:40Z</time>
      </trkpt>
      <trkpt lat="43.87568" lon="7.33063">
        <ele>792.26</ele>
        <time>2013-02-03T09:14:54Z</time>
      </trkpt>
      <trkpt lat="43.87573" lon="7.33078">
        <ele>793.22</ele>
        <time>2013-02-03T09:15:03Z</time>
      </trkpt>
      <trkpt lat="43.87578" lon="7.3308">
        <ele>793.71</ele>
        <time>2013-02-03T09:15:09Z</time>
      </trkpt>
      <trkpt lat="43.87588" lon="7.33085">
        <ele>794.67</ele>
        <time>2013-02-03T09:15:22Z</time>
      </trkpt>
      <trkpt lat="43.87593" lon="7.33082">
        <ele>795.15</ele>
        <time>2013-02-03T09:15:28Z</time>
      </trkpt>
      <trkpt lat="43.87613" lon="7.3308">
        <ele>795.63</ele>
        <time>2013-02-03T09:15:41Z</time>
      </trkpt>
      <trkpt lat="43.8763" lon="7.33089">
        <ele>797.07</ele>
        <time>2013-02-03T09:15:51Z</time>
      </trkpt>
      <trkpt lat="43.87641" lon="7.33081">
        <ele>798.51</ele>
        <time>2013-02-03T09:15:59Z</time>
      </trkpt>
      <trkpt lat="43.87651" lon="7.33064">
        <ele>799.95</ele>
        <time>2013-02-03T09:16:09Z</time>
      </trkpt>
      <trkpt lat="43.87652" lon="7.3306">
        <ele>799.95</ele>
        <time>2013-02-03T09:16:11Z</time>
      </trkpt>
      <trkpt lat="43.87655" lon="7.33054">
        <ele>800.44</ele>
        <time>2013-02-03T09:16:22Z</time>
      </trkpt>
      <trkpt lat="43.8766" lon="7.33048">
        <ele>799.95</ele>
        <time>2013-02-03T09:16:31Z</time>
      </trkpt>
      <trkpt lat="43.87661" lon="7.33042">
        <ele>800.92</ele>
        <time>2013-02-03T09:16:40Z</time>
      </trkpt>
      <trkpt lat="43.87662" lon="7.33042">
        <ele>801.4</ele>
        <time>2013-02-03T09:16:44Z</time>
      </trkpt>
      <trkpt lat="43.8769" lon="7.33033">
        <ele>801.88</ele>
        <time>2013-02-03T09:16:55Z</time>
      </trkpt>
      <trkpt lat="43.87695" lon="7.33029">
        <ele>802.84</ele>
        <time>2013-02-03T09:16:58Z</time>
      </trkpt>
      <trkpt lat="43.87704" lon="7.33027">
        <ele>802.84</ele>
        <time>2013-02-03T09:17:02Z</time>
      </trkpt>
      <trkpt lat="43.87718" lon="7.33022">
        <ele>803.32</ele>
        <time>2013-02-03T09:17:09Z</time>
      </trkpt>
      <trkpt lat="43.87724" lon="7.33023">
        <ele>803.8</ele>
        <time>2013-02-03T09:17:12Z</time>
      </trkpt>
      <trkpt lat="43.87739" lon="7.33021">
        <ele>804.76</ele>
        <time>2013-02-03T09:17:19Z</time>
      </trkpt>
      <trkpt lat="43.87758" lon="7.33011">
        <ele>808.61</ele>
        <time>2013-02-03T09:17:34Z</time>
      </trkpt>
      <trkpt lat="43.87765" lon="7.3301">
        <ele>809.57</ele>
        <time>2013-02-03T09:17:43Z</time>
      </trkpt>
      <trkpt lat="43.87772" lon="7.3301">
        <ele>809.09</ele>
        <time>2013-02-03T09:17:47Z</time>
      </trkpt>
      <trkpt lat="43.87778" lon="7.33007">
        <ele>808.13</ele>
        <time>2013-02-03T09:17:51Z</time>
      </trkpt>
      <trkpt lat="43.87785" lon="7.33005">
        <ele>808.13</ele>
        <time>2013-02-03T09:17:59Z</time>
      </trkpt>
      <trkpt lat="43.87796" lon="7.32991">
        <ele>809.09</ele>
        <time>2013-02-03T09:18:13Z</time>
      </trkpt>
      <trkpt lat="43.87808" lon="7.32987">
        <ele>809.09</ele>
        <time>2013-02-03T09:18:25Z</time>
      </trkpt>
      <trkpt lat="43.87819" lon="7.32989">
        <ele>809.57</ele>
        <time>2013-02-03T09:18:37Z</time>
      </trkpt>
      <trkpt lat="43.8782" lon="7.32989">
        <ele>809.09</ele>
        <time>2013-02-03T09:18:38Z</time>
      </trkpt>
      <trkpt lat="43.87843" lon="7.32995">
        <ele>808.13</ele>
        <time>2013-02-03T09:18:48Z</time>
      </trkpt>
      <trkpt lat="43.87853" lon="7.32993">
        <ele>809.09</ele>
        <time>2013-02-03T09:18:54Z</time>
      </trkpt>
      <trkpt lat="43.87865" lon="7.33016">
        <ele>811.97</ele>
        <time>2013-02-03T09:19:05Z</time>
      </trkpt>
      <trkpt lat="43.87883" lon="7.33025">
        <ele>809.09</ele>
        <time>2013-02-03T09:19:11Z</time>
      </trkpt>
      <trkpt lat="43.87911" lon="7.33045">
        <ele>805.24</ele>
        <time>2013-02-03T09:19:21Z</time>
      </trkpt>
      <trkpt lat="43.87928" lon="7.33071">
        <ele>803.8</ele>
        <time>2013-02-03T09:19:31Z</time>
      </trkpt>
      <trkpt lat="43.87944" lon="7.33105">
        <ele>806.68</ele>
        <time>2013-02-03T09:19:42Z</time>
      </trkpt>
      <trkpt lat="43.87976" lon="7.33134">
        <ele>805.72</ele>
        <time>2013-02-03T09:19:55Z</time>
      </trkpt>
      <trkpt lat="43.87998" lon="7.33141">
        <ele>802.84</ele>
        <time>2013-02-03T09:20:04Z</time>
      </trkpt>
      <trkpt lat="43.88001" lon="7.33142">
        <ele>802.36</ele>
        <time>2013-02-03T09:20:05Z</time>
      </trkpt>
      <trkpt lat="43.88012" lon="7.33146">
        <ele>798.99</ele>
        <time>2013-02-03T09:20:09Z</time>
      </trkpt>
      <trkpt lat="43.88021" lon="7.33152">
        <ele>797.07</ele>
        <time>2013-02-03T09:20:11Z</time>
      </trkpt>
      <trkpt lat="43.88054" lon="7.33177">
        <ele>793.22</ele>
        <time>2013-02-03T09:20:22Z</time>
      </trkpt>
      <trkpt lat="43.88078" lon="7.33179">
        <ele>795.63</ele>
        <time>2013-02-03T09:20:33Z</time>
      </trkpt>
      <trkpt lat="43.88107" lon="7.33196">
        <ele>798.99</ele>
        <time>2013-02-03T09:20:46Z</time>
      </trkpt>
      <trkpt lat="43.88133" lon="7.33223">
        <ele>798.51</ele>
        <time>2013-02-03T09:20:58Z</time>
      </trkpt>
      <trkpt lat="43.88138" lon="7.33227">
        <ele>798.99</ele>
        <time>2013-02-03T09:21:11Z</time>
      </trkpt>
      <trkpt lat="43.88141" lon="7.33226">
        <ele>799.95</ele>
        <time>2013-02-03T09:21:30Z</time>
      </trkpt>
      <trkpt lat="43.88143" lon="7.33227">
        <ele>799.47</ele>
        <time>2013-02-03T09:21:51Z</time>
      </trkpt>
      <trkpt lat="43.88143" lon="7.3323">
        <ele>798.51</ele>
        <time>2013-02-03T09:21:53Z</time>
      </trkpt>
      <trkpt lat="43.88135" lon="7.33254">
        <ele>799.47</ele>
        <time>2013-02-03T09:22:03Z</time>
      </trkpt>
      <trkpt lat="43.88139" lon="7.33283">
        <ele>803.8</ele>
        <time>2013-02-03T09:22:15Z</time>
      </trkpt>
      <trkpt lat="43.88132" lon="7.33309">
        <ele>802.84</ele>
        <time>2013-02-03T09:22:22Z</time>
      </trkpt>
      <trkpt lat="43.88123" lon="7.33325">
        <ele>801.88</ele>
        <time>2013-02-03T09:22:25Z</time>
      </trkpt>
      <trkpt lat="43.88092" lon="7.33382">
        <ele>796.11</ele>
        <time>2013-02-03T09:22:35Z</time>
      </trkpt>
      <trkpt lat="43.88068" lon="7.33429">
        <ele>797.55</ele>
        <time>2013-02-03T09:22:48Z</time>
      </trkpt>
      <trkpt lat="43.88048" lon="7.33471">
        <ele>798.51</ele>
        <time>2013-02-03T09:23:00Z</time>
      </trkpt>
      <trkpt lat="43.88032" lon="7.33513">
        <ele>800.92</ele>
        <time>2013-02-03T09:23:13Z</time>
      </trkpt>
      <trkpt lat="43.88007" lon="7.33549">
        <ele>799.95</ele>
        <time>2013-02-03T09:23:25Z</time>
      </trkpt>
      <trkpt lat="43.87974" lon="7.33579">
        <ele>798.03</ele>
        <time>2013-02-03T09:23:37Z</time>
      </trkpt>
      <trkpt lat="43.87967" lon="7.33611">
        <ele>798.03</ele>
        <time>2013-02-03T09:23:48Z</time>
      </trkpt>
      <trkpt lat="43.87967" lon="7.33627">
        <ele>798.99</ele>
        <time>2013-02-03T09:23:53Z</time>
      </trkpt>
      <trkpt lat="43.87976" lon="7.33626">
        <ele>799.47</ele>
        <time>2013-02-03T09:23:59Z</time>
      </trkpt>
      <trkpt lat="43.88013" lon="7.33585">
        <ele>802.36</ele>
        <time>2013-02-03T09:24:16Z</time>
      </trkpt>
      <trkpt lat="43.88035" lon="7.33562">
        <ele>803.32</ele>
        <time>2013-02-03T09:24:27Z</time>
      </trkpt>
      <trkpt lat="43.88063" lon="7.33537">
        <ele>806.68</ele>
        <time>2013-02-03T09:24:41Z</time>
      </trkpt>
      <trkpt lat="43.88088" lon="7.33505">
        <ele>811.49</ele>
        <time>2013-02-03T09:24:57Z</time>
      </trkpt>
      <trkpt lat="43.88113" lon="7.3347">
        <ele>815.34</ele>
        <time>2013-02-03T09:25:13Z</time>
      </trkpt>
      <trkpt lat="43.88134" lon="7.33428">
        <ele>817.74</ele>
        <time>2013-02-03T09:25:29Z</time>
      </trkpt>
      <trkpt lat="43.88147" lon="7.33395">
        <ele>821.1</ele>
        <time>2013-02-03T09:25:44Z</time>
      </trkpt>
      <trkpt lat="43.88165" lon="7.33371">
        <ele>824.47</ele>
        <time>2013-02-03T09:25:59Z</time>
      </trkpt>
      <trkpt lat="43.88179" lon="7.33348">
        <ele>828.31</ele>
        <time>2013-02-03T09:26:13Z</time>
      </trkpt>
      <trkpt lat="43.88187" lon="7.33324">
        <ele>831.68</ele>
        <time>2013-02-03T09:26:26Z</time>
      </trkpt>
      <trkpt lat="43.88201" lon="7.3331">
        <ele>834.56</ele>
        <time>2013-02-03T09:26:39Z</time>
      </trkpt>
      <trkpt lat="43.88221" lon="7.33304">
        <ele>837.45</ele>
        <time>2013-02-03T09:26:53Z</time>
      </trkpt>
      <trkpt lat="43.88244" lon="7.333">
        <ele>841.29</ele>
        <time>2013-02-03T09:27:09Z</time>
      </trkpt>
      <trkpt lat="43.88266" lon="7.33302">
        <ele>844.66</ele>
        <time>2013-02-03T09:27:24Z</time>
      </trkpt>
      <trkpt lat="43.88272" lon="7.33302">
        <ele>845.62</ele>
        <time>2013-02-03T09:27:28Z</time>
      </trkpt>
      <trkpt lat="43.88277" lon="7.33301">
        <ele>846.58</ele>
        <time>2013-02-03T09:27:32Z</time>
      </trkpt>
      <trkpt lat="43.88302" lon="7.33289">
        <ele>849.46</ele>
        <time>2013-02-03T09:27:50Z</time>
      </trkpt>
      <trkpt lat="43.88326" lon="7.33278">
        <ele>853.31</ele>
        <time>2013-02-03T09:28:07Z</time>
      </trkpt>
      <trkpt lat="43.88354" lon="7.3327">
        <ele>856.19</ele>
        <time>2013-02-03T09:28:25Z</time>
      </trkpt>
      <trkpt lat="43.88356" lon="7.33269">
        <ele>856.19</ele>
        <time>2013-02-03T09:28:26Z</time>
      </trkpt>
      <trkpt lat="43.88349" lon="7.33261">
        <ele>857.15</ele>
        <time>2013-02-03T09:28:34Z</time>
      </trkpt>
      <trkpt lat="43.88295" lon="7.33252">
        <ele>859.08</ele>
        <time>2013-02-03T09:28:53Z</time>
      </trkpt>
      <trkpt lat="43.88283" lon="7.33216">
        <ele>863.4</ele>
        <time>2013-02-03T09:29:06Z</time>
      </trkpt>
      <trkpt lat="43.88291" lon="7.33179">
        <ele>866.77</ele>
        <time>2013-02-03T09:29:22Z</time>
      </trkpt>
      <trkpt lat="43.88301" lon="7.33135">
        <ele>870.13</ele>
        <time>2013-02-03T09:29:41Z</time>
      </trkpt>
      <trkpt lat="43.88304" lon="7.33124">
        <ele>871.09</ele>
        <time>2013-02-03T09:29:46Z</time>
      </trkpt>
      <trkpt lat="43.88311" lon="7.33128">
        <ele>871.57</ele>
        <time>2013-02-03T09:29:52Z</time>
      </trkpt>
      <trkpt lat="43.88309" lon="7.33157">
        <ele>874.94</ele>
        <time>2013-02-03T09:30:06Z</time>
      </trkpt>
      <trkpt lat="43.88312" lon="7.33166">
        <ele>875.9</ele>
        <time>2013-02-03T09:30:11Z</time>
      </trkpt>
      <trkpt lat="43.88334" lon="7.3318">
        <ele>880.22</ele>
        <time>2013-02-03T09:30:28Z</time>
      </trkpt>
      <trkpt lat="43.88349" lon="7.33173">
        <ele>882.15</ele>
        <time>2013-02-03T09:30:39Z</time>
      </trkpt>
      <trkpt lat="43.88362" lon="7.33163">
        <ele>884.55</ele>
        <time>2013-02-03T09:30:49Z</time>
      </trkpt>
      <trkpt lat="43.88381" lon="7.33155">
        <ele>887.91</ele>
        <time>2013-02-03T09:31:04Z</time>
      </trkpt>
      <trkpt lat="43.88396" lon="7.33155">
        <ele>889.36</ele>
        <time>2013-02-03T09:31:14Z</time>
      </trkpt>
      <trkpt lat="43.88393" lon="7.33139">
        <ele>890.8</ele>
        <time>2013-02-03T09:31:25Z</time>
      </trkpt>
      <trkpt lat="43.88376" lon="7.33123">
        <ele>893.2</ele>
        <time>2013-02-03T09:31:41Z</time>
      </trkpt>
      <trkpt lat="43.88372" lon="7.33092">
        <ele>897.05</ele>
        <time>2013-02-03T09:31:56Z</time>
      </trkpt>
      <trkpt lat="43.88378" lon="7.3308">
        <ele>898.01</ele>
        <time>2013-02-03T09:32:04Z</time>
      </trkpt>
      <trkpt lat="43.88386" lon="7.33095">
        <ele>898.97</ele>
        <time>2013-02-03T09:32:13Z</time>
      </trkpt>
      <trkpt lat="43.88391" lon="7.33112">
        <ele>900.41</ele>
        <time>2013-02-03T09:32:21Z</time>
      </trkpt>
      <trkpt lat="43.88399" lon="7.33102">
        <ele>901.85</ele>
        <time>2013-02-03T09:32:29Z</time>
      </trkpt>
      <trkpt lat="43.88399" lon="7.33064">
        <ele>904.74</ele>
        <time>2013-02-03T09:32:48Z</time>
      </trkpt>
      <trkpt lat="43.88397" lon="7.33032">
        <ele>907.62</ele>
        <time>2013-02-03T09:33:04Z</time>
      </trkpt>
      <trkpt lat="43.88382" lon="7.33024">
        <ele>910.99</ele>
        <time>2013-02-03T09:33:15Z</time>
      </trkpt>
      <trkpt lat="43.88376" lon="7.33024">
        <ele>911.95</ele>
        <time>2013-02-03T09:33:19Z</time>
      </trkpt>
      <trkpt lat="43.88369" lon="7.33023">
        <ele>912.43</ele>
        <time>2013-02-03T09:33:24Z</time>
      </trkpt>
      <trkpt lat="43.88371" lon="7.3301">
        <ele>913.87</ele>
        <time>2013-02-03T09:33:33Z</time>
      </trkpt>
      <trkpt lat="43.88379" lon="7.3301">
        <ele>917.24</ele>
        <time>2013-02-03T09:33:47Z</time>
      </trkpt>
      <trkpt lat="43.88377" lon="7.33009">
        <ele>915.31</ele>
        <time>2013-02-03T09:34:11Z</time>
      </trkpt>
      <trkpt lat="43.88386" lon="7.33006">
        <ele>917.72</ele>
        <time>2013-02-03T09:34:29Z</time>
      </trkpt>
      <trkpt lat="43.88404" lon="7.32995">
        <ele>920.6</ele>
        <time>2013-02-03T09:34:43Z</time>
      </trkpt>
      <trkpt lat="43.88426" lon="7.3298">
        <ele>924.93</ele>
        <time>2013-02-03T09:35:02Z</time>
      </trkpt>
      <trkpt lat="43.8843" lon="7.32976">
        <ele>925.41</ele>
        <time>2013-02-03T09:35:06Z</time>
      </trkpt>
      <trkpt lat="43.88441" lon="7.32956">
        <ele>928.77</ele>
        <time>2013-02-03T09:35:23Z</time>
      </trkpt>
      <trkpt lat="43.88448" lon="7.32947">
        <ele>930.21</ele>
        <time>2013-02-03T09:35:32Z</time>
      </trkpt>
      <trkpt lat="43.88452" lon="7.32943">
        <ele>931.17</ele>
        <time>2013-02-03T09:35:36Z</time>
      </trkpt>
      <trkpt lat="43.88464" lon="7.32933">
        <ele>934.54</ele>
        <time>2013-02-03T09:35:50Z</time>
      </trkpt>
      <trkpt lat="43.88481" lon="7.32933">
        <ele>936.46</ele>
        <time>2013-02-03T09:36:03Z</time>
      </trkpt>
      <trkpt lat="43.88494" lon="7.32958">
        <ele>939.35</ele>
        <time>2013-02-03T09:36:19Z</time>
      </trkpt>
      <trkpt lat="43.88508" lon="7.32982">
        <ele>941.27</ele>
        <time>2013-02-03T09:36:37Z</time>
      </trkpt>
      <trkpt lat="43.88527" lon="7.33002">
        <ele>944.63</ele>
        <time>2013-02-03T09:36:55Z</time>
      </trkpt>
      <trkpt lat="43.88547" lon="7.33007">
        <ele>946.56</ele>
        <time>2013-02-03T09:37:09Z</time>
      </trkpt>
      <trkpt lat="43.88559" lon="7.33035">
        <ele>948.96</ele>
        <time>2013-02-03T09:37:24Z</time>
      </trkpt>
      <trkpt lat="43.88586" lon="7.33047">
        <ele>951.36</ele>
        <time>2013-02-03T09:37:41Z</time>
      </trkpt>
      <trkpt lat="43.88609" lon="7.33052">
        <ele>953.77</ele>
        <time>2013-02-03T09:37:56Z</time>
      </trkpt>
      <trkpt lat="43.88637" lon="7.33057">
        <ele>955.69</ele>
        <time>2013-02-03T09:38:12Z</time>
      </trkpt>
      <trkpt lat="43.88646" lon="7.33053">
        <ele>956.65</ele>
        <time>2013-02-03T09:38:18Z</time>
      </trkpt>
      <trkpt lat="43.88639" lon="7.33047">
        <ele>957.61</ele>
        <time>2013-02-03T09:38:25Z</time>
      </trkpt>
      <trkpt lat="43.8861" lon="7.33037">
        <ele>960.01</ele>
        <time>2013-02-03T09:38:43Z</time>
      </trkpt>
      <trkpt lat="43.88589" lon="7.3301">
        <ele>960.98</ele>
        <time>2013-02-03T09:38:59Z</time>
      </trkpt>
      <trkpt lat="43.88574" lon="7.3298">
        <ele>963.38</ele>
        <time>2013-02-03T09:39:15Z</time>
      </trkpt>
      <trkpt lat="43.88558" lon="7.32946">
        <ele>964.82</ele>
        <time>2013-02-03T09:39:32Z</time>
      </trkpt>
      <trkpt lat="43.8856" lon="7.32936">
        <ele>965.3</ele>
        <time>2013-02-03T09:39:37Z</time>
      </trkpt>
      <trkpt lat="43.88567" lon="7.32937">
        <ele>965.78</ele>
        <time>2013-02-03T09:39:42Z</time>
      </trkpt>
      <trkpt lat="43.88582" lon="7.32963">
        <ele>967.22</ele>
        <time>2013-02-03T09:39:59Z</time>
      </trkpt>
      <trkpt lat="43.88582" lon="7.32963">
        <ele>968.18</ele>
        <time>2013-02-03T09:40:19Z</time>
      </trkpt>
      <trkpt lat="43.88582" lon="7.32964">
        <ele>969.63</ele>
        <time>2013-02-03T09:40:41Z</time>
      </trkpt>
      <trkpt lat="43.88582" lon="7.32964">
        <ele>967.7</ele>
        <time>2013-02-03T09:40:57Z</time>
      </trkpt>
      <trkpt lat="43.88581" lon="7.32961">
        <ele>968.18</ele>
        <time>2013-02-03T09:41:24Z</time>
      </trkpt>
      <trkpt lat="43.88581" lon="7.32962">
        <ele>967.7</ele>
        <time>2013-02-03T09:41:46Z</time>
      </trkpt>
      <trkpt lat="43.88581" lon="7.32961">
        <ele>967.7</ele>
        <time>2013-02-03T09:42:04Z</time>
      </trkpt>
      <trkpt lat="43.88582" lon="7.32964">
        <ele>968.18</ele>
        <time>2013-02-03T09:42:32Z</time>
      </trkpt>
      <trkpt lat="43.88582" lon="7.32963">
        <ele>965.78</ele>
        <time>2013-02-03T09:43:04Z</time>
      </trkpt>
      <trkpt lat="43.88581" lon="7.32961">
        <ele>966.26</ele>
        <time>2013-02-03T09:43:29Z</time>
      </trkpt>
      <trkpt lat="43.8858" lon="7.32959">
        <ele>967.7</ele>
        <time>2013-02-03T09:43:54Z</time>
      </trkpt>
      <trkpt lat="43.8858" lon="7.32959">
        <ele>966.74</ele>
        <time>2013-02-03T09:44:26Z</time>
      </trkpt>
      <trkpt lat="43.88582" lon="7.32962">
        <ele>967.22</ele>
        <time>2013-02-03T09:44:57Z</time>
      </trkpt>
      <trkpt lat="43.88581" lon="7.32961">
        <ele>968.18</ele>
        <time>2013-02-03T09:45:32Z</time>
      </trkpt>
      <trkpt lat="43.88604" lon="7.32979">
        <ele>969.15</ele>
        <time>2013-02-03T09:45:47Z</time>
      </trkpt>
      <trkpt lat="43.8864" lon="7.32993">
        <ele>971.55</ele>
        <time>2013-02-03T09:46:04Z</time>
      </trkpt>
      <trkpt lat="43.88681" lon="7.33">
        <ele>973.95</ele>
        <time>2013-02-03T09:46:23Z</time>
      </trkpt>
      <trkpt lat="43.88722" lon="7.33003">
        <ele>976.36</ele>
        <time>2013-02-03T09:46:41Z</time>
      </trkpt>
      <trkpt lat="43.88757" lon="7.33005">
        <ele>978.76</ele>
        <time>2013-02-03T09:46:58Z</time>
      </trkpt>
      <trkpt lat="43.88792" lon="7.33007">
        <ele>980.68</ele>
        <time>2013-02-03T09:47:14Z</time>
      </trkpt>
      <trkpt lat="43.88832" lon="7.33014">
        <ele>982.12</ele>
        <time>2013-02-03T09:47:32Z</time>
      </trkpt>
      <trkpt lat="43.88866" lon="7.33035">
        <ele>983.57</ele>
        <time>2013-02-03T09:47:49Z</time>
      </trkpt>
      <trkpt lat="43.88896" lon="7.33067">
        <ele>985.97</ele>
        <time>2013-02-03T09:48:06Z</time>
      </trkpt>
      <trkpt lat="43.88915" lon="7.331">
        <ele>986.45</ele>
        <time>2013-02-03T09:48:19Z</time>
      </trkpt>
      <trkpt lat="43.88942" lon="7.3313">
        <ele>988.85</ele>
        <time>2013-02-03T09:48:34Z</time>
      </trkpt>
      <trkpt lat="43.88983" lon="7.33159">
        <ele>992.22</ele>
        <time>2013-02-03T09:48:54Z</time>
      </trkpt>
      <trkpt lat="43.89023" lon="7.33183">
        <ele>994.14</ele>
        <time>2013-02-03T09:49:12Z</time>
      </trkpt>
      <trkpt lat="43.89059" lon="7.33219">
        <ele>996.06</ele>
        <time>2013-02-03T09:49:30Z</time>
      </trkpt>
      <trkpt lat="43.89086" lon="7.33276">
        <ele>998.47</ele>
        <time>2013-02-03T09:49:50Z</time>
      </trkpt>
      <trkpt lat="43.8911" lon="7.33334">
        <ele>999.91</ele>
        <time>2013-02-03T09:50:09Z</time>
      </trkpt>
      <trkpt lat="43.89136" lon="7.33397">
        <ele>997.51</ele>
        <time>2013-02-03T09:50:26Z</time>
      </trkpt>
      <trkpt lat="43.89161" lon="7.33454">
        <ele>997.02</ele>
        <time>2013-02-03T09:50:40Z</time>
      </trkpt>
      <trkpt lat="43.89195" lon="7.33504">
        <ele>996.06</ele>
        <time>2013-02-03T09:50:55Z</time>
      </trkpt>
      <trkpt lat="43.89245" lon="7.33527">
        <ele>996.06</ele>
        <time>2013-02-03T09:51:10Z</time>
      </trkpt>
      <trkpt lat="43.89258" lon="7.33595">
        <ele>995.58</ele>
        <time>2013-02-03T09:51:23Z</time>
      </trkpt>
      <trkpt lat="43.89286" lon="7.33631">
        <ele>995.1</ele>
        <time>2013-02-03T09:51:34Z</time>
      </trkpt>
      <trkpt lat="43.89337" lon="7.33641">
        <ele>994.62</ele>
        <time>2013-02-03T09:51:49Z</time>
      </trkpt>
      <trkpt lat="43.89392" lon="7.33643">
        <ele>993.18</ele>
        <time>2013-02-03T09:52:04Z</time>
      </trkpt>
      <trkpt lat="43.89429" lon="7.33692">
        <ele>992.7</ele>
        <time>2013-02-03T09:52:18Z</time>
      </trkpt>
      <trkpt lat="43.89467" lon="7.33732">
        <ele>991.74</ele>
        <time>2013-02-03T09:52:33Z</time>
      </trkpt>
      <trkpt lat="43.8949" lon="7.33753">
        <ele>990.78</ele>
        <time>2013-02-03T09:52:44Z</time>
      </trkpt>
      <trkpt lat="43.89517" lon="7.33785">
        <ele>989.81</ele>
        <time>2013-02-03T09:52:58Z</time>
      </trkpt>
      <trkpt lat="43.89513" lon="7.33801">
        <ele>988.37</ele>
        <time>2013-02-03T09:53:05Z</time>
      </trkpt>
      <trkpt lat="43.89503" lon="7.3381">
        <ele>983.57</ele>
        <time>2013-02-03T09:53:15Z</time>
      </trkpt>
      <trkpt lat="43.89504" lon="7.33806">
        <ele>982.6</ele>
        <time>2013-02-03T09:53:27Z</time>
      </trkpt>
      <trkpt lat="43.89504" lon="7.33805">
        <ele>982.6</ele>
        <time>2013-02-03T09:53:28Z</time>
      </trkpt>
      <trkpt lat="43.89502" lon="7.33804">
        <ele>982.12</ele>
        <time>2013-02-03T09:53:30Z</time>
      </trkpt>
      <trkpt lat="43.89498" lon="7.33813">
        <ele>980.2</ele>
        <time>2013-02-03T09:53:39Z</time>
      </trkpt>
      <trkpt lat="43.89499" lon="7.33816">
        <ele>980.68</ele>
        <time>2013-02-03T09:53:41Z</time>
      </trkpt>
      <trkpt lat="43.89513" lon="7.33829">
        <ele>983.09</ele>
        <time>2013-02-03T09:53:49Z</time>
      </trkpt>
      <trkpt lat="43.89564" lon="7.33829">
        <ele>987.41</ele>
        <time>2013-02-03T09:54:05Z</time>
      </trkpt>
      <trkpt lat="43.89595" lon="7.33846">
        <ele>991.74</ele>
        <time>2013-02-03T09:54:18Z</time>
      </trkpt>
      <trkpt lat="43.89597" lon="7.33892">
        <ele>992.7</ele>
        <time>2013-02-03T09:54:32Z</time>
      </trkpt>
      <trkpt lat="43.896" lon="7.33932">
        <ele>994.62</ele>
        <time>2013-02-03T09:54:46Z</time>
      </trkpt>
      <trkpt lat="43.89601" lon="7.33944">
        <ele>995.1</ele>
        <time>2013-02-03T09:54:51Z</time>
      </trkpt>
      <trkpt lat="43.89603" lon="7.33949">
        <ele>994.14</ele>
        <time>2013-02-03T09:55:05Z</time>
      </trkpt>
      <trkpt lat="43.89603" lon="7.33946">
        <ele>992.22</ele>
        <time>2013-02-03T09:55:18Z</time>
      </trkpt>
      <trkpt lat="43.89607" lon="7.33953">
        <ele>993.66</ele>
        <time>2013-02-03T09:55:22Z</time>
      </trkpt>
      <trkpt lat="43.89623" lon="7.33991">
        <ele>995.58</ele>
        <time>2013-02-03T09:55:37Z</time>
      </trkpt>
      <trkpt lat="43.89655" lon="7.3399">
        <ele>998.47</ele>
        <time>2013-02-03T09:55:50Z</time>
      </trkpt>
      <trkpt lat="43.89684" lon="7.33952">
        <ele>1000.39</ele>
        <time>2013-02-03T09:56:03Z</time>
      </trkpt>
      <trkpt lat="43.89707" lon="7.33934">
        <ele>1000.87</ele>
        <time>2013-02-03T09:56:10Z</time>
      </trkpt>
      <trkpt lat="43.89732" lon="7.33955">
        <ele>999.91</ele>
        <time>2013-02-03T09:56:18Z</time>
      </trkpt>
      <trkpt lat="43.89731" lon="7.33961">
        <ele>999.91</ele>
        <time>2013-02-03T09:56:19Z</time>
      </trkpt>
      <trkpt lat="43.89735" lon="7.34016">
        <ele>999.43</ele>
        <time>2013-02-03T09:56:30Z</time>
      </trkpt>
      <trkpt lat="43.89744" lon="7.34042">
        <ele>998.95</ele>
        <time>2013-02-03T09:56:36Z</time>
      </trkpt>
      <trkpt lat="43.89766" lon="7.34058">
        <ele>998.95</ele>
        <time>2013-02-03T09:56:43Z</time>
      </trkpt>
      <trkpt lat="43.89787" lon="7.34035">
        <ele>999.43</ele>
        <time>2013-02-03T09:56:50Z</time>
      </trkpt>
      <trkpt lat="43.89806" lon="7.34021">
        <ele>1000.39</ele>
        <time>2013-02-03T09:56:56Z</time>
      </trkpt>
      <trkpt lat="43.89822" lon="7.34024">
        <ele>1001.35</ele>
        <time>2013-02-03T09:57:00Z</time>
      </trkpt>
      <trkpt lat="43.89829" lon="7.34037">
        <ele>1000.87</ele>
        <time>2013-02-03T09:57:03Z</time>
      </trkpt>
      <trkpt lat="43.89845" lon="7.34056">
        <ele>999.91</ele>
        <time>2013-02-03T09:57:07Z</time>
      </trkpt>
      <trkpt lat="43.89865" lon="7.34065">
        <ele>999.43</ele>
        <time>2013-02-03T09:57:12Z</time>
      </trkpt>
      <trkpt lat="43.89895" lon="7.34085">
        <ele>999.91</ele>
        <time>2013-02-03T09:57:20Z</time>
      </trkpt>
      <trkpt lat="43.89948" lon="7.34111">
        <ele>1001.83</ele>
        <time>2013-02-03T09:57:34Z</time>
      </trkpt>
      <trkpt lat="43.9" lon="7.34135">
        <ele>1007.6</ele>
        <time>2013-02-03T09:57:49Z</time>
      </trkpt>
      <trkpt lat="43.90045" lon="7.34159">
        <ele>1011.44</ele>
        <time>2013-02-03T09:58:06Z</time>
      </trkpt>
      <trkpt lat="43.90082" lon="7.34153">
        <ele>1016.73</ele>
        <time>2013-02-03T09:58:21Z</time>
      </trkpt>
      <trkpt lat="43.9009" lon="7.34108">
        <ele>1019.13</ele>
        <time>2013-02-03T09:58:34Z</time>
      </trkpt>
      <trkpt lat="43.90086" lon="7.34044">
        <ele>1019.62</ele>
        <time>2013-02-03T09:58:51Z</time>
      </trkpt>
      <trkpt lat="43.9008" lon="7.33977">
        <ele>1019.13</ele>
        <time>2013-02-03T09:59:08Z</time>
      </trkpt>
      <trkpt lat="43.90088" lon="7.33931">
        <ele>1020.58</ele>
        <time>2013-02-03T09:59:21Z</time>
      </trkpt>
      <trkpt lat="43.90107" lon="7.33884">
        <ele>1023.46</ele>
        <time>2013-02-03T09:59:35Z</time>
      </trkpt>
      <trkpt lat="43.90126" lon="7.33831">
        <ele>1026.34</ele>
        <time>2013-02-03T09:59:50Z</time>
      </trkpt>
      <trkpt lat="43.90173" lon="7.33808">
        <ele>1029.23</ele>
        <time>2013-02-03T10:00:07Z</time>
      </trkpt>
      <trkpt lat="43.90206" lon="7.33803">
        <ele>1031.63</ele>
        <time>2013-02-03T10:00:21Z</time>
      </trkpt>
      <trkpt lat="43.90267" lon="7.33806">
        <ele>1034.04</ele>
        <time>2013-02-03T10:00:41Z</time>
      </trkpt>
      <trkpt lat="43.90302" lon="7.33825">
        <ele>1035</ele>
        <time>2013-02-03T10:00:54Z</time>
      </trkpt>
      <trkpt lat="43.90305" lon="7.33879">
        <ele>1036.44</ele>
        <time>2013-02-03T10:01:06Z</time>
      </trkpt>
      <trkpt lat="43.90333" lon="7.33943">
        <ele>1035.96</ele>
        <time>2013-02-03T10:01:22Z</time>
      </trkpt>
      <trkpt lat="43.90369" lon="7.33911">
        <ele>1037.88</ele>
        <time>2013-02-03T10:01:33Z</time>
      </trkpt>
      <trkpt lat="43.90417" lon="7.33896">
        <ele>1038.36</ele>
        <time>2013-02-03T10:01:46Z</time>
      </trkpt>
      <trkpt lat="43.90429" lon="7.33895">
        <ele>1038.36</ele>
        <time>2013-02-03T10:01:49Z</time>
      </trkpt>
      <trkpt lat="43.90452" lon="7.33914">
        <ele>1036.92</ele>
        <time>2013-02-03T10:01:56Z</time>
      </trkpt>
      <trkpt lat="43.90463" lon="7.33935">
        <ele>1035.96</ele>
        <time>2013-02-03T10:02:00Z</time>
      </trkpt>
      <trkpt lat="43.90471" lon="7.33958">
        <ele>1035.48</ele>
        <time>2013-02-03T10:02:04Z</time>
      </trkpt>
      <trkpt lat="43.90498" lon="7.33987">
        <ele>1035.48</ele>
        <time>2013-02-03T10:02:13Z</time>
      </trkpt>
      <trkpt lat="43.90554" lon="7.33954">
        <ele>1040.76</ele>
        <time>2013-02-03T10:02:29Z</time>
      </trkpt>
      <trkpt lat="43.90566" lon="7.33902">
        <ele>1041.73</ele>
        <time>2013-02-03T10:02:40Z</time>
      </trkpt>
      <trkpt lat="43.906" lon="7.33879">
        <ele>1042.69</ele>
        <time>2013-02-03T10:02:53Z</time>
      </trkpt>
      <trkpt lat="43.90638" lon="7.33859">
        <ele>1045.57</ele>
        <time>2013-02-03T10:03:08Z</time>
      </trkpt>
      <trkpt lat="43.90649" lon="7.33804">
        <ele>1046.53</ele>
        <time>2013-02-03T10:03:23Z</time>
      </trkpt>
      <trkpt lat="43.90644" lon="7.33751">
        <ele>1046.53</ele>
        <time>2013-02-03T10:03:38Z</time>
      </trkpt>
      <trkpt lat="43.90656" lon="7.337">
        <ele>1048.45</ele>
        <time>2013-02-03T10:03:53Z</time>
      </trkpt>
      <trkpt lat="43.90674" lon="7.33648">
        <ele>1051.34</ele>
        <time>2013-02-03T10:04:10Z</time>
      </trkpt>
      <trkpt lat="43.9068" lon="7.33596">
        <ele>1054.22</ele>
        <time>2013-02-03T10:04:26Z</time>
      </trkpt>
      <trkpt lat="43.9068" lon="7.33551">
        <ele>1057.59</ele>
        <time>2013-02-03T10:04:39Z</time>
      </trkpt>
      <trkpt lat="43.90677" lon="7.33504">
        <ele>1059.51</ele>
        <time>2013-02-03T10:04:50Z</time>
      </trkpt>
      <trkpt lat="43.9067" lon="7.33456">
        <ele>1059.03</ele>
        <time>2013-02-03T10:05:00Z</time>
      </trkpt>
      <trkpt lat="43.90679" lon="7.33409">
        <ele>1058.07</ele>
        <time>2013-02-03T10:05:08Z</time>
      </trkpt>
      <trkpt lat="43.90708" lon="7.33387">
        <ele>1057.59</ele>
        <time>2013-02-03T10:05:16Z</time>
      </trkpt>
      <trkpt lat="43.90713" lon="7.33389">
        <ele>1057.59</ele>
        <time>2013-02-03T10:05:17Z</time>
      </trkpt>
      <trkpt lat="43.90737" lon="7.33398">
        <ele>1057.59</ele>
        <time>2013-02-03T10:05:22Z</time>
      </trkpt>
      <trkpt lat="43.90761" lon="7.33387">
        <ele>1057.11</ele>
        <time>2013-02-03T10:05:27Z</time>
      </trkpt>
      <trkpt lat="43.90769" lon="7.33378">
        <ele>1059.03</ele>
        <time>2013-02-03T10:05:31Z</time>
      </trkpt>
      <trkpt lat="43.90771" lon="7.33345">
        <ele>1057.59</ele>
        <time>2013-02-03T10:05:38Z</time>
      </trkpt>
      <trkpt lat="43.9078" lon="7.33337">
        <ele>1057.59</ele>
        <time>2013-02-03T10:05:45Z</time>
      </trkpt>
      <trkpt lat="43.90781" lon="7.33339">
        <ele>1057.11</ele>
        <time>2013-02-03T10:05:47Z</time>
      </trkpt>
      <trkpt lat="43.90763" lon="7.3335">
        <ele>1058.07</ele>
        <time>2013-02-03T10:05:58Z</time>
      </trkpt>
      <trkpt lat="43.90761" lon="7.33349">
        <ele>1058.55</ele>
        <time>2013-02-03T10:05:59Z</time>
      </trkpt>
      <trkpt lat="43.90756" lon="7.3335">
        <ele>1058.55</ele>
        <time>2013-02-03T10:06:02Z</time>
      </trkpt>
      <trkpt lat="43.90753" lon="7.33316">
        <ele>1059.99</ele>
        <time>2013-02-03T10:06:17Z</time>
      </trkpt>
      <trkpt lat="43.90759" lon="7.33299">
        <ele>1059.99</ele>
        <time>2013-02-03T10:06:32Z</time>
      </trkpt>
      <trkpt lat="43.90759" lon="7.33298">
        <ele>1058.55</ele>
        <time>2013-02-03T10:06:57Z</time>
      </trkpt>
      <trkpt lat="43.90759" lon="7.33299">
        <ele>1059.03</ele>
        <time>2013-02-03T10:07:22Z</time>
      </trkpt>
      <trkpt lat="43.90759" lon="7.333">
        <ele>1058.07</ele>
        <time>2013-02-03T10:07:52Z</time>
      </trkpt>
      <trkpt lat="43.9076" lon="7.33299">
        <ele>1056.15</ele>
        <time>2013-02-03T10:08:09Z</time>
      </trkpt>
      <trkpt lat="43.9076" lon="7.333">
        <ele>1057.11</ele>
        <time>2013-02-03T10:08:39Z</time>
      </trkpt>
      <trkpt lat="43.9076" lon="7.33301">
        <ele>1058.55</ele>
        <time>2013-02-03T10:09:08Z</time>
      </trkpt>
      <trkpt lat="43.90759" lon="7.333">
        <ele>1059.51</ele>
        <time>2013-02-03T10:09:31Z</time>
      </trkpt>
      <trkpt lat="43.90758" lon="7.333">
        <ele>1059.99</ele>
        <time>2013-02-03T10:09:54Z</time>
      </trkpt>
      <trkpt lat="43.90764" lon="7.33287">
        <ele>1060.47</ele>
        <time>2013-02-03T10:10:12Z</time>
      </trkpt>
      <trkpt lat="43.90788" lon="7.33273">
        <ele>1062.39</ele>
        <time>2013-02-03T10:10:24Z</time>
      </trkpt>
      <trkpt lat="43.90813" lon="7.33255">
        <ele>1063.36</ele>
        <time>2013-02-03T10:10:39Z</time>
      </trkpt>
      <trkpt lat="43.90839" lon="7.33237">
        <ele>1064.32</ele>
        <time>2013-02-03T10:10:54Z</time>
      </trkpt>
      <trkpt lat="43.90866" lon="7.33221">
        <ele>1064.32</ele>
        <time>2013-02-03T10:11:08Z</time>
      </trkpt>
      <trkpt lat="43.9089" lon="7.33198">
        <ele>1065.28</ele>
        <time>2013-02-03T10:11:23Z</time>
      </trkpt>
      <trkpt lat="43.90901" lon="7.33161">
        <ele>1069.12</ele>
        <time>2013-02-03T10:11:38Z</time>
      </trkpt>
      <trkpt lat="43.90913" lon="7.33153">
        <ele>1071.05</ele>
        <time>2013-02-03T10:11:45Z</time>
      </trkpt>
      <trkpt lat="43.90933" lon="7.33119">
        <ele>1072.49</ele>
        <time>2013-02-03T10:12:00Z</time>
      </trkpt>
      <trkpt lat="43.90949" lon="7.33081">
        <ele>1075.37</ele>
        <time>2013-02-03T10:12:17Z</time>
      </trkpt>
      <trkpt lat="43.90974" lon="7.33071">
        <ele>1079.22</ele>
        <time>2013-02-03T10:12:33Z</time>
      </trkpt>
      <trkpt lat="43.91001" lon="7.33069">
        <ele>1081.62</ele>
        <time>2013-02-03T10:12:49Z</time>
      </trkpt>
      <trkpt lat="43.91021" lon="7.33051">
        <ele>1084.02</ele>
        <time>2013-02-03T10:13:05Z</time>
      </trkpt>
      <trkpt lat="43.9104" lon="7.3304">
        <ele>1087.39</ele>
        <time>2013-02-03T10:13:20Z</time>
      </trkpt>
      <trkpt lat="43.91061" lon="7.33028">
        <ele>1091.71</ele>
        <time>2013-02-03T10:13:35Z</time>
      </trkpt>
      <trkpt lat="43.91072" lon="7.33025">
        <ele>1093.16</ele>
        <time>2013-02-03T10:13:43Z</time>
      </trkpt>
      <trkpt lat="43.91079" lon="7.33022">
        <ele>1093.16</ele>
        <time>2013-02-03T10:13:47Z</time>
      </trkpt>
      <trkpt lat="43.91097" lon="7.33016">
        <ele>1096.52</ele>
        <time>2013-02-03T10:14:01Z</time>
      </trkpt>
      <trkpt lat="43.91117" lon="7.33003">
        <ele>1099.89</ele>
        <time>2013-02-03T10:14:17Z</time>
      </trkpt>
      <trkpt lat="43.91132" lon="7.32974">
        <ele>1099.4</ele>
        <time>2013-02-03T10:14:34Z</time>
      </trkpt>
      <trkpt lat="43.91151" lon="7.3294">
        <ele>1100.85</ele>
        <time>2013-02-03T10:14:52Z</time>
      </trkpt>
      <trkpt lat="43.91165" lon="7.32913">
        <ele>1101.81</ele>
        <time>2013-02-03T10:15:04Z</time>
      </trkpt>
      <trkpt lat="43.91191" lon="7.3289">
        <ele>1102.29</ele>
        <time>2013-02-03T10:15:18Z</time>
      </trkpt>
      <trkpt lat="43.91231" lon="7.32871">
        <ele>1104.21</ele>
        <time>2013-02-03T10:15:32Z</time>
      </trkpt>
      <trkpt lat="43.91264" lon="7.32828">
        <ele>1102.77</ele>
        <time>2013-02-03T10:15:43Z</time>
      </trkpt>
      <trkpt lat="43.91283" lon="7.32819">
        <ele>1102.77</ele>
        <time>2013-02-03T10:15:47Z</time>
      </trkpt>
      <trkpt lat="43.91301" lon="7.32809">
        <ele>1103.25</ele>
        <time>2013-02-03T10:15:51Z</time>
      </trkpt>
      <trkpt lat="43.91318" lon="7.32791">
        <ele>1103.73</ele>
        <time>2013-02-03T10:15:56Z</time>
      </trkpt>
      <trkpt lat="43.9136" lon="7.32757">
        <ele>1102.29</ele>
        <time>2013-02-03T10:16:09Z</time>
      </trkpt>
      <trkpt lat="43.91392" lon="7.32739">
        <ele>1107.58</ele>
        <time>2013-02-03T10:16:25Z</time>
      </trkpt>
      <trkpt lat="43.91416" lon="7.32726">
        <ele>1109.02</ele>
        <time>2013-02-03T10:16:39Z</time>
      </trkpt>
      <trkpt lat="43.91439" lon="7.32712">
        <ele>1112.38</ele>
        <time>2013-02-03T10:16:53Z</time>
      </trkpt>
      <trkpt lat="43.91462" lon="7.32698">
        <ele>1113.34</ele>
        <time>2013-02-03T10:17:03Z</time>
      </trkpt>
      <trkpt lat="43.91468" lon="7.32654">
        <ele>1111.42</ele>
        <time>2013-02-03T10:17:17Z</time>
      </trkpt>
      <trkpt lat="43.91467" lon="7.32608">
        <ele>1111.42</ele>
        <time>2013-02-03T10:17:31Z</time>
      </trkpt>
      <trkpt lat="43.91461" lon="7.32569">
        <ele>1110.94</ele>
        <time>2013-02-03T10:17:44Z</time>
      </trkpt>
      <trkpt lat="43.91456" lon="7.32529">
        <ele>1110.94</ele>
        <time>2013-02-03T10:17:58Z</time>
      </trkpt>
      <trkpt lat="43.91453" lon="7.32527">
        <ele>1110.46</ele>
        <time>2013-02-03T10:18:11Z</time>
      </trkpt>
      <trkpt lat="43.91456" lon="7.32529">
        <ele>1110.94</ele>
        <time>2013-02-03T10:18:22Z</time>
      </trkpt>
      <trkpt lat="43.91445" lon="7.32517">
        <ele>1109.5</ele>
        <time>2013-02-03T10:18:28Z</time>
      </trkpt>
      <trkpt lat="43.91444" lon="7.3247">
        <ele>1106.13</ele>
        <time>2013-02-03T10:18:36Z</time>
      </trkpt>
      <trkpt lat="43.91438" lon="7.32447">
        <ele>1104.21</ele>
        <time>2013-02-03T10:18:40Z</time>
      </trkpt>
      <trkpt lat="43.91442" lon="7.32434">
        <ele>1103.25</ele>
        <time>2013-02-03T10:18:42Z</time>
      </trkpt>
      <trkpt lat="43.9144" lon="7.32401">
        <ele>1101.33</ele>
        <time>2013-02-03T10:18:46Z</time>
      </trkpt>
      <trkpt lat="43.9144" lon="7.32357">
        <ele>1101.33</ele>
        <time>2013-02-03T10:18:55Z</time>
      </trkpt>
      <trkpt lat="43.91442" lon="7.3232">
        <ele>1104.69</ele>
        <time>2013-02-03T10:19:11Z</time>
      </trkpt>
      <trkpt lat="43.9144" lon="7.32316">
        <ele>1104.69</ele>
        <time>2013-02-03T10:19:28Z</time>
      </trkpt>
      <trkpt lat="43.91448" lon="7.32294">
        <ele>1108.54</ele>
        <time>2013-02-03T10:19:38Z</time>
      </trkpt>
      <trkpt lat="43.91459" lon="7.32258">
        <ele>1112.86</ele>
        <time>2013-02-03T10:19:56Z</time>
      </trkpt>
      <trkpt lat="43.91464" lon="7.32223">
        <ele>1114.79</ele>
        <time>2013-02-03T10:20:12Z</time>
      </trkpt>
      <trkpt lat="43.9148" lon="7.32193">
        <ele>1112.38</ele>
        <time>2013-02-03T10:20:25Z</time>
      </trkpt>
      <trkpt lat="43.91494" lon="7.32153">
        <ele>1115.27</ele>
        <time>2013-02-03T10:20:41Z</time>
      </trkpt>
      <trkpt lat="43.91504" lon="7.32114">
        <ele>1116.23</ele>
        <time>2013-02-03T10:20:56Z</time>
      </trkpt>
      <trkpt lat="43.91523" lon="7.32077">
        <ele>1116.71</ele>
        <time>2013-02-03T10:21:13Z</time>
      </trkpt>
      <trkpt lat="43.91528" lon="7.32071">
        <ele>1116.71</ele>
        <time>2013-02-03T10:21:17Z</time>
      </trkpt>
      <trkpt lat="43.91535" lon="7.32056">
        <ele>1116.23</ele>
        <time>2013-02-03T10:21:24Z</time>
      </trkpt>
      <trkpt lat="43.91537" lon="7.32046">
        <ele>1116.71</ele>
        <time>2013-02-03T10:21:28Z</time>
      </trkpt>
      <trkpt lat="43.9155" lon="7.32028">
        <ele>1118.15</ele>
        <time>2013-02-03T10:21:39Z</time>
      </trkpt>
      <trkpt lat="43.91552" lon="7.32021">
        <ele>1119.59</ele>
        <time>2013-02-03T10:21:43Z</time>
      </trkpt>
      <trkpt lat="43.9156" lon="7.31995">
        <ele>1123.44</ele>
        <time>2013-02-03T10:21:57Z</time>
      </trkpt>
      <trkpt lat="43.91569" lon="7.31972">
        <ele>1126.32</ele>
        <time>2013-02-03T10:22:12Z</time>
      </trkpt>
      <trkpt lat="43.91569" lon="7.31972">
        <ele>1126.32</ele>
        <time>2013-02-03T10:22:13Z</time>
      </trkpt>
      <trkpt lat="43.91585" lon="7.31956">
        <ele>1129.21</ele>
        <time>2013-02-03T10:22:32Z</time>
      </trkpt>
      <trkpt lat="43.91589" lon="7.31947">
        <ele>1130.65</ele>
        <time>2013-02-03T10:22:40Z</time>
      </trkpt>
      <trkpt lat="43.91596" lon="7.31933">
        <ele>1133.05</ele>
        <time>2013-02-03T10:22:54Z</time>
      </trkpt>
      <trkpt lat="43.91598" lon="7.3193">
        <ele>1134.01</ele>
        <time>2013-02-03T10:22:58Z</time>
      </trkpt>
      <trkpt lat="43.91607" lon="7.31922">
        <ele>1139.3</ele>
        <time>2013-02-03T10:23:14Z</time>
      </trkpt>
      <trkpt lat="43.91613" lon="7.31913">
        <ele>1141.7</ele>
        <time>2013-02-03T10:23:26Z</time>
      </trkpt>
      <trkpt lat="43.91622" lon="7.319">
        <ele>1145.07</ele>
        <time>2013-02-03T10:23:44Z</time>
      </trkpt>
      <trkpt lat="43.91627" lon="7.31892">
        <ele>1146.99</ele>
        <time>2013-02-03T10:23:59Z</time>
      </trkpt>
      <trkpt lat="43.91629" lon="7.31883">
        <ele>1148.43</ele>
        <time>2013-02-03T10:24:12Z</time>
      </trkpt>
      <trkpt lat="43.91634" lon="7.31869">
        <ele>1152.28</ele>
        <time>2013-02-03T10:24:33Z</time>
      </trkpt>
      <trkpt lat="43.91634" lon="7.31856">
        <ele>1156.12</ele>
        <time>2013-02-03T10:24:52Z</time>
      </trkpt>
      <trkpt lat="43.91634" lon="7.3185">
        <ele>1158.53</ele>
        <time>2013-02-03T10:25:09Z</time>
      </trkpt>
      <trkpt lat="43.91633" lon="7.31843">
        <ele>1159.97</ele>
        <time>2013-02-03T10:25:23Z</time>
      </trkpt>
      <trkpt lat="43.91632" lon="7.31838">
        <ele>1161.89</ele>
        <time>2013-02-03T10:25:41Z</time>
      </trkpt>
      <trkpt lat="43.91637" lon="7.3183">
        <ele>1164.77</ele>
        <time>2013-02-03T10:25:56Z</time>
      </trkpt>
      <trkpt lat="43.91638" lon="7.31823">
        <ele>1167.18</ele>
        <time>2013-02-03T10:26:11Z</time>
      </trkpt>
      <trkpt lat="43.91632" lon="7.31821">
        <ele>1168.62</ele>
        <time>2013-02-03T10:26:24Z</time>
      </trkpt>
      <trkpt lat="43.91624" lon="7.3182">
        <ele>1170.06</ele>
        <time>2013-02-03T10:26:38Z</time>
      </trkpt>
      <trkpt lat="43.9162" lon="7.31816">
        <ele>1171.98</ele>
        <time>2013-02-03T10:26:45Z</time>
      </trkpt>
      <trkpt lat="43.91609" lon="7.31812">
        <ele>1175.35</ele>
        <time>2013-02-03T10:27:02Z</time>
      </trkpt>
      <trkpt lat="43.91604" lon="7.31806">
        <ele>1176.79</ele>
        <time>2013-02-03T10:27:12Z</time>
      </trkpt>
      <trkpt lat="43.916" lon="7.31797">
        <ele>1179.19</ele>
        <time>2013-02-03T10:27:25Z</time>
      </trkpt>
      <trkpt lat="43.91595" lon="7.31793">
        <ele>1181.12</ele>
        <time>2013-02-03T10:27:33Z</time>
      </trkpt>
      <trkpt lat="43.91586" lon="7.31787">
        <ele>1184</ele>
        <time>2013-02-03T10:27:47Z</time>
      </trkpt>
      <trkpt lat="43.91577" lon="7.31785">
        <ele>1184.48</ele>
        <time>2013-02-03T10:27:59Z</time>
      </trkpt>
      <trkpt lat="43.91566" lon="7.31779">
        <ele>1187.85</ele>
        <time>2013-02-03T10:28:14Z</time>
      </trkpt>
      <trkpt lat="43.91557" lon="7.31774">
        <ele>1191.69</ele>
        <time>2013-02-03T10:28:28Z</time>
      </trkpt>
      <trkpt lat="43.91551" lon="7.3177">
        <ele>1192.65</ele>
        <time>2013-02-03T10:28:42Z</time>
      </trkpt>
      <trkpt lat="43.91543" lon="7.31766">
        <ele>1195.54</ele>
        <time>2013-02-03T10:28:56Z</time>
      </trkpt>
      <trkpt lat="43.91538" lon="7.31763">
        <ele>1196.5</ele>
        <time>2013-02-03T10:29:08Z</time>
      </trkpt>
      <trkpt lat="43.91532" lon="7.31758">
        <ele>1199.86</ele>
        <time>2013-02-03T10:29:21Z</time>
      </trkpt>
      <trkpt lat="43.9152" lon="7.31751">
        <ele>1202.75</ele>
        <time>2013-02-03T10:29:37Z</time>
      </trkpt>
      <trkpt lat="43.91511" lon="7.31747">
        <ele>1204.67</ele>
        <time>2013-02-03T10:29:51Z</time>
      </trkpt>
      <trkpt lat="43.9151" lon="7.31747">
        <ele>1204.67</ele>
        <time>2013-02-03T10:29:53Z</time>
      </trkpt>
      <trkpt lat="43.91498" lon="7.31744">
        <ele>1205.63</ele>
        <time>2013-02-03T10:30:07Z</time>
      </trkpt>
      <trkpt lat="43.91492" lon="7.31743">
        <ele>1206.59</ele>
        <time>2013-02-03T10:30:17Z</time>
      </trkpt>
      <trkpt lat="43.91485" lon="7.31739">
        <ele>1208.03</ele>
        <time>2013-02-03T10:30:28Z</time>
      </trkpt>
      <trkpt lat="43.91477" lon="7.31736">
        <ele>1209</ele>
        <time>2013-02-03T10:30:39Z</time>
      </trkpt>
      <trkpt lat="43.91463" lon="7.31729">
        <ele>1209.96</ele>
        <time>2013-02-03T10:30:53Z</time>
      </trkpt>
      <trkpt lat="43.91456" lon="7.31722">
        <ele>1210.92</ele>
        <time>2013-02-03T10:31:03Z</time>
      </trkpt>
      <trkpt lat="43.91445" lon="7.31719">
        <ele>1211.4</ele>
        <time>2013-02-03T10:31:16Z</time>
      </trkpt>
      <trkpt lat="43.91434" lon="7.31713">
        <ele>1213.8</ele>
        <time>2013-02-03T10:31:30Z</time>
      </trkpt>
      <trkpt lat="43.91433" lon="7.3171">
        <ele>1212.84</ele>
        <time>2013-02-03T10:31:42Z</time>
      </trkpt>
      <trkpt lat="43.91432" lon="7.3171">
        <ele>1214.76</ele>
        <time>2013-02-03T10:31:52Z</time>
      </trkpt>
      <trkpt lat="43.91423" lon="7.31701">
        <ele>1218.13</ele>
        <time>2013-02-03T10:32:03Z</time>
      </trkpt>
      <trkpt lat="43.9141" lon="7.31693">
        <ele>1220.53</ele>
        <time>2013-02-03T10:32:18Z</time>
      </trkpt>
      <trkpt lat="43.91408" lon="7.3169">
        <ele>1221.01</ele>
        <time>2013-02-03T10:32:20Z</time>
      </trkpt>
      <trkpt lat="43.91396" lon="7.31684">
        <ele>1223.42</ele>
        <time>2013-02-03T10:32:35Z</time>
      </trkpt>
      <trkpt lat="43.91388" lon="7.31676">
        <ele>1226.3</ele>
        <time>2013-02-03T10:32:48Z</time>
      </trkpt>
      <trkpt lat="43.91378" lon="7.31672">
        <ele>1228.22</ele>
        <time>2013-02-03T10:33:02Z</time>
      </trkpt>
      <trkpt lat="43.91372" lon="7.31666">
        <ele>1229.66</ele>
        <time>2013-02-03T10:33:14Z</time>
      </trkpt>
      <trkpt lat="43.91363" lon="7.31657">
        <ele>1231.59</ele>
        <time>2013-02-03T10:33:29Z</time>
      </trkpt>
      <trkpt lat="43.91361" lon="7.31653">
        <ele>1229.66</ele>
        <time>2013-02-03T10:33:40Z</time>
      </trkpt>
      <trkpt lat="43.9136" lon="7.31651">
        <ele>1227.74</ele>
        <time>2013-02-03T10:34:04Z</time>
      </trkpt>
      <trkpt lat="43.91361" lon="7.31652">
        <ele>1227.74</ele>
        <time>2013-02-03T10:34:51Z</time>
      </trkpt>
      <trkpt lat="43.91361" lon="7.31652">
        <ele>1227.74</ele>
        <time>2013-02-03T10:35:19Z</time>
      </trkpt>
      <trkpt lat="43.91361" lon="7.31652">
        <ele>1228.22</ele>
        <time>2013-02-03T10:35:59Z</time>
      </trkpt>
      <trkpt lat="43.9136" lon="7.31651">
        <ele>1226.78</ele>
        <time>2013-02-03T10:36:30Z</time>
      </trkpt>
      <trkpt lat="43.91361" lon="7.31652">
        <ele>1227.26</ele>
        <time>2013-02-03T10:36:59Z</time>
      </trkpt>
      <trkpt lat="43.91361" lon="7.31652">
        <ele>1226.78</ele>
        <time>2013-02-03T10:37:31Z</time>
      </trkpt>
      <trkpt lat="43.91361" lon="7.31652">
        <ele>1226.78</ele>
        <time>2013-02-03T10:38:06Z</time>
      </trkpt>
      <trkpt lat="43.9136" lon="7.31651">
        <ele>1226.78</ele>
        <time>2013-02-03T10:38:43Z</time>
      </trkpt>
      <trkpt lat="43.91357" lon="7.31651">
        <ele>1227.74</ele>
        <time>2013-02-03T10:39:13Z</time>
      </trkpt>
      <trkpt lat="43.91351" lon="7.31646">
        <ele>1231.11</ele>
        <time>2013-02-03T10:39:21Z</time>
      </trkpt>
      <trkpt lat="43.91343" lon="7.31637">
        <ele>1233.51</ele>
        <time>2013-02-03T10:39:34Z</time>
      </trkpt>
      <trkpt lat="43.91336" lon="7.31632">
        <ele>1234.47</ele>
        <time>2013-02-03T10:39:48Z</time>
      </trkpt>
      <trkpt lat="43.91334" lon="7.31627">
        <ele>1235.91</ele>
        <time>2013-02-03T10:40:01Z</time>
      </trkpt>
      <trkpt lat="43.9132" lon="7.31617">
        <ele>1240.72</ele>
        <time>2013-02-03T10:40:16Z</time>
      </trkpt>
      <trkpt lat="43.91311" lon="7.31605">
        <ele>1243.12</ele>
        <time>2013-02-03T10:40:31Z</time>
      </trkpt>
      <trkpt lat="43.91304" lon="7.31591">
        <ele>1244.56</ele>
        <time>2013-02-03T10:40:45Z</time>
      </trkpt>
      <trkpt lat="43.91298" lon="7.31574">
        <ele>1248.41</ele>
        <time>2013-02-03T10:41:00Z</time>
      </trkpt>
      <trkpt lat="43.91297" lon="7.31553">
        <ele>1251.77</ele>
        <time>2013-02-03T10:41:16Z</time>
      </trkpt>
      <trkpt lat="43.91295" lon="7.31528">
        <ele>1254.66</ele>
        <time>2013-02-03T10:41:33Z</time>
      </trkpt>
      <trkpt lat="43.91296" lon="7.31508">
        <ele>1255.14</ele>
        <time>2013-02-03T10:41:47Z</time>
      </trkpt>
      <trkpt lat="43.91298" lon="7.31501">
        <ele>1256.1</ele>
        <time>2013-02-03T10:41:53Z</time>
      </trkpt>
      <trkpt lat="43.91301" lon="7.31497">
        <ele>1258.02</ele>
        <time>2013-02-03T10:42:04Z</time>
      </trkpt>
      <trkpt lat="43.913" lon="7.31494">
        <ele>1254.18</ele>
        <time>2013-02-03T10:42:15Z</time>
      </trkpt>
      <trkpt lat="43.913" lon="7.315">
        <ele>1254.66</ele>
        <time>2013-02-03T10:42:47Z</time>
      </trkpt>
      <trkpt lat="43.91299" lon="7.31497">
        <ele>1252.74</ele>
        <time>2013-02-03T10:43:15Z</time>
      </trkpt>
      <trkpt lat="43.91299" lon="7.31491">
        <ele>1248.41</ele>
        <time>2013-02-03T10:43:49Z</time>
      </trkpt>
      <trkpt lat="43.91302" lon="7.31498">
        <ele>1246.01</ele>
        <time>2013-02-03T10:44:27Z</time>
      </trkpt>
      <trkpt lat="43.91299" lon="7.31495">
        <ele>1248.41</ele>
        <time>2013-02-03T10:44:59Z</time>
      </trkpt>
      <trkpt lat="43.91301" lon="7.31496">
        <ele>1246.97</ele>
        <time>2013-02-03T10:45:31Z</time>
      </trkpt>
      <trkpt lat="43.91303" lon="7.31495">
        <ele>1254.18</ele>
        <time>2013-02-03T10:46:14Z</time>
      </trkpt>
      <trkpt lat="43.91302" lon="7.31493">
        <ele>1244.08</ele>
        <time>2013-02-03T10:46:46Z</time>
      </trkpt>
      <trkpt lat="43.91303" lon="7.31494">
        <ele>1245.04</ele>
        <time>2013-02-03T10:47:22Z</time>
      </trkpt>
      <trkpt lat="43.91301" lon="7.31498">
        <ele>1248.41</ele>
        <time>2013-02-03T10:47:57Z</time>
      </trkpt>
      <trkpt lat="43.91298" lon="7.31496">
        <ele>1249.85</ele>
        <time>2013-02-03T10:48:32Z</time>
      </trkpt>
      <trkpt lat="43.913" lon="7.31496">
        <ele>1252.74</ele>
        <time>2013-02-03T10:49:05Z</time>
      </trkpt>
      <trkpt lat="43.91301" lon="7.31497">
        <ele>1250.81</ele>
        <time>2013-02-03T10:49:39Z</time>
      </trkpt>
      <trkpt lat="43.91297" lon="7.31499">
        <ele>1248.89</ele>
        <time>2013-02-03T10:50:10Z</time>
      </trkpt>
      <trkpt lat="43.91305" lon="7.31498">
        <ele>1246.01</ele>
        <time>2013-02-03T10:50:45Z</time>
      </trkpt>
      <trkpt lat="43.91305" lon="7.31497">
        <ele>1247.93</ele>
        <time>2013-02-03T10:51:19Z</time>
      </trkpt>
      <trkpt lat="43.91301" lon="7.315">
        <ele>1245.53</ele>
        <time>2013-02-03T10:51:57Z</time>
      </trkpt>
      <trkpt lat="43.91305" lon="7.31492">
        <ele>1254.66</ele>
        <time>2013-02-03T10:52:34Z</time>
      </trkpt>
      <trkpt lat="43.91297" lon="7.31501">
        <ele>1247.93</ele>
        <time>2013-02-03T10:53:19Z</time>
      </trkpt>
      <trkpt lat="43.91301" lon="7.31502">
        <ele>1237.83</ele>
        <time>2013-02-03T10:53:47Z</time>
      </trkpt>
      <trkpt lat="43.91302" lon="7.31497">
        <ele>1237.35</ele>
        <time>2013-02-03T10:54:12Z</time>
      </trkpt>
      <trkpt lat="43.91301" lon="7.31498">
        <ele>1239.28</ele>
        <time>2013-02-03T10:54:46Z</time>
      </trkpt>
      <trkpt lat="43.91302" lon="7.31497">
        <ele>1242.16</ele>
        <time>2013-02-03T10:55:11Z</time>
      </trkpt>
      <trkpt lat="43.91296" lon="7.31493">
        <ele>1246.97</ele>
        <time>2013-02-03T10:55:47Z</time>
      </trkpt>
      <trkpt lat="43.913" lon="7.31498">
        <ele>1244.08</ele>
        <time>2013-02-03T10:56:21Z</time>
      </trkpt>
      <trkpt lat="43.91304" lon="7.31489">
        <ele>1246.97</ele>
        <time>2013-02-03T10:56:32Z</time>
      </trkpt>
      <trkpt lat="43.91306" lon="7.31478">
        <ele>1250.33</ele>
        <time>2013-02-03T10:56:47Z</time>
      </trkpt>
      <trkpt lat="43.91307" lon="7.31477">
        <ele>1250.33</ele>
        <time>2013-02-03T10:57:06Z</time>
      </trkpt>
      <trkpt lat="43.91313" lon="7.31475">
        <ele>1250.33</ele>
        <time>2013-02-03T10:57:11Z</time>
      </trkpt>
      <trkpt lat="43.91314" lon="7.31472">
        <ele>1251.29</ele>
        <time>2013-02-03T10:57:13Z</time>
      </trkpt>
      <trkpt lat="43.91317" lon="7.31463">
        <ele>1252.25</ele>
        <time>2013-02-03T10:57:18Z</time>
      </trkpt>
      <trkpt lat="43.91323" lon="7.31454">
        <ele>1254.18</ele>
        <time>2013-02-03T10:57:22Z</time>
      </trkpt>
      <trkpt lat="43.91346" lon="7.31421">
        <ele>1253.22</ele>
        <time>2013-02-03T10:57:33Z</time>
      </trkpt>
      <trkpt lat="43.91372" lon="7.31379">
        <ele>1251.77</ele>
        <time>2013-02-03T10:57:44Z</time>
      </trkpt>
      <trkpt lat="43.91402" lon="7.31339">
        <ele>1250.81</ele>
        <time>2013-02-03T10:57:54Z</time>
      </trkpt>
      <trkpt lat="43.9144" lon="7.313">
        <ele>1250.33</ele>
        <time>2013-02-03T10:58:05Z</time>
      </trkpt>
      <trkpt lat="43.91458" lon="7.31263">
        <ele>1248.41</ele>
        <time>2013-02-03T10:58:14Z</time>
      </trkpt>
      <trkpt lat="43.9146" lon="7.31253">
        <ele>1247.93</ele>
        <time>2013-02-03T10:58:16Z</time>
      </trkpt>
      <trkpt lat="43.91461" lon="7.31222">
        <ele>1245.53</ele>
        <time>2013-02-03T10:58:21Z</time>
      </trkpt>
      <trkpt lat="43.9146" lon="7.31194">
        <ele>1242.16</ele>
        <time>2013-02-03T10:58:26Z</time>
      </trkpt>
      <trkpt lat="43.91458" lon="7.31156">
        <ele>1239.76</ele>
        <time>2013-02-03T10:58:32Z</time>
      </trkpt>
      <trkpt lat="43.9146" lon="7.31119">
        <ele>1236.87</ele>
        <time>2013-02-03T10:58:38Z</time>
      </trkpt>
      <trkpt lat="43.91467" lon="7.31102">
        <ele>1234.95</ele>
        <time>2013-02-03T10:58:41Z</time>
      </trkpt>
      <trkpt lat="43.91476" lon="7.31077">
        <ele>1234.95</ele>
        <time>2013-02-03T10:58:49Z</time>
      </trkpt>
      <trkpt lat="43.91488" lon="7.31059">
        <ele>1233.03</ele>
        <time>2013-02-03T10:58:55Z</time>
      </trkpt>
      <trkpt lat="43.91501" lon="7.31029">
        <ele>1229.66</ele>
        <time>2013-02-03T10:59:02Z</time>
      </trkpt>
      <trkpt lat="43.91519" lon="7.30983">
        <ele>1226.78</ele>
        <time>2013-02-03T10:59:09Z</time>
      </trkpt>
      <trkpt lat="43.91522" lon="7.30973">
        <ele>1226.3</ele>
        <time>2013-02-03T10:59:11Z</time>
      </trkpt>
      <trkpt lat="43.91535" lon="7.30954">
        <ele>1227.26</ele>
        <time>2013-02-03T10:59:16Z</time>
      </trkpt>
      <trkpt lat="43.91551" lon="7.30928">
        <ele>1228.7</ele>
        <time>2013-02-03T10:59:22Z</time>
      </trkpt>
      <trkpt lat="43.91565" lon="7.30909">
        <ele>1230.14</ele>
        <time>2013-02-03T10:59:27Z</time>
      </trkpt>
      <trkpt lat="43.91585" lon="7.30872">
        <ele>1233.51</ele>
        <time>2013-02-03T10:59:37Z</time>
      </trkpt>
      <trkpt lat="43.91604" lon="7.30842">
        <ele>1234.95</ele>
        <time>2013-02-03T10:59:46Z</time>
      </trkpt>
      <trkpt lat="43.91621" lon="7.30806">
        <ele>1231.11</ele>
        <time>2013-02-03T10:59:56Z</time>
      </trkpt>
      <trkpt lat="43.91628" lon="7.30789">
        <ele>1226.78</ele>
        <time>2013-02-03T11:00:06Z</time>
      </trkpt>
      <trkpt lat="43.9163" lon="7.30782">
        <ele>1226.3</ele>
        <time>2013-02-03T11:00:09Z</time>
      </trkpt>
      <trkpt lat="43.91642" lon="7.30754">
        <ele>1224.38</ele>
        <time>2013-02-03T11:00:26Z</time>
      </trkpt>
      <trkpt lat="43.91648" lon="7.30736">
        <ele>1223.42</ele>
        <time>2013-02-03T11:00:39Z</time>
      </trkpt>
      <trkpt lat="43.91649" lon="7.30733">
        <ele>1223.42</ele>
        <time>2013-02-03T11:00:41Z</time>
      </trkpt>
      <trkpt lat="43.91664" lon="7.30714">
        <ele>1227.74</ele>
        <time>2013-02-03T11:00:55Z</time>
      </trkpt>
      <trkpt lat="43.91682" lon="7.30684">
        <ele>1227.74</ele>
        <time>2013-02-03T11:01:08Z</time>
      </trkpt>
      <trkpt lat="43.91691" lon="7.30675">
        <ele>1228.22</ele>
        <time>2013-02-03T11:01:12Z</time>
      </trkpt>
      <trkpt lat="43.91702" lon="7.30624">
        <ele>1222.93</ele>
        <time>2013-02-03T11:01:26Z</time>
      </trkpt>
      <trkpt lat="43.917" lon="7.306">
        <ele>1225.82</ele>
        <time>2013-02-03T11:01:38Z</time>
      </trkpt>
      <trkpt lat="43.91702" lon="7.30587">
        <ele>1227.26</ele>
        <time>2013-02-03T11:01:45Z</time>
      </trkpt>
      <trkpt lat="43.91703" lon="7.30575">
        <ele>1226.3</ele>
        <time>2013-02-03T11:01:53Z</time>
      </trkpt>
      <trkpt lat="43.9171" lon="7.30561">
        <ele>1224.38</ele>
        <time>2013-02-03T11:02:05Z</time>
      </trkpt>
      <trkpt lat="43.9171" lon="7.30558">
        <ele>1224.38</ele>
        <time>2013-02-03T11:02:11Z</time>
      </trkpt>
      <trkpt lat="43.91713" lon="7.30538">
        <ele>1225.34</ele>
        <time>2013-02-03T11:02:22Z</time>
      </trkpt>
      <trkpt lat="43.91715" lon="7.30512">
        <ele>1227.74</ele>
        <time>2013-02-03T11:02:38Z</time>
      </trkpt>
      <trkpt lat="43.91714" lon="7.305">
        <ele>1227.74</ele>
        <time>2013-02-03T11:02:48Z</time>
      </trkpt>
      <trkpt lat="43.91713" lon="7.30484">
        <ele>1227.26</ele>
        <time>2013-02-03T11:02:54Z</time>
      </trkpt>
      <trkpt lat="43.91711" lon="7.30461">
        <ele>1227.26</ele>
        <time>2013-02-03T11:03:06Z</time>
      </trkpt>
      <trkpt lat="43.91712" lon="7.30448">
        <ele>1226.3</ele>
        <time>2013-02-03T11:03:17Z</time>
      </trkpt>
      <trkpt lat="43.91713" lon="7.30411">
        <ele>1226.3</ele>
        <time>2013-02-03T11:03:28Z</time>
      </trkpt>
      <trkpt lat="43.91719" lon="7.30371">
        <ele>1223.42</ele>
        <time>2013-02-03T11:03:39Z</time>
      </trkpt>
      <trkpt lat="43.91726" lon="7.30334">
        <ele>1222.93</ele>
        <time>2013-02-03T11:03:49Z</time>
      </trkpt>
      <trkpt lat="43.91724" lon="7.30322">
        <ele>1225.34</ele>
        <time>2013-02-03T11:04:00Z</time>
      </trkpt>
      <trkpt lat="43.91724" lon="7.30319">
        <ele>1224.86</ele>
        <time>2013-02-03T11:04:03Z</time>
      </trkpt>
      <trkpt lat="43.91722" lon="7.30287">
        <ele>1222.93</ele>
        <time>2013-02-03T11:04:15Z</time>
      </trkpt>
      <trkpt lat="43.91718" lon="7.30274">
        <ele>1221.97</ele>
        <time>2013-02-03T11:04:25Z</time>
      </trkpt>
      <trkpt lat="43.91708" lon="7.30255">
        <ele>1222.93</ele>
        <time>2013-02-03T11:04:36Z</time>
      </trkpt>
      <trkpt lat="43.91702" lon="7.30251">
        <ele>1222.93</ele>
        <time>2013-02-03T11:04:51Z</time>
      </trkpt>
      <trkpt lat="43.917" lon="7.30247">
        <ele>1223.9</ele>
        <time>2013-02-03T11:04:55Z</time>
      </trkpt>
      <trkpt lat="43.91698" lon="7.30246">
        <ele>1224.86</ele>
        <time>2013-02-03T11:04:59Z</time>
      </trkpt>
      <trkpt lat="43.91692" lon="7.30238">
        <ele>1223.9</ele>
        <time>2013-02-03T11:05:07Z</time>
      </trkpt>
      <trkpt lat="43.91682" lon="7.30228">
        <ele>1222.93</ele>
        <time>2013-02-03T11:05:20Z</time>
      </trkpt>
      <trkpt lat="43.91678" lon="7.30217">
        <ele>1226.78</ele>
        <time>2013-02-03T11:05:33Z</time>
      </trkpt>
      <trkpt lat="43.91678" lon="7.3021">
        <ele>1230.62</ele>
        <time>2013-02-03T11:05:42Z</time>
      </trkpt>
      <trkpt lat="43.91669" lon="7.30195">
        <ele>1233.51</ele>
        <time>2013-02-03T11:05:56Z</time>
      </trkpt>
      <trkpt lat="43.91666" lon="7.30186">
        <ele>1235.43</ele>
        <time>2013-02-03T11:06:07Z</time>
      </trkpt>
      <trkpt lat="43.91664" lon="7.3018">
        <ele>1235.43</ele>
        <time>2013-02-03T11:06:10Z</time>
      </trkpt>
      <trkpt lat="43.91659" lon="7.30175">
        <ele>1236.39</ele>
        <time>2013-02-03T11:06:14Z</time>
      </trkpt>
      <trkpt lat="43.91654" lon="7.30172">
        <ele>1236.39</ele>
        <time>2013-02-03T11:06:29Z</time>
      </trkpt>
      <trkpt lat="43.91647" lon="7.30166">
        <ele>1237.35</ele>
        <time>2013-02-03T11:06:40Z</time>
      </trkpt>
      <trkpt lat="43.9164" lon="7.30156">
        <ele>1238.32</ele>
        <time>2013-02-03T11:06:58Z</time>
      </trkpt>
      <trkpt lat="43.91609" lon="7.30142">
        <ele>1236.87</ele>
        <time>2013-02-03T11:07:09Z</time>
      </trkpt>
      <trkpt lat="43.916" lon="7.30144">
        <ele>1237.35</ele>
        <time>2013-02-03T11:07:16Z</time>
      </trkpt>
      <trkpt lat="43.9158" lon="7.30142">
        <ele>1237.83</ele>
        <time>2013-02-03T11:07:32Z</time>
      </trkpt>
      <trkpt lat="43.91565" lon="7.30126">
        <ele>1239.28</ele>
        <time>2013-02-03T11:07:45Z</time>
      </trkpt>
      <trkpt lat="43.91558" lon="7.30098">
        <ele>1237.35</ele>
        <time>2013-02-03T11:07:54Z</time>
      </trkpt>
      <trkpt lat="43.91531" lon="7.30059">
        <ele>1233.03</ele>
        <time>2013-02-03T11:08:04Z</time>
      </trkpt>
      <trkpt lat="43.9153" lon="7.30054">
        <ele>1233.51</ele>
        <time>2013-02-03T11:08:09Z</time>
      </trkpt>
      <trkpt lat="43.91527" lon="7.30049">
        <ele>1233.51</ele>
        <time>2013-02-03T11:08:13Z</time>
      </trkpt>
      <trkpt lat="43.91512" lon="7.30025">
        <ele>1234.95</ele>
        <time>2013-02-03T11:08:30Z</time>
      </trkpt>
      <trkpt lat="43.91502" lon="7.30007">
        <ele>1233.99</ele>
        <time>2013-02-03T11:08:42Z</time>
      </trkpt>
      <trkpt lat="43.91498" lon="7.29995">
        <ele>1233.51</ele>
        <time>2013-02-03T11:08:50Z</time>
      </trkpt>
      <trkpt lat="43.91496" lon="7.29984">
        <ele>1230.62</ele>
        <time>2013-02-03T11:09:04Z</time>
      </trkpt>
      <trkpt lat="43.91496" lon="7.29976">
        <ele>1228.22</ele>
        <time>2013-02-03T11:09:16Z</time>
      </trkpt>
      <trkpt lat="43.91499" lon="7.29969">
        <ele>1228.7</ele>
        <time>2013-02-03T11:09:27Z</time>
      </trkpt>
      <trkpt lat="43.91505" lon="7.2995">
        <ele>1231.11</ele>
        <time>2013-02-03T11:09:44Z</time>
      </trkpt>
      <trkpt lat="43.91508" lon="7.29939">
        <ele>1233.03</ele>
        <time>2013-02-03T11:09:58Z</time>
      </trkpt>
      <trkpt lat="43.9151" lon="7.29928">
        <ele>1233.99</ele>
        <time>2013-02-03T11:10:14Z</time>
      </trkpt>
      <trkpt lat="43.91513" lon="7.29915">
        <ele>1235.43</ele>
        <time>2013-02-03T11:10:32Z</time>
      </trkpt>
      <trkpt lat="43.91514" lon="7.29903">
        <ele>1238.32</ele>
        <time>2013-02-03T11:10:47Z</time>
      </trkpt>
      <trkpt lat="43.91514" lon="7.29897">
        <ele>1238.8</ele>
        <time>2013-02-03T11:10:59Z</time>
      </trkpt>
      <trkpt lat="43.91514" lon="7.29887">
        <ele>1240.24</ele>
        <time>2013-02-03T11:11:15Z</time>
      </trkpt>
      <trkpt lat="43.91514" lon="7.29878">
        <ele>1241.68</ele>
        <time>2013-02-03T11:11:29Z</time>
      </trkpt>
      <trkpt lat="43.91516" lon="7.2986">
        <ele>1243.6</ele>
        <time>2013-02-03T11:11:46Z</time>
      </trkpt>
      <trkpt lat="43.91519" lon="7.29852">
        <ele>1245.04</ele>
        <time>2013-02-03T11:11:54Z</time>
      </trkpt>
      <trkpt lat="43.91523" lon="7.29835">
        <ele>1246.49</ele>
        <time>2013-02-03T11:12:09Z</time>
      </trkpt>
      <trkpt lat="43.91523" lon="7.29828">
        <ele>1246.97</ele>
        <time>2013-02-03T11:12:24Z</time>
      </trkpt>
      <trkpt lat="43.91522" lon="7.29819">
        <ele>1243.6</ele>
        <time>2013-02-03T11:12:40Z</time>
      </trkpt>
      <trkpt lat="43.91512" lon="7.29811">
        <ele>1242.16</ele>
        <time>2013-02-03T11:12:48Z</time>
      </trkpt>
      <trkpt lat="43.91506" lon="7.29812">
        <ele>1241.2</ele>
        <time>2013-02-03T11:13:01Z</time>
      </trkpt>
      <trkpt lat="43.91506" lon="7.29812">
        <ele>1243.12</ele>
        <time>2013-02-03T11:13:27Z</time>
      </trkpt>
      <trkpt lat="43.91506" lon="7.29812">
        <ele>1242.64</ele>
        <time>2013-02-03T11:13:32Z</time>
      </trkpt>
      <trkpt lat="43.91508" lon="7.29807">
        <ele>1241.2</ele>
        <time>2013-02-03T11:13:43Z</time>
      </trkpt>
      <trkpt lat="43.91507" lon="7.29806">
        <ele>1238.32</ele>
        <time>2013-02-03T11:14:02Z</time>
      </trkpt>
      <trkpt lat="43.91506" lon="7.29806">
        <ele>1238.32</ele>
        <time>2013-02-03T11:14:18Z</time>
      </trkpt>
      <trkpt lat="43.91485" lon="7.29791">
        <ele>1233.51</ele>
        <time>2013-02-03T11:14:28Z</time>
      </trkpt>
      <trkpt lat="43.91479" lon="7.29789">
        <ele>1232.55</ele>
        <time>2013-02-03T11:14:30Z</time>
      </trkpt>
      <trkpt lat="43.91466" lon="7.29785">
        <ele>1231.11</ele>
        <time>2013-02-03T11:14:39Z</time>
      </trkpt>
      <trkpt lat="43.91464" lon="7.29781">
        <ele>1232.07</ele>
        <time>2013-02-03T11:14:46Z</time>
      </trkpt>
      <trkpt lat="43.91461" lon="7.2977">
        <ele>1231.59</ele>
        <time>2013-02-03T11:14:52Z</time>
      </trkpt>
      <trkpt lat="43.9146" lon="7.29751">
        <ele>1227.26</ele>
        <time>2013-02-03T11:15:00Z</time>
      </trkpt>
      <trkpt lat="43.91461" lon="7.29745">
        <ele>1225.82</ele>
        <time>2013-02-03T11:15:02Z</time>
      </trkpt>
      <trkpt lat="43.91447" lon="7.29728">
        <ele>1222.45</ele>
        <time>2013-02-03T11:15:09Z</time>
      </trkpt>
      <trkpt lat="43.91429" lon="7.29712">
        <ele>1219.57</ele>
        <time>2013-02-03T11:15:18Z</time>
      </trkpt>
      <trkpt lat="43.91428" lon="7.29709">
        <ele>1219.09</ele>
        <time>2013-02-03T11:15:29Z</time>
      </trkpt>
      <trkpt lat="43.91423" lon="7.29708">
        <ele>1218.61</ele>
        <time>2013-02-03T11:15:38Z</time>
      </trkpt>
      <trkpt lat="43.9141" lon="7.297">
        <ele>1215.72</ele>
        <time>2013-02-03T11:15:44Z</time>
      </trkpt>
      <trkpt lat="43.91395" lon="7.29703">
        <ele>1211.88</ele>
        <time>2013-02-03T11:15:50Z</time>
      </trkpt>
      <trkpt lat="43.91389" lon="7.297">
        <ele>1209.48</ele>
        <time>2013-02-03T11:15:54Z</time>
      </trkpt>
      <trkpt lat="43.91383" lon="7.297">
        <ele>1208.51</ele>
        <time>2013-02-03T11:15:56Z</time>
      </trkpt>
      <trkpt lat="43.91373" lon="7.29692">
        <ele>1209.48</ele>
        <time>2013-02-03T11:16:01Z</time>
      </trkpt>
      <trkpt lat="43.91363" lon="7.29688">
        <ele>1211.4</ele>
        <time>2013-02-03T11:16:07Z</time>
      </trkpt>
      <trkpt lat="43.91353" lon="7.2968">
        <ele>1209</ele>
        <time>2013-02-03T11:16:13Z</time>
      </trkpt>
      <trkpt lat="43.91341" lon="7.29677">
        <ele>1209.48</ele>
        <time>2013-02-03T11:16:20Z</time>
      </trkpt>
      <trkpt lat="43.91335" lon="7.29673">
        <ele>1210.92</ele>
        <time>2013-02-03T11:16:25Z</time>
      </trkpt>
      <trkpt lat="43.91324" lon="7.29663">
        <ele>1213.8</ele>
        <time>2013-02-03T11:16:33Z</time>
      </trkpt>
      <trkpt lat="43.91316" lon="7.29657">
        <ele>1215.72</ele>
        <time>2013-02-03T11:16:44Z</time>
      </trkpt>
      <trkpt lat="43.91315" lon="7.29656">
        <ele>1215.72</ele>
        <time>2013-02-03T11:16:45Z</time>
      </trkpt>
      <trkpt lat="43.91308" lon="7.29651">
        <ele>1216.69</ele>
        <time>2013-02-03T11:16:51Z</time>
      </trkpt>
      <trkpt lat="43.91291" lon="7.29642">
        <ele>1220.05</ele>
        <time>2013-02-03T11:17:08Z</time>
      </trkpt>
      <trkpt lat="43.91286" lon="7.29638">
        <ele>1221.97</ele>
        <time>2013-02-03T11:17:15Z</time>
      </trkpt>
      <trkpt lat="43.91281" lon="7.29634">
        <ele>1223.42</ele>
        <time>2013-02-03T11:17:21Z</time>
      </trkpt>
      <trkpt lat="43.91265" lon="7.29631">
        <ele>1225.34</ele>
        <time>2013-02-03T11:17:39Z</time>
      </trkpt>
      <trkpt lat="43.91247" lon="7.29633">
        <ele>1226.3</ele>
        <time>2013-02-03T11:17:55Z</time>
      </trkpt>
      <trkpt lat="43.91243" lon="7.29634">
        <ele>1225.82</ele>
        <time>2013-02-03T11:18:05Z</time>
      </trkpt>
      <trkpt lat="43.91232" lon="7.29646">
        <ele>1225.82</ele>
        <time>2013-02-03T11:18:16Z</time>
      </trkpt>
      <trkpt lat="43.91204" lon="7.29671">
        <ele>1224.38</ele>
        <time>2013-02-03T11:18:28Z</time>
      </trkpt>
      <trkpt lat="43.91192" lon="7.29673">
        <ele>1221.97</ele>
        <time>2013-02-03T11:18:32Z</time>
      </trkpt>
      <trkpt lat="43.91164" lon="7.29687">
        <ele>1219.09</ele>
        <time>2013-02-03T11:18:41Z</time>
      </trkpt>
      <trkpt lat="43.91136" lon="7.29702">
        <ele>1216.69</ele>
        <time>2013-02-03T11:18:51Z</time>
      </trkpt>
      <trkpt lat="43.91106" lon="7.29717">
        <ele>1217.17</ele>
        <time>2013-02-03T11:19:03Z</time>
      </trkpt>
      <trkpt lat="43.91099" lon="7.29716">
        <ele>1217.17</ele>
        <time>2013-02-03T11:19:06Z</time>
      </trkpt>
      <trkpt lat="43.91092" lon="7.29712">
        <ele>1218.61</ele>
        <time>2013-02-03T11:19:11Z</time>
      </trkpt>
      <trkpt lat="43.91064" lon="7.29711">
        <ele>1220.53</ele>
        <time>2013-02-03T11:19:25Z</time>
      </trkpt>
      <trkpt lat="43.91046" lon="7.29707">
        <ele>1221.97</ele>
        <time>2013-02-03T11:19:33Z</time>
      </trkpt>
      <trkpt lat="43.91032" lon="7.29696">
        <ele>1222.93</ele>
        <time>2013-02-03T11:19:40Z</time>
      </trkpt>
      <trkpt lat="43.91019" lon="7.29697">
        <ele>1221.49</ele>
        <time>2013-02-03T11:19:45Z</time>
      </trkpt>
      <trkpt lat="43.91006" lon="7.29701">
        <ele>1221.49</ele>
        <time>2013-02-03T11:19:51Z</time>
      </trkpt>
      <trkpt lat="43.90999" lon="7.29705">
        <ele>1221.97</ele>
        <time>2013-02-03T11:19:59Z</time>
      </trkpt>
      <trkpt lat="43.90997" lon="7.29706">
        <ele>1219.57</ele>
        <time>2013-02-03T11:20:14Z</time>
      </trkpt>
      <trkpt lat="43.90995" lon="7.29706">
        <ele>1219.57</ele>
        <time>2013-02-03T11:20:38Z</time>
      </trkpt>
      <trkpt lat="43.90995" lon="7.29706">
        <ele>1219.57</ele>
        <time>2013-02-03T11:20:40Z</time>
      </trkpt>
      <trkpt lat="43.90988" lon="7.29699">
        <ele>1220.53</ele>
        <time>2013-02-03T11:20:47Z</time>
      </trkpt>
      <trkpt lat="43.90978" lon="7.29688">
        <ele>1221.49</ele>
        <time>2013-02-03T11:21:01Z</time>
      </trkpt>
      <trkpt lat="43.90962" lon="7.29663">
        <ele>1223.9</ele>
        <time>2013-02-03T11:21:15Z</time>
      </trkpt>
      <trkpt lat="43.9095" lon="7.29653">
        <ele>1225.34</ele>
        <time>2013-02-03T11:21:25Z</time>
      </trkpt>
      <trkpt lat="43.90944" lon="7.29651">
        <ele>1224.86</ele>
        <time>2013-02-03T11:21:33Z</time>
      </trkpt>
      <trkpt lat="43.90942" lon="7.29653">
        <ele>1224.86</ele>
        <time>2013-02-03T11:21:45Z</time>
      </trkpt>
      <trkpt lat="43.90943" lon="7.29651">
        <ele>1223.9</ele>
        <time>2013-02-03T11:22:10Z</time>
      </trkpt>
      <trkpt lat="43.9094" lon="7.29654">
        <ele>1224.38</ele>
        <time>2013-02-03T11:22:29Z</time>
      </trkpt>
      <trkpt lat="43.90935" lon="7.29662">
        <ele>1223.9</ele>
        <time>2013-02-03T11:22:40Z</time>
      </trkpt>
      <trkpt lat="43.90935" lon="7.29662">
        <ele>1223.9</ele>
        <time>2013-02-03T11:22:45Z</time>
      </trkpt>
      <trkpt lat="43.90928" lon="7.29665">
        <ele>1223.42</ele>
        <time>2013-02-03T11:22:49Z</time>
      </trkpt>
      <trkpt lat="43.90907" lon="7.29671">
        <ele>1223.42</ele>
        <time>2013-02-03T11:23:01Z</time>
      </trkpt>
      <trkpt lat="43.90899" lon="7.29673">
        <ele>1223.42</ele>
        <time>2013-02-03T11:23:04Z</time>
      </trkpt>
      <trkpt lat="43.90879" lon="7.29675">
        <ele>1224.38</ele>
        <time>2013-02-03T11:23:15Z</time>
      </trkpt>
      <trkpt lat="43.90874" lon="7.29676">
        <ele>1224.86</ele>
        <time>2013-02-03T11:23:18Z</time>
      </trkpt>
      <trkpt lat="43.9086" lon="7.29665">
        <ele>1224.38</ele>
        <time>2013-02-03T11:23:24Z</time>
      </trkpt>
      <trkpt lat="43.90832" lon="7.29669">
        <ele>1222.45</ele>
        <time>2013-02-03T11:23:32Z</time>
      </trkpt>
      <trkpt lat="43.90808" lon="7.29665">
        <ele>1221.01</ele>
        <time>2013-02-03T11:23:38Z</time>
      </trkpt>
      <trkpt lat="43.90802" lon="7.29667">
        <ele>1220.53</ele>
        <time>2013-02-03T11:23:41Z</time>
      </trkpt>
      <trkpt lat="43.90788" lon="7.29671">
        <ele>1218.61</ele>
        <time>2013-02-03T11:23:50Z</time>
      </trkpt>
      <trkpt lat="43.90787" lon="7.29671">
        <ele>1218.61</ele>
        <time>2013-02-03T11:23:51Z</time>
      </trkpt>
      <trkpt lat="43.90774" lon="7.29677">
        <ele>1220.53</ele>
        <time>2013-02-03T11:24:03Z</time>
      </trkpt>
      <trkpt lat="43.90771" lon="7.29673">
        <ele>1221.97</ele>
        <time>2013-02-03T11:24:14Z</time>
      </trkpt>
      <trkpt lat="43.90766" lon="7.29666">
        <ele>1221.49</ele>
        <time>2013-02-03T11:24:22Z</time>
      </trkpt>
      <trkpt lat="43.90746" lon="7.29666">
        <ele>1220.05</ele>
        <time>2013-02-03T11:24:31Z</time>
      </trkpt>
      <trkpt lat="43.90733" lon="7.29655">
        <ele>1219.57</ele>
        <time>2013-02-03T11:24:37Z</time>
      </trkpt>
      <trkpt lat="43.90713" lon="7.2963">
        <ele>1216.21</ele>
        <time>2013-02-03T11:24:48Z</time>
      </trkpt>
      <trkpt lat="43.90698" lon="7.29623">
        <ele>1218.61</ele>
        <time>2013-02-03T11:24:55Z</time>
      </trkpt>
      <trkpt lat="43.90685" lon="7.29615">
        <ele>1218.13</ele>
        <time>2013-02-03T11:25:06Z</time>
      </trkpt>
      <trkpt lat="43.90674" lon="7.29608">
        <ele>1220.53</ele>
        <time>2013-02-03T11:25:15Z</time>
      </trkpt>
      <trkpt lat="43.90667" lon="7.29603">
        <ele>1222.93</ele>
        <time>2013-02-03T11:25:19Z</time>
      </trkpt>
      <trkpt lat="43.90652" lon="7.29595">
        <ele>1223.9</ele>
        <time>2013-02-03T11:25:26Z</time>
      </trkpt>
      <trkpt lat="43.90649" lon="7.29593">
        <ele>1224.38</ele>
        <time>2013-02-03T11:25:28Z</time>
      </trkpt>
      <trkpt lat="43.90647" lon="7.29586">
        <ele>1225.82</ele>
        <time>2013-02-03T11:25:32Z</time>
      </trkpt>
      <trkpt lat="43.90637" lon="7.29571">
        <ele>1226.3</ele>
        <time>2013-02-03T11:25:44Z</time>
      </trkpt>
      <trkpt lat="43.90631" lon="7.29566">
        <ele>1226.3</ele>
        <time>2013-02-03T11:25:50Z</time>
      </trkpt>
      <trkpt lat="43.90622" lon="7.29548">
        <ele>1231.11</ele>
        <time>2013-02-03T11:26:02Z</time>
      </trkpt>
      <trkpt lat="43.9062" lon="7.29542">
        <ele>1231.11</ele>
        <time>2013-02-03T11:26:05Z</time>
      </trkpt>
      <trkpt lat="43.90618" lon="7.2954">
        <ele>1231.11</ele>
        <time>2013-02-03T11:26:07Z</time>
      </trkpt>
      <trkpt lat="43.90614" lon="7.29529">
        <ele>1230.62</ele>
        <time>2013-02-03T11:26:13Z</time>
      </trkpt>
      <trkpt lat="43.90611" lon="7.29521">
        <ele>1230.62</ele>
        <time>2013-02-03T11:26:17Z</time>
      </trkpt>
      <trkpt lat="43.90597" lon="7.29501">
        <ele>1228.7</ele>
        <time>2013-02-03T11:26:30Z</time>
      </trkpt>
      <trkpt lat="43.90591" lon="7.2949">
        <ele>1228.7</ele>
        <time>2013-02-03T11:26:36Z</time>
      </trkpt>
      <trkpt lat="43.90587" lon="7.29484">
        <ele>1229.18</ele>
        <time>2013-02-03T11:26:40Z</time>
      </trkpt>
      <trkpt lat="43.90575" lon="7.29465">
        <ele>1230.14</ele>
        <time>2013-02-03T11:26:52Z</time>
      </trkpt>
      <trkpt lat="43.90557" lon="7.29447">
        <ele>1234.95</ele>
        <time>2013-02-03T11:27:06Z</time>
      </trkpt>
      <trkpt lat="43.9055" lon="7.2944">
        <ele>1237.83</ele>
        <time>2013-02-03T11:27:12Z</time>
      </trkpt>
      <trkpt lat="43.90539" lon="7.29429">
        <ele>1241.68</ele>
        <time>2013-02-03T11:27:24Z</time>
      </trkpt>
      <trkpt lat="43.90526" lon="7.29415">
        <ele>1243.6</ele>
        <time>2013-02-03T11:27:39Z</time>
      </trkpt>
      <trkpt lat="43.90521" lon="7.29405">
        <ele>1246.01</ele>
        <time>2013-02-03T11:27:47Z</time>
      </trkpt>
      <trkpt lat="43.90515" lon="7.29396">
        <ele>1248.41</ele>
        <time>2013-02-03T11:27:54Z</time>
      </trkpt>
      <trkpt lat="43.90508" lon="7.29385">
        <ele>1252.25</ele>
        <time>2013-02-03T11:28:03Z</time>
      </trkpt>
      <trkpt lat="43.90499" lon="7.29365">
        <ele>1252.74</ele>
        <time>2013-02-03T11:28:17Z</time>
      </trkpt>
      <trkpt lat="43.90487" lon="7.29343">
        <ele>1249.37</ele>
        <time>2013-02-03T11:28:31Z</time>
      </trkpt>
      <trkpt lat="43.90478" lon="7.29329">
        <ele>1244.56</ele>
        <time>2013-02-03T11:28:45Z</time>
      </trkpt>
      <trkpt lat="43.90476" lon="7.29313">
        <ele>1246.01</ele>
        <time>2013-02-03T11:29:00Z</time>
      </trkpt>
      <trkpt lat="43.90476" lon="7.29311">
        <ele>1246.01</ele>
        <time>2013-02-03T11:29:02Z</time>
      </trkpt>
      <trkpt lat="43.90477" lon="7.29291">
        <ele>1247.93</ele>
        <time>2013-02-03T11:29:17Z</time>
      </trkpt>
      <trkpt lat="43.90478" lon="7.29273">
        <ele>1246.49</ele>
        <time>2013-02-03T11:29:29Z</time>
      </trkpt>
      <trkpt lat="43.90477" lon="7.2926">
        <ele>1244.08</ele>
        <time>2013-02-03T11:29:37Z</time>
      </trkpt>
      <trkpt lat="43.90479" lon="7.29246">
        <ele>1247.93</ele>
        <time>2013-02-03T11:29:51Z</time>
      </trkpt>
      <trkpt lat="43.90481" lon="7.29225">
        <ele>1252.25</ele>
        <time>2013-02-03T11:30:06Z</time>
      </trkpt>
      <trkpt lat="43.90483" lon="7.29206">
        <ele>1251.29</ele>
        <time>2013-02-03T11:30:19Z</time>
      </trkpt>
      <trkpt lat="43.90484" lon="7.29188">
        <ele>1251.77</ele>
        <time>2013-02-03T11:30:30Z</time>
      </trkpt>
      <trkpt lat="43.90488" lon="7.29176">
        <ele>1254.66</ele>
        <time>2013-02-03T11:30:43Z</time>
      </trkpt>
      <trkpt lat="43.90491" lon="7.2916">
        <ele>1256.1</ele>
        <time>2013-02-03T11:30:58Z</time>
      </trkpt>
      <trkpt lat="43.90492" lon="7.29155">
        <ele>1256.58</ele>
        <time>2013-02-03T11:31:03Z</time>
      </trkpt>
      <trkpt lat="43.90496" lon="7.29146">
        <ele>1256.58</ele>
        <time>2013-02-03T11:31:10Z</time>
      </trkpt>
      <trkpt lat="43.90503" lon="7.29133">
        <ele>1257.54</ele>
        <time>2013-02-03T11:31:25Z</time>
      </trkpt>
      <trkpt lat="43.90512" lon="7.29125">
        <ele>1260.43</ele>
        <time>2013-02-03T11:31:41Z</time>
      </trkpt>
      <trkpt lat="43.90523" lon="7.29114">
        <ele>1261.39</ele>
        <time>2013-02-03T11:31:55Z</time>
      </trkpt>
      <trkpt lat="43.9053" lon="7.29097">
        <ele>1261.87</ele>
        <time>2013-02-03T11:32:11Z</time>
      </trkpt>
      <trkpt lat="43.90536" lon="7.29088">
        <ele>1262.83</ele>
        <time>2013-02-03T11:32:21Z</time>
      </trkpt>
      <trkpt lat="43.90538" lon="7.29082">
        <ele>1264.75</ele>
        <time>2013-02-03T11:32:27Z</time>
      </trkpt>
      <trkpt lat="43.9054" lon="7.29056">
        <ele>1265.23</ele>
        <time>2013-02-03T11:32:46Z</time>
      </trkpt>
      <trkpt lat="43.90538" lon="7.29032">
        <ele>1266.67</ele>
        <time>2013-02-03T11:33:04Z</time>
      </trkpt>
      <trkpt lat="43.90537" lon="7.29029">
        <ele>1267.16</ele>
        <time>2013-02-03T11:33:07Z</time>
      </trkpt>
      <trkpt lat="43.90532" lon="7.29012">
        <ele>1268.12</ele>
        <time>2013-02-03T11:33:23Z</time>
      </trkpt>
      <trkpt lat="43.90531" lon="7.29011">
        <ele>1268.12</ele>
        <time>2013-02-03T11:33:26Z</time>
      </trkpt>
      <trkpt lat="43.90523" lon="7.28994">
        <ele>1267.64</ele>
        <time>2013-02-03T11:33:41Z</time>
      </trkpt>
      <trkpt lat="43.90523" lon="7.28992">
        <ele>1267.64</ele>
        <time>2013-02-03T11:33:58Z</time>
      </trkpt>
      <trkpt lat="43.90521" lon="7.28991">
        <ele>1268.6</ele>
        <time>2013-02-03T11:34:12Z</time>
      </trkpt>
      <trkpt lat="43.90518" lon="7.28985">
        <ele>1267.64</ele>
        <time>2013-02-03T11:34:25Z</time>
      </trkpt>
      <trkpt lat="43.90498" lon="7.28953">
        <ele>1264.75</ele>
        <time>2013-02-03T11:34:35Z</time>
      </trkpt>
      <trkpt lat="43.90469" lon="7.28949">
        <ele>1264.27</ele>
        <time>2013-02-03T11:34:47Z</time>
      </trkpt>
      <trkpt lat="43.90429" lon="7.28954">
        <ele>1265.23</ele>
        <time>2013-02-03T11:35:02Z</time>
      </trkpt>
      <trkpt lat="43.90427" lon="7.28955">
        <ele>1265.71</ele>
        <time>2013-02-03T11:35:03Z</time>
      </trkpt>
      <trkpt lat="43.90398" lon="7.28932">
        <ele>1266.67</ele>
        <time>2013-02-03T11:35:19Z</time>
      </trkpt>
      <trkpt lat="43.90369" lon="7.28891">
        <ele>1266.19</ele>
        <time>2013-02-03T11:35:35Z</time>
      </trkpt>
      <trkpt lat="43.90361" lon="7.28874">
        <ele>1265.23</ele>
        <time>2013-02-03T11:35:41Z</time>
      </trkpt>
      <trkpt lat="43.90362" lon="7.28867">
        <ele>1265.71</ele>
        <time>2013-02-03T11:35:49Z</time>
      </trkpt>
      <trkpt lat="43.90361" lon="7.28866">
        <ele>1265.71</ele>
        <time>2013-02-03T11:35:51Z</time>
      </trkpt>
      <trkpt lat="43.90354" lon="7.28856">
        <ele>1266.19</ele>
        <time>2013-02-03T11:35:57Z</time>
      </trkpt>
      <trkpt lat="43.90341" lon="7.28845">
        <ele>1266.67</ele>
        <time>2013-02-03T11:36:04Z</time>
      </trkpt>
      <trkpt lat="43.90337" lon="7.28838">
        <ele>1266.67</ele>
        <time>2013-02-03T11:36:07Z</time>
      </trkpt>
      <trkpt lat="43.90321" lon="7.28827">
        <ele>1266.19</ele>
        <time>2013-02-03T11:36:19Z</time>
      </trkpt>
      <trkpt lat="43.90314" lon="7.28824">
        <ele>1263.79</ele>
        <time>2013-02-03T11:36:29Z</time>
      </trkpt>
      <trkpt lat="43.90313" lon="7.28824">
        <ele>1263.79</ele>
        <time>2013-02-03T11:36:36Z</time>
      </trkpt>
      <trkpt lat="43.90307" lon="7.28824">
        <ele>1260.91</ele>
        <time>2013-02-03T11:36:40Z</time>
      </trkpt>
      <trkpt lat="43.90276" lon="7.2879">
        <ele>1259.46</ele>
        <time>2013-02-03T11:36:51Z</time>
      </trkpt>
      <trkpt lat="43.90255" lon="7.28765">
        <ele>1261.39</ele>
        <time>2013-02-03T11:37:02Z</time>
      </trkpt>
      <trkpt lat="43.90235" lon="7.28754">
        <ele>1256.1</ele>
        <time>2013-02-03T11:37:13Z</time>
      </trkpt>
      <trkpt lat="43.90207" lon="7.28732">
        <ele>1251.29</ele>
        <time>2013-02-03T11:37:23Z</time>
      </trkpt>
      <trkpt lat="43.90201" lon="7.28727">
        <ele>1249.85</ele>
        <time>2013-02-03T11:37:31Z</time>
      </trkpt>
      <trkpt lat="43.90197" lon="7.28723">
        <ele>1249.37</ele>
        <time>2013-02-03T11:37:44Z</time>
      </trkpt>
      <trkpt lat="43.90186" lon="7.28719">
        <ele>1247.93</ele>
        <time>2013-02-03T11:37:54Z</time>
      </trkpt>
      <trkpt lat="43.90184" lon="7.28718">
        <ele>1246.97</ele>
        <time>2013-02-03T11:37:59Z</time>
      </trkpt>
      <trkpt lat="43.90177" lon="7.2871">
        <ele>1246.49</ele>
        <time>2013-02-03T11:38:04Z</time>
      </trkpt>
      <trkpt lat="43.90155" lon="7.28693">
        <ele>1243.6</ele>
        <time>2013-02-03T11:38:13Z</time>
      </trkpt>
      <trkpt lat="43.90152" lon="7.28693">
        <ele>1242.64</ele>
        <time>2013-02-03T11:38:14Z</time>
      </trkpt>
      <trkpt lat="43.90136" lon="7.2869">
        <ele>1235.91</ele>
        <time>2013-02-03T11:38:22Z</time>
      </trkpt>
      <trkpt lat="43.90132" lon="7.2869">
        <ele>1233.99</ele>
        <time>2013-02-03T11:38:24Z</time>
      </trkpt>
      <trkpt lat="43.90121" lon="7.28694">
        <ele>1229.18</ele>
        <time>2013-02-03T11:38:34Z</time>
      </trkpt>
      <trkpt lat="43.90117" lon="7.28692">
        <ele>1227.26</ele>
        <time>2013-02-03T11:38:44Z</time>
      </trkpt>
      <trkpt lat="43.90114" lon="7.28686">
        <ele>1226.3</ele>
        <time>2013-02-03T11:38:55Z</time>
      </trkpt>
      <trkpt lat="43.90111" lon="7.28678">
        <ele>1224.38</ele>
        <time>2013-02-03T11:39:08Z</time>
      </trkpt>
      <trkpt lat="43.90098" lon="7.28669">
        <ele>1219.09</ele>
        <time>2013-02-03T11:39:19Z</time>
      </trkpt>
      <trkpt lat="43.90094" lon="7.28667">
        <ele>1217.17</ele>
        <time>2013-02-03T11:39:21Z</time>
      </trkpt>
      <trkpt lat="43.90077" lon="7.28663">
        <ele>1210.44</ele>
        <time>2013-02-03T11:39:31Z</time>
      </trkpt>
      <trkpt lat="43.90057" lon="7.28652">
        <ele>1204.19</ele>
        <time>2013-02-03T11:39:40Z</time>
      </trkpt>
      <trkpt lat="43.9005" lon="7.28644">
        <ele>1201.79</ele>
        <time>2013-02-03T11:39:49Z</time>
      </trkpt>
      <trkpt lat="43.9005" lon="7.28645">
        <ele>1202.27</ele>
        <time>2013-02-03T11:40:11Z</time>
      </trkpt>
      <trkpt lat="43.9005" lon="7.28643">
        <ele>1202.27</ele>
        <time>2013-02-03T11:40:31Z</time>
      </trkpt>
      <trkpt lat="43.9005" lon="7.28643">
        <ele>1201.79</ele>
        <time>2013-02-03T11:40:59Z</time>
      </trkpt>
      <trkpt lat="43.9005" lon="7.28643">
        <ele>1202.27</ele>
        <time>2013-02-03T11:41:19Z</time>
      </trkpt>
      <trkpt lat="43.90049" lon="7.28644">
        <ele>1202.75</ele>
        <time>2013-02-03T11:41:38Z</time>
      </trkpt>
      <trkpt lat="43.90047" lon="7.28647">
        <ele>1202.75</ele>
        <time>2013-02-03T11:41:55Z</time>
      </trkpt>
      <trkpt lat="43.90045" lon="7.28645">
        <ele>1202.27</ele>
        <time>2013-02-03T11:42:12Z</time>
      </trkpt>
      <trkpt lat="43.90021" lon="7.28643">
        <ele>1199.86</ele>
        <time>2013-02-03T11:42:20Z</time>
      </trkpt>
      <trkpt lat="43.89998" lon="7.28635">
        <ele>1200.34</ele>
        <time>2013-02-03T11:42:28Z</time>
      </trkpt>
      <trkpt lat="43.89968" lon="7.2864">
        <ele>1196.5</ele>
        <time>2013-02-03T11:42:39Z</time>
      </trkpt>
      <trkpt lat="43.89944" lon="7.28635">
        <ele>1194.09</ele>
        <time>2013-02-03T11:42:44Z</time>
      </trkpt>
      <trkpt lat="43.8992" lon="7.28623">
        <ele>1193.61</ele>
        <time>2013-02-03T11:42:49Z</time>
      </trkpt>
      <trkpt lat="43.89907" lon="7.28624">
        <ele>1191.21</ele>
        <time>2013-02-03T11:42:52Z</time>
      </trkpt>
      <trkpt lat="43.89889" lon="7.28623">
        <ele>1189.29</ele>
        <time>2013-02-03T11:42:56Z</time>
      </trkpt>
      <trkpt lat="43.89876" lon="7.28624">
        <ele>1187.37</ele>
        <time>2013-02-03T11:42:59Z</time>
      </trkpt>
      <trkpt lat="43.89853" lon="7.2862">
        <ele>1185.44</ele>
        <time>2013-02-03T11:43:04Z</time>
      </trkpt>
      <trkpt lat="43.89836" lon="7.28616">
        <ele>1184.48</ele>
        <time>2013-02-03T11:43:08Z</time>
      </trkpt>
      <trkpt lat="43.89806" lon="7.28611">
        <ele>1183.04</ele>
        <time>2013-02-03T11:43:17Z</time>
      </trkpt>
      <trkpt lat="43.89778" lon="7.28609">
        <ele>1182.08</ele>
        <time>2013-02-03T11:43:24Z</time>
      </trkpt>
      <trkpt lat="43.89764" lon="7.28616">
        <ele>1179.19</ele>
        <time>2013-02-03T11:43:27Z</time>
      </trkpt>
      <trkpt lat="43.89737" lon="7.28626">
        <ele>1173.91</ele>
        <time>2013-02-03T11:43:33Z</time>
      </trkpt>
      <trkpt lat="43.89726" lon="7.28632">
        <ele>1171.98</ele>
        <time>2013-02-03T11:43:35Z</time>
      </trkpt>
      <trkpt lat="43.89706" lon="7.2864">
        <ele>1167.66</ele>
        <time>2013-02-03T11:43:39Z</time>
      </trkpt>
      <trkpt lat="43.8969" lon="7.28646">
        <ele>1165.74</ele>
        <time>2013-02-03T11:43:42Z</time>
      </trkpt>
      <trkpt lat="43.89662" lon="7.2866">
        <ele>1160.93</ele>
        <time>2013-02-03T11:43:50Z</time>
      </trkpt>
      <trkpt lat="43.89655" lon="7.28663">
        <ele>1159.97</ele>
        <time>2013-02-03T11:43:52Z</time>
      </trkpt>
      <trkpt lat="43.8965" lon="7.28664">
        <ele>1159.49</ele>
        <time>2013-02-03T11:44:02Z</time>
      </trkpt>
      <trkpt lat="43.89648" lon="7.28666">
        <ele>1158.05</ele>
        <time>2013-02-03T11:44:05Z</time>
      </trkpt>
      <trkpt lat="43.89645" lon="7.28667">
        <ele>1157.08</ele>
        <time>2013-02-03T11:44:08Z</time>
      </trkpt>
      <trkpt lat="43.89642" lon="7.28671">
        <ele>1155.64</ele>
        <time>2013-02-03T11:44:19Z</time>
      </trkpt>
      <trkpt lat="43.8964" lon="7.28673">
        <ele>1154.2</ele>
        <time>2013-02-03T11:44:21Z</time>
      </trkpt>
      <trkpt lat="43.89633" lon="7.28677">
        <ele>1152.28</ele>
        <time>2013-02-03T11:44:25Z</time>
      </trkpt>
      <trkpt lat="43.89626" lon="7.28679">
        <ele>1150.35</ele>
        <time>2013-02-03T11:44:27Z</time>
      </trkpt>
      <trkpt lat="43.89595" lon="7.28677">
        <ele>1144.59</ele>
        <time>2013-02-03T11:44:36Z</time>
      </trkpt>
      <trkpt lat="43.89591" lon="7.28677">
        <ele>1143.63</ele>
        <time>2013-02-03T11:44:37Z</time>
      </trkpt>
      <trkpt lat="43.89566" lon="7.28659">
        <ele>1140.26</ele>
        <time>2013-02-03T11:44:44Z</time>
      </trkpt>
      <trkpt lat="43.89566" lon="7.2866">
        <ele>1139.78</ele>
        <time>2013-02-03T11:44:48Z</time>
      </trkpt>
      <trkpt lat="43.89558" lon="7.28661">
        <ele>1138.82</ele>
        <time>2013-02-03T11:44:53Z</time>
      </trkpt>
      <trkpt lat="43.89549" lon="7.2866">
        <ele>1137.38</ele>
        <time>2013-02-03T11:44:57Z</time>
      </trkpt>
      <trkpt lat="43.89536" lon="7.2867">
        <ele>1133.05</ele>
        <time>2013-02-03T11:45:03Z</time>
      </trkpt>
      <trkpt lat="43.89514" lon="7.28673">
        <ele>1129.69</ele>
        <time>2013-02-03T11:45:10Z</time>
      </trkpt>
      <trkpt lat="43.89485" lon="7.28686">
        <ele>1123.44</ele>
        <time>2013-02-03T11:45:21Z</time>
      </trkpt>
      <trkpt lat="43.89484" lon="7.28689">
        <ele>1122.48</ele>
        <time>2013-02-03T11:45:31Z</time>
      </trkpt>
      <trkpt lat="43.89477" lon="7.28695">
        <ele>1121.03</ele>
        <time>2013-02-03T11:45:44Z</time>
      </trkpt>
      <trkpt lat="43.89472" lon="7.28697">
        <ele>1119.59</ele>
        <time>2013-02-03T11:45:54Z</time>
      </trkpt>
      <trkpt lat="43.89452" lon="7.28709">
        <ele>1118.63</ele>
        <time>2013-02-03T11:46:02Z</time>
      </trkpt>
      <trkpt lat="43.89442" lon="7.28714">
        <ele>1117.19</ele>
        <time>2013-02-03T11:46:12Z</time>
      </trkpt>
      <trkpt lat="43.89425" lon="7.28724">
        <ele>1114.79</ele>
        <time>2013-02-03T11:46:21Z</time>
      </trkpt>
      <trkpt lat="43.89402" lon="7.28744">
        <ele>1110.94</ele>
        <time>2013-02-03T11:46:29Z</time>
      </trkpt>
      <trkpt lat="43.89395" lon="7.28755">
        <ele>1108.06</ele>
        <time>2013-02-03T11:46:35Z</time>
      </trkpt>
      <trkpt lat="43.89376" lon="7.28774">
        <ele>1102.29</ele>
        <time>2013-02-03T11:46:46Z</time>
      </trkpt>
      <trkpt lat="43.89373" lon="7.28776">
        <ele>1101.81</ele>
        <time>2013-02-03T11:46:49Z</time>
      </trkpt>
      <trkpt lat="43.89364" lon="7.28777">
        <ele>1099.89</ele>
        <time>2013-02-03T11:47:01Z</time>
      </trkpt>
      <trkpt lat="43.89358" lon="7.28777">
        <ele>1098.92</ele>
        <time>2013-02-03T11:47:08Z</time>
      </trkpt>
      <trkpt lat="43.89356" lon="7.28775">
        <ele>1098.44</ele>
        <time>2013-02-03T11:47:11Z</time>
      </trkpt>
      <trkpt lat="43.89346" lon="7.28774">
        <ele>1097.96</ele>
        <time>2013-02-03T11:47:20Z</time>
      </trkpt>
      <trkpt lat="43.8934" lon="7.28768">
        <ele>1096.52</ele>
        <time>2013-02-03T11:47:34Z</time>
      </trkpt>
      <trkpt lat="43.89343" lon="7.28764">
        <ele>1095.56</ele>
        <time>2013-02-03T11:47:43Z</time>
      </trkpt>
      <trkpt lat="43.89344" lon="7.28757">
        <ele>1094.12</ele>
        <time>2013-02-03T11:47:50Z</time>
      </trkpt>
      <trkpt lat="43.89343" lon="7.28753">
        <ele>1094.12</ele>
        <time>2013-02-03T11:47:54Z</time>
      </trkpt>
      <trkpt lat="43.89331" lon="7.28743">
        <ele>1094.12</ele>
        <time>2013-02-03T11:48:02Z</time>
      </trkpt>
      <trkpt lat="43.89327" lon="7.2874">
        <ele>1093.64</ele>
        <time>2013-02-03T11:48:06Z</time>
      </trkpt>
      <trkpt lat="43.89319" lon="7.28736">
        <ele>1092.2</ele>
        <time>2013-02-03T11:48:19Z</time>
      </trkpt>
      <trkpt lat="43.89317" lon="7.28737">
        <ele>1091.71</ele>
        <time>2013-02-03T11:48:21Z</time>
      </trkpt>
      <trkpt lat="43.89309" lon="7.28732">
        <ele>1088.83</ele>
        <time>2013-02-03T11:48:30Z</time>
      </trkpt>
      <trkpt lat="43.89304" lon="7.28732">
        <ele>1088.35</ele>
        <time>2013-02-03T11:48:37Z</time>
      </trkpt>
      <trkpt lat="43.893" lon="7.28732">
        <ele>1087.87</ele>
        <time>2013-02-03T11:48:40Z</time>
      </trkpt>
      <trkpt lat="43.89295" lon="7.28735">
        <ele>1087.39</ele>
        <time>2013-02-03T11:48:55Z</time>
      </trkpt>
      <trkpt lat="43.89295" lon="7.28734">
        <ele>1086.43</ele>
        <time>2013-02-03T11:49:00Z</time>
      </trkpt>
      <trkpt lat="43.8929" lon="7.28731">
        <ele>1084.99</ele>
        <time>2013-02-03T11:49:03Z</time>
      </trkpt>
      <trkpt lat="43.89278" lon="7.28717">
        <ele>1081.14</ele>
        <time>2013-02-03T11:49:09Z</time>
      </trkpt>
      <trkpt lat="43.89271" lon="7.28713">
        <ele>1079.7</ele>
        <time>2013-02-03T11:49:11Z</time>
      </trkpt>
      <trkpt lat="43.89244" lon="7.28683">
        <ele>1078.74</ele>
        <time>2013-02-03T11:49:21Z</time>
      </trkpt>
      <trkpt lat="43.89238" lon="7.28673">
        <ele>1077.29</ele>
        <time>2013-02-03T11:49:24Z</time>
      </trkpt>
      <trkpt lat="43.89243" lon="7.28663">
        <ele>1077.29</ele>
        <time>2013-02-03T11:49:35Z</time>
      </trkpt>
      <trkpt lat="43.89244" lon="7.2866">
        <ele>1077.78</ele>
        <time>2013-02-03T11:49:48Z</time>
      </trkpt>
      <trkpt lat="43.89247" lon="7.28658">
        <ele>1078.74</ele>
        <time>2013-02-03T11:50:02Z</time>
      </trkpt>
      <trkpt lat="43.89247" lon="7.28658">
        <ele>1078.74</ele>
        <time>2013-02-03T11:50:04Z</time>
      </trkpt>
      <trkpt lat="43.89262" lon="7.28653">
        <ele>1076.81</ele>
        <time>2013-02-03T11:50:15Z</time>
      </trkpt>
      <trkpt lat="43.89263" lon="7.28653">
        <ele>1078.26</ele>
        <time>2013-02-03T11:50:35Z</time>
      </trkpt>
      <trkpt lat="43.89263" lon="7.28652">
        <ele>1078.74</ele>
        <time>2013-02-03T11:50:51Z</time>
      </trkpt>
      <trkpt lat="43.89263" lon="7.28652">
        <ele>1078.26</ele>
        <time>2013-02-03T11:50:55Z</time>
      </trkpt>
      <trkpt lat="43.89268" lon="7.28643">
        <ele>1074.89</ele>
        <time>2013-02-03T11:51:07Z</time>
      </trkpt>
      <trkpt lat="43.89271" lon="7.28638">
        <ele>1072.49</ele>
        <time>2013-02-03T11:51:13Z</time>
      </trkpt>
      <trkpt lat="43.89271" lon="7.28634">
        <ele>1072.01</ele>
        <time>2013-02-03T11:51:16Z</time>
      </trkpt>
      <trkpt lat="43.89274" lon="7.2863">
        <ele>1071.05</ele>
        <time>2013-02-03T11:51:20Z</time>
      </trkpt>
      <trkpt lat="43.89267" lon="7.2863">
        <ele>1067.2</ele>
        <time>2013-02-03T11:51:30Z</time>
      </trkpt>
      <trkpt lat="43.89267" lon="7.2863">
        <ele>1066.72</ele>
        <time>2013-02-03T11:51:31Z</time>
      </trkpt>
      <trkpt lat="43.89265" lon="7.28628">
        <ele>1065.76</ele>
        <time>2013-02-03T11:51:42Z</time>
      </trkpt>
      <trkpt lat="43.8927" lon="7.28617">
        <ele>1065.28</ele>
        <time>2013-02-03T11:51:52Z</time>
      </trkpt>
      <trkpt lat="43.89271" lon="7.28617">
        <ele>1064.8</ele>
        <time>2013-02-03T11:51:53Z</time>
      </trkpt>
      <trkpt lat="43.89274" lon="7.28616">
        <ele>1062.87</ele>
        <time>2013-02-03T11:51:56Z</time>
      </trkpt>
      <trkpt lat="43.8928" lon="7.28614">
        <ele>1060.47</ele>
        <time>2013-02-03T11:52:06Z</time>
      </trkpt>
      <trkpt lat="43.89281" lon="7.28614">
        <ele>1060.47</ele>
        <time>2013-02-03T11:52:07Z</time>
      </trkpt>
      <trkpt lat="43.89291" lon="7.28615">
        <ele>1057.59</ele>
        <time>2013-02-03T11:52:19Z</time>
      </trkpt>
      <trkpt lat="43.89293" lon="7.28614">
        <ele>1056.15</ele>
        <time>2013-02-03T11:52:22Z</time>
      </trkpt>
      <trkpt lat="43.89296" lon="7.28612">
        <ele>1055.67</ele>
        <time>2013-02-03T11:52:25Z</time>
      </trkpt>
      <trkpt lat="43.89296" lon="7.28608">
        <ele>1054.7</ele>
        <time>2013-02-03T11:52:28Z</time>
      </trkpt>
      <trkpt lat="43.89292" lon="7.28606">
        <ele>1052.3</ele>
        <time>2013-02-03T11:52:37Z</time>
      </trkpt>
      <trkpt lat="43.8929" lon="7.28606">
        <ele>1051.34</ele>
        <time>2013-02-03T11:52:39Z</time>
      </trkpt>
      <trkpt lat="43.89283" lon="7.28591">
        <ele>1048.45</ele>
        <time>2013-02-03T11:52:47Z</time>
      </trkpt>
      <trkpt lat="43.89282" lon="7.28589">
        <ele>1047.49</ele>
        <time>2013-02-03T11:52:49Z</time>
      </trkpt>
      <trkpt lat="43.89278" lon="7.28588">
        <ele>1046.53</ele>
        <time>2013-02-03T11:52:59Z</time>
      </trkpt>
      <trkpt lat="43.89264" lon="7.28589">
        <ele>1047.01</ele>
        <time>2013-02-03T11:53:07Z</time>
      </trkpt>
      <trkpt lat="43.89259" lon="7.28593">
        <ele>1045.09</ele>
        <time>2013-02-03T11:53:16Z</time>
      </trkpt>
      <trkpt lat="43.89256" lon="7.28591">
        <ele>1043.17</ele>
        <time>2013-02-03T11:53:23Z</time>
      </trkpt>
      <trkpt lat="43.89257" lon="7.28584">
        <ele>1040.28</ele>
        <time>2013-02-03T11:53:34Z</time>
      </trkpt>
      <trkpt lat="43.89256" lon="7.28585">
        <ele>1039.32</ele>
        <time>2013-02-03T11:53:37Z</time>
      </trkpt>
      <trkpt lat="43.89248" lon="7.28594">
        <ele>1035.48</ele>
        <time>2013-02-03T11:53:50Z</time>
      </trkpt>
      <trkpt lat="43.89243" lon="7.28596">
        <ele>1032.59</ele>
        <time>2013-02-03T11:54:02Z</time>
      </trkpt>
      <trkpt lat="43.89244" lon="7.2858">
        <ele>1031.63</ele>
        <time>2013-02-03T11:54:08Z</time>
      </trkpt>
      <trkpt lat="43.89245" lon="7.28568">
        <ele>1028.27</ele>
        <time>2013-02-03T11:54:17Z</time>
      </trkpt>
      <trkpt lat="43.89246" lon="7.28568">
        <ele>1027.79</ele>
        <time>2013-02-03T11:54:18Z</time>
      </trkpt>
      <trkpt lat="43.89244" lon="7.28564">
        <ele>1026.34</ele>
        <time>2013-02-03T11:54:26Z</time>
      </trkpt>
      <trkpt lat="43.89237" lon="7.2857">
        <ele>1020.58</ele>
        <time>2013-02-03T11:54:36Z</time>
      </trkpt>
      <trkpt lat="43.89223" lon="7.28584">
        <ele>1018.17</ele>
        <time>2013-02-03T11:54:50Z</time>
      </trkpt>
      <trkpt lat="43.89222" lon="7.28582">
        <ele>1017.21</ele>
        <time>2013-02-03T11:54:56Z</time>
      </trkpt>
      <trkpt lat="43.89227" lon="7.28577">
        <ele>1016.73</ele>
        <time>2013-02-03T11:55:03Z</time>
      </trkpt>
      <trkpt lat="43.89231" lon="7.28568">
        <ele>1015.77</ele>
        <time>2013-02-03T11:55:10Z</time>
      </trkpt>
      <trkpt lat="43.8923" lon="7.28561">
        <ele>1012.41</ele>
        <time>2013-02-03T11:55:19Z</time>
      </trkpt>
      <trkpt lat="43.8922" lon="7.28569">
        <ele>1008.56</ele>
        <time>2013-02-03T11:55:33Z</time>
      </trkpt>
      <trkpt lat="43.89209" lon="7.28569">
        <ele>1003.75</ele>
        <time>2013-02-03T11:55:48Z</time>
      </trkpt>
      <trkpt lat="43.89209" lon="7.28568">
        <ele>1003.75</ele>
        <time>2013-02-03T11:55:49Z</time>
      </trkpt>
      <trkpt lat="43.89211" lon="7.28566">
        <ele>1003.27</ele>
        <time>2013-02-03T11:55:52Z</time>
      </trkpt>
      <trkpt lat="43.89213" lon="7.28563">
        <ele>1000.87</ele>
        <time>2013-02-03T11:56:00Z</time>
      </trkpt>
      <trkpt lat="43.892" lon="7.28561">
        <ele>997.99</ele>
        <time>2013-02-03T11:56:16Z</time>
      </trkpt>
      <trkpt lat="43.89197" lon="7.2856">
        <ele>997.99</ele>
        <time>2013-02-03T11:56:20Z</time>
      </trkpt>
      <trkpt lat="43.89171" lon="7.28557">
        <ele>993.18</ele>
        <time>2013-02-03T11:56:31Z</time>
      </trkpt>
      <trkpt lat="43.89166" lon="7.28555">
        <ele>992.22</ele>
        <time>2013-02-03T11:56:33Z</time>
      </trkpt>
      <trkpt lat="43.89141" lon="7.28577">
        <ele>984.05</ele>
        <time>2013-02-03T11:56:42Z</time>
      </trkpt>
      <trkpt lat="43.89124" lon="7.28589">
        <ele>983.09</ele>
        <time>2013-02-03T11:56:47Z</time>
      </trkpt>
      <trkpt lat="43.89102" lon="7.28608">
        <ele>980.2</ele>
        <time>2013-02-03T11:56:58Z</time>
      </trkpt>
      <trkpt lat="43.891" lon="7.28609">
        <ele>979.72</ele>
        <time>2013-02-03T11:56:59Z</time>
      </trkpt>
      <trkpt lat="43.89092" lon="7.28612">
        <ele>978.28</ele>
        <time>2013-02-03T11:57:03Z</time>
      </trkpt>
      <trkpt lat="43.89081" lon="7.28623">
        <ele>974.91</ele>
        <time>2013-02-03T11:57:09Z</time>
      </trkpt>
      <trkpt lat="43.89076" lon="7.28625">
        <ele>974.91</ele>
        <time>2013-02-03T11:57:11Z</time>
      </trkpt>
      <trkpt lat="43.8907" lon="7.2863">
        <ele>974.43</ele>
        <time>2013-02-03T11:57:15Z</time>
      </trkpt>
      <trkpt lat="43.89043" lon="7.28636">
        <ele>970.59</ele>
        <time>2013-02-03T11:57:27Z</time>
      </trkpt>
      <trkpt lat="43.89039" lon="7.2864">
        <ele>969.15</ele>
        <time>2013-02-03T11:57:36Z</time>
      </trkpt>
      <trkpt lat="43.89035" lon="7.28651">
        <ele>965.78</ele>
        <time>2013-02-03T11:57:47Z</time>
      </trkpt>
      <trkpt lat="43.89029" lon="7.28656">
        <ele>964.82</ele>
        <time>2013-02-03T11:57:49Z</time>
      </trkpt>
      <trkpt lat="43.89022" lon="7.28663">
        <ele>963.38</ele>
        <time>2013-02-03T11:57:51Z</time>
      </trkpt>
      <trkpt lat="43.89007" lon="7.28673">
        <ele>961.46</ele>
        <time>2013-02-03T11:57:59Z</time>
      </trkpt>
      <trkpt lat="43.89006" lon="7.28674">
        <ele>962.42</ele>
        <time>2013-02-03T11:58:20Z</time>
      </trkpt>
      <trkpt lat="43.89002" lon="7.28675">
        <ele>963.38</ele>
        <time>2013-02-03T11:58:31Z</time>
      </trkpt>
      <trkpt lat="43.88994" lon="7.28683">
        <ele>965.3</ele>
        <time>2013-02-03T11:58:43Z</time>
      </trkpt>
      <trkpt lat="43.88989" lon="7.2869">
        <ele>966.26</ele>
        <time>2013-02-03T11:58:53Z</time>
      </trkpt>
      <trkpt lat="43.88975" lon="7.28705">
        <ele>967.22</ele>
        <time>2013-02-03T11:59:07Z</time>
      </trkpt>
      <trkpt lat="43.88955" lon="7.28722">
        <ele>966.26</ele>
        <time>2013-02-03T11:59:17Z</time>
      </trkpt>
      <trkpt lat="43.88952" lon="7.28734">
        <ele>965.3</ele>
        <time>2013-02-03T11:59:26Z</time>
      </trkpt>
      <trkpt lat="43.88952" lon="7.28737">
        <ele>964.82</ele>
        <time>2013-02-03T11:59:28Z</time>
      </trkpt>
      <trkpt lat="43.88952" lon="7.28741">
        <ele>965.3</ele>
        <time>2013-02-03T11:59:38Z</time>
      </trkpt>
      <trkpt lat="43.88954" lon="7.28741">
        <ele>964.34</ele>
        <time>2013-02-03T11:59:46Z</time>
      </trkpt>
      <trkpt lat="43.88956" lon="7.28756">
        <ele>962.42</ele>
        <time>2013-02-03T11:59:51Z</time>
      </trkpt>
      <trkpt lat="43.88954" lon="7.28806">
        <ele>951.84</ele>
        <time>2013-02-03T12:00:01Z</time>
      </trkpt>
      <trkpt lat="43.88942" lon="7.28836">
        <ele>949.44</ele>
        <time>2013-02-03T12:00:07Z</time>
      </trkpt>
      <trkpt lat="43.88929" lon="7.2884">
        <ele>947.04</ele>
        <time>2013-02-03T12:00:11Z</time>
      </trkpt>
      <trkpt lat="43.8892" lon="7.28839">
        <ele>945.11</ele>
        <time>2013-02-03T12:00:13Z</time>
      </trkpt>
      <trkpt lat="43.88872" lon="7.28825">
        <ele>938.38</ele>
        <time>2013-02-03T12:00:24Z</time>
      </trkpt>
      <trkpt lat="43.88861" lon="7.28823">
        <ele>937.9</ele>
        <time>2013-02-03T12:00:27Z</time>
      </trkpt>
      <trkpt lat="43.88833" lon="7.28824">
        <ele>937.42</ele>
        <time>2013-02-03T12:00:36Z</time>
      </trkpt>
      <trkpt lat="43.88816" lon="7.2882">
        <ele>938.38</ele>
        <time>2013-02-03T12:00:44Z</time>
      </trkpt>
      <trkpt lat="43.88799" lon="7.28831">
        <ele>939.35</ele>
        <time>2013-02-03T12:00:52Z</time>
      </trkpt>
      <trkpt lat="43.88789" lon="7.28831">
        <ele>945.59</ele>
        <time>2013-02-03T12:01:02Z</time>
      </trkpt>
      <trkpt lat="43.88764" lon="7.28829">
        <ele>941.75</ele>
        <time>2013-02-03T12:01:12Z</time>
      </trkpt>
      <trkpt lat="43.88761" lon="7.28838">
        <ele>941.75</ele>
        <time>2013-02-03T12:01:17Z</time>
      </trkpt>
      <trkpt lat="43.88773" lon="7.28877">
        <ele>937.42</ele>
        <time>2013-02-03T12:01:25Z</time>
      </trkpt>
      <trkpt lat="43.88771" lon="7.28904">
        <ele>930.21</ele>
        <time>2013-02-03T12:01:33Z</time>
      </trkpt>
      <trkpt lat="43.88767" lon="7.28906">
        <ele>929.25</ele>
        <time>2013-02-03T12:01:34Z</time>
      </trkpt>
      <trkpt lat="43.88759" lon="7.28909">
        <ele>927.33</ele>
        <time>2013-02-03T12:01:36Z</time>
      </trkpt>
      <trkpt lat="43.88742" lon="7.28909">
        <ele>926.37</ele>
        <time>2013-02-03T12:01:45Z</time>
      </trkpt>
      <trkpt lat="43.88738" lon="7.28907">
        <ele>925.41</ele>
        <time>2013-02-03T12:01:50Z</time>
      </trkpt>
      <trkpt lat="43.88734" lon="7.28904">
        <ele>926.37</ele>
        <time>2013-02-03T12:01:56Z</time>
      </trkpt>
      <trkpt lat="43.88731" lon="7.28902">
        <ele>927.81</ele>
        <time>2013-02-03T12:01:59Z</time>
      </trkpt>
      <trkpt lat="43.88727" lon="7.28928">
        <ele>927.33</ele>
        <time>2013-02-03T12:02:13Z</time>
      </trkpt>
      <trkpt lat="43.88724" lon="7.28955">
        <ele>929.25</ele>
        <time>2013-02-03T12:02:29Z</time>
      </trkpt>
      <trkpt lat="43.88723" lon="7.28969">
        <ele>934.06</ele>
        <time>2013-02-03T12:02:45Z</time>
      </trkpt>
      <trkpt lat="43.88724" lon="7.28974">
        <ele>935.5</ele>
        <time>2013-02-03T12:02:50Z</time>
      </trkpt>
      <trkpt lat="43.88726" lon="7.28982">
        <ele>935.98</ele>
        <time>2013-02-03T12:03:06Z</time>
      </trkpt>
      <trkpt lat="43.88727" lon="7.28989">
        <ele>938.38</ele>
        <time>2013-02-03T12:03:18Z</time>
      </trkpt>
      <trkpt lat="43.88725" lon="7.28997">
        <ele>943.19</ele>
        <time>2013-02-03T12:03:32Z</time>
      </trkpt>
      <trkpt lat="43.88726" lon="7.29009">
        <ele>947.52</ele>
        <time>2013-02-03T12:03:48Z</time>
      </trkpt>
      <trkpt lat="43.88725" lon="7.29019">
        <ele>949.92</ele>
        <time>2013-02-03T12:04:03Z</time>
      </trkpt>
      <trkpt lat="43.88723" lon="7.29032">
        <ele>950.88</ele>
        <time>2013-02-03T12:04:19Z</time>
      </trkpt>
      <trkpt lat="43.88726" lon="7.29048">
        <ele>954.25</ele>
        <time>2013-02-03T12:04:33Z</time>
      </trkpt>
      <trkpt lat="43.8873" lon="7.29065">
        <ele>956.17</ele>
        <time>2013-02-03T12:04:46Z</time>
      </trkpt>
      <trkpt lat="43.88732" lon="7.29086">
        <ele>961.94</ele>
        <time>2013-02-03T12:05:03Z</time>
      </trkpt>
      <trkpt lat="43.88732" lon="7.29096">
        <ele>961.94</ele>
        <time>2013-02-03T12:05:11Z</time>
      </trkpt>
      <trkpt lat="43.88733" lon="7.29117">
        <ele>961.94</ele>
        <time>2013-02-03T12:05:24Z</time>
      </trkpt>
      <trkpt lat="43.8873" lon="7.29145">
        <ele>962.9</ele>
        <time>2013-02-03T12:05:41Z</time>
      </trkpt>
      <trkpt lat="43.88724" lon="7.29165">
        <ele>964.82</ele>
        <time>2013-02-03T12:05:56Z</time>
      </trkpt>
      <trkpt lat="43.88714" lon="7.29183">
        <ele>965.3</ele>
        <time>2013-02-03T12:06:09Z</time>
      </trkpt>
      <trkpt lat="43.88704" lon="7.29192">
        <ele>964.34</ele>
        <time>2013-02-03T12:06:22Z</time>
      </trkpt>
      <trkpt lat="43.88677" lon="7.29187">
        <ele>965.3</ele>
        <time>2013-02-03T12:06:34Z</time>
      </trkpt>
      <trkpt lat="43.88646" lon="7.29166">
        <ele>964.82</ele>
        <time>2013-02-03T12:06:45Z</time>
      </trkpt>
      <trkpt lat="43.886" lon="7.29146">
        <ele>964.34</ele>
        <time>2013-02-03T12:06:59Z</time>
      </trkpt>
      <trkpt lat="43.88591" lon="7.29141">
        <ele>964.34</ele>
        <time>2013-02-03T12:07:02Z</time>
      </trkpt>
      <trkpt lat="43.88574" lon="7.29133">
        <ele>962.42</ele>
        <time>2013-02-03T12:07:06Z</time>
      </trkpt>
      <trkpt lat="43.88568" lon="7.29126">
        <ele>964.34</ele>
        <time>2013-02-03T12:07:16Z</time>
      </trkpt>
      <trkpt lat="43.88566" lon="7.29124">
        <ele>964.82</ele>
        <time>2013-02-03T12:07:18Z</time>
      </trkpt>
      <trkpt lat="43.88556" lon="7.29113">
        <ele>967.7</ele>
        <time>2013-02-03T12:07:33Z</time>
      </trkpt>
      <trkpt lat="43.88546" lon="7.29097">
        <ele>970.11</ele>
        <time>2013-02-03T12:07:50Z</time>
      </trkpt>
      <trkpt lat="43.88537" lon="7.2908">
        <ele>971.55</ele>
        <time>2013-02-03T12:08:07Z</time>
      </trkpt>
      <trkpt lat="43.88523" lon="7.29061">
        <ele>972.99</ele>
        <time>2013-02-03T12:08:25Z</time>
      </trkpt>
      <trkpt lat="43.88523" lon="7.2906">
        <ele>972.99</ele>
        <time>2013-02-03T12:08:27Z</time>
      </trkpt>
      <trkpt lat="43.88519" lon="7.29044">
        <ele>972.99</ele>
        <time>2013-02-03T12:08:33Z</time>
      </trkpt>
      <trkpt lat="43.88509" lon="7.29032">
        <ele>971.55</ele>
        <time>2013-02-03T12:08:37Z</time>
      </trkpt>
      <trkpt lat="43.88479" lon="7.2901">
        <ele>963.38</ele>
        <time>2013-02-03T12:08:45Z</time>
      </trkpt>
      <trkpt lat="43.88462" lon="7.29005">
        <ele>960.98</ele>
        <time>2013-02-03T12:08:49Z</time>
      </trkpt>
      <trkpt lat="43.88432" lon="7.28987">
        <ele>959.53</ele>
        <time>2013-02-03T12:08:59Z</time>
      </trkpt>
      <trkpt lat="43.88417" lon="7.2897">
        <ele>960.01</ele>
        <time>2013-02-03T12:09:06Z</time>
      </trkpt>
      <trkpt lat="43.8839" lon="7.28956">
        <ele>958.09</ele>
        <time>2013-02-03T12:09:16Z</time>
      </trkpt>
      <trkpt lat="43.88366" lon="7.28948">
        <ele>954.73</ele>
        <time>2013-02-03T12:09:25Z</time>
      </trkpt>
      <trkpt lat="43.88357" lon="7.28946">
        <ele>952.32</ele>
        <time>2013-02-03T12:09:34Z</time>
      </trkpt>
      <trkpt lat="43.88348" lon="7.2894">
        <ele>950.4</ele>
        <time>2013-02-03T12:09:46Z</time>
      </trkpt>
      <trkpt lat="43.88343" lon="7.28938">
        <ele>950.4</ele>
        <time>2013-02-03T12:09:57Z</time>
      </trkpt>
      <trkpt lat="43.88338" lon="7.28937">
        <ele>950.88</ele>
        <time>2013-02-03T12:10:02Z</time>
      </trkpt>
      <trkpt lat="43.88335" lon="7.28933">
        <ele>950.88</ele>
        <time>2013-02-03T12:10:11Z</time>
      </trkpt>
      <trkpt lat="43.8833" lon="7.28935">
        <ele>949.92</ele>
        <time>2013-02-03T12:10:15Z</time>
      </trkpt>
      <trkpt lat="43.88318" lon="7.28932">
        <ele>947.04</ele>
        <time>2013-02-03T12:10:20Z</time>
      </trkpt>
      <trkpt lat="43.88289" lon="7.28929">
        <ele>943.67</ele>
        <time>2013-02-03T12:10:27Z</time>
      </trkpt>
      <trkpt lat="43.88279" lon="7.28933">
        <ele>942.71</ele>
        <time>2013-02-03T12:10:32Z</time>
      </trkpt>
      <trkpt lat="43.88269" lon="7.28933">
        <ele>941.75</ele>
        <time>2013-02-03T12:10:35Z</time>
      </trkpt>
      <trkpt lat="43.88261" lon="7.28931">
        <ele>941.27</ele>
        <time>2013-02-03T12:10:37Z</time>
      </trkpt>
      <trkpt lat="43.88231" lon="7.28919">
        <ele>941.27</ele>
        <time>2013-02-03T12:10:47Z</time>
      </trkpt>
      <trkpt lat="43.88212" lon="7.28909">
        <ele>942.23</ele>
        <time>2013-02-03T12:10:57Z</time>
      </trkpt>
      <trkpt lat="43.8818" lon="7.28905">
        <ele>937.42</ele>
        <time>2013-02-03T12:11:07Z</time>
      </trkpt>
      <trkpt lat="43.88156" lon="7.28897">
        <ele>936.46</ele>
        <time>2013-02-03T12:11:14Z</time>
      </trkpt>
      <trkpt lat="43.8814" lon="7.2889">
        <ele>935.02</ele>
        <time>2013-02-03T12:11:18Z</time>
      </trkpt>
      <trkpt lat="43.88118" lon="7.28873">
        <ele>933.58</ele>
        <time>2013-02-03T12:11:25Z</time>
      </trkpt>
      <trkpt lat="43.88096" lon="7.2886">
        <ele>931.17</ele>
        <time>2013-02-03T12:11:36Z</time>
      </trkpt>
      <trkpt lat="43.88093" lon="7.28857">
        <ele>931.17</ele>
        <time>2013-02-03T12:11:37Z</time>
      </trkpt>
      <trkpt lat="43.88076" lon="7.28844">
        <ele>929.25</ele>
        <time>2013-02-03T12:11:44Z</time>
      </trkpt>
      <trkpt lat="43.88062" lon="7.28834">
        <ele>928.77</ele>
        <time>2013-02-03T12:11:50Z</time>
      </trkpt>
      <trkpt lat="43.88056" lon="7.28831">
        <ele>928.77</ele>
        <time>2013-02-03T12:11:52Z</time>
      </trkpt>
      <trkpt lat="43.88051" lon="7.28821">
        <ele>929.73</ele>
        <time>2013-02-03T12:11:56Z</time>
      </trkpt>
      <trkpt lat="43.88049" lon="7.28817">
        <ele>929.25</ele>
        <time>2013-02-03T12:12:00Z</time>
      </trkpt>
      <trkpt lat="43.88028" lon="7.28804">
        <ele>927.33</ele>
        <time>2013-02-03T12:12:11Z</time>
      </trkpt>
      <trkpt lat="43.88026" lon="7.28804">
        <ele>927.33</ele>
        <time>2013-02-03T12:12:12Z</time>
      </trkpt>
      <trkpt lat="43.88021" lon="7.28806">
        <ele>926.37</ele>
        <time>2013-02-03T12:12:23Z</time>
      </trkpt>
      <trkpt lat="43.88019" lon="7.28832">
        <ele>927.33</ele>
        <time>2013-02-03T12:12:32Z</time>
      </trkpt>
      <trkpt lat="43.87994" lon="7.28886">
        <ele>922.04</ele>
        <time>2013-02-03T12:12:42Z</time>
      </trkpt>
      <trkpt lat="43.87982" lon="7.28915">
        <ele>918.2</ele>
        <time>2013-02-03T12:12:47Z</time>
      </trkpt>
      <trkpt lat="43.87971" lon="7.28948">
        <ele>914.35</ele>
        <time>2013-02-03T12:12:54Z</time>
      </trkpt>
      <trkpt lat="43.87963" lon="7.28989">
        <ele>911.95</ele>
        <time>2013-02-03T12:13:00Z</time>
      </trkpt>
      <trkpt lat="43.87961" lon="7.29">
        <ele>911.47</ele>
        <time>2013-02-03T12:13:02Z</time>
      </trkpt>
      <trkpt lat="43.87955" lon="7.29032">
        <ele>909.54</ele>
        <time>2013-02-03T12:13:08Z</time>
      </trkpt>
      <trkpt lat="43.87935" lon="7.29062">
        <ele>909.06</ele>
        <time>2013-02-03T12:13:16Z</time>
      </trkpt>
      <trkpt lat="43.87908" lon="7.29091">
        <ele>907.14</ele>
        <time>2013-02-03T12:13:25Z</time>
      </trkpt>
      <trkpt lat="43.87862" lon="7.29115">
        <ele>907.14</ele>
        <time>2013-02-03T12:13:38Z</time>
      </trkpt>
      <trkpt lat="43.87843" lon="7.29122">
        <ele>904.74</ele>
        <time>2013-02-03T12:13:43Z</time>
      </trkpt>
      <trkpt lat="43.8782" lon="7.29132">
        <ele>901.37</ele>
        <time>2013-02-03T12:13:48Z</time>
      </trkpt>
      <trkpt lat="43.87786" lon="7.29112">
        <ele>897.05</ele>
        <time>2013-02-03T12:13:56Z</time>
      </trkpt>
      <trkpt lat="43.87774" lon="7.29089">
        <ele>893.2</ele>
        <time>2013-02-03T12:14:02Z</time>
      </trkpt>
      <trkpt lat="43.87752" lon="7.29061">
        <ele>888.4</ele>
        <time>2013-02-03T12:14:09Z</time>
      </trkpt>
      <trkpt lat="43.87741" lon="7.29049">
        <ele>885.03</ele>
        <time>2013-02-03T12:14:13Z</time>
      </trkpt>
      <trkpt lat="43.87714" lon="7.29039">
        <ele>878.3</ele>
        <time>2013-02-03T12:14:21Z</time>
      </trkpt>
      <trkpt lat="43.87688" lon="7.2903">
        <ele>872.53</ele>
        <time>2013-02-03T12:14:29Z</time>
      </trkpt>
      <trkpt lat="43.87668" lon="7.29019">
        <ele>867.73</ele>
        <time>2013-02-03T12:14:36Z</time>
      </trkpt>
      <trkpt lat="43.87668" lon="7.29022">
        <ele>867.25</ele>
        <time>2013-02-03T12:14:37Z</time>
      </trkpt>
      <trkpt lat="43.87669" lon="7.29029">
        <ele>865.8</ele>
        <time>2013-02-03T12:14:39Z</time>
      </trkpt>
      <trkpt lat="43.87676" lon="7.29047">
        <ele>862.44</ele>
        <time>2013-02-03T12:14:43Z</time>
      </trkpt>
      <trkpt lat="43.87677" lon="7.29065">
        <ele>859.08</ele>
        <time>2013-02-03T12:14:47Z</time>
      </trkpt>
      <trkpt lat="43.87659" lon="7.29082">
        <ele>850.9</ele>
        <time>2013-02-03T12:14:52Z</time>
      </trkpt>
      <trkpt lat="43.87655" lon="7.29089">
        <ele>848.02</ele>
        <time>2013-02-03T12:14:54Z</time>
      </trkpt>
      <trkpt lat="43.87647" lon="7.29101">
        <ele>840.81</ele>
        <time>2013-02-03T12:15:02Z</time>
      </trkpt>
      <trkpt lat="43.87635" lon="7.29101">
        <ele>836.48</ele>
        <time>2013-02-03T12:15:07Z</time>
      </trkpt>
      <trkpt lat="43.87633" lon="7.29079">
        <ele>833.12</ele>
        <time>2013-02-03T12:15:12Z</time>
      </trkpt>
      <trkpt lat="43.87631" lon="7.29074">
        <ele>831.68</ele>
        <time>2013-02-03T12:15:13Z</time>
      </trkpt>
      <trkpt lat="43.87608" lon="7.29062">
        <ele>824.95</ele>
        <time>2013-02-03T12:15:21Z</time>
      </trkpt>
      <trkpt lat="43.87601" lon="7.29074">
        <ele>820.14</ele>
        <time>2013-02-03T12:15:27Z</time>
      </trkpt>
      <trkpt lat="43.87598" lon="7.29074">
        <ele>819.18</ele>
        <time>2013-02-03T12:15:28Z</time>
      </trkpt>
      <trkpt lat="43.87583" lon="7.29057">
        <ele>811.97</ele>
        <time>2013-02-03T12:15:37Z</time>
      </trkpt>
      <trkpt lat="43.87563" lon="7.29035">
        <ele>807.16</ele>
        <time>2013-02-03T12:15:44Z</time>
      </trkpt>
      <trkpt lat="43.87549" lon="7.29016">
        <ele>803.8</ele>
        <time>2013-02-03T12:15:51Z</time>
      </trkpt>
      <trkpt lat="43.87542" lon="7.29008">
        <ele>802.36</ele>
        <time>2013-02-03T12:15:53Z</time>
      </trkpt>
      <trkpt lat="43.87543" lon="7.28977">
        <ele>799.47</ele>
        <time>2013-02-03T12:15:59Z</time>
      </trkpt>
      <trkpt lat="43.87539" lon="7.28948">
        <ele>795.63</ele>
        <time>2013-02-03T12:16:08Z</time>
      </trkpt>
      <trkpt lat="43.87535" lon="7.28946">
        <ele>796.59</ele>
        <time>2013-02-03T12:16:14Z</time>
      </trkpt>
      <trkpt lat="43.87533" lon="7.28945">
        <ele>796.59</ele>
        <time>2013-02-03T12:16:20Z</time>
      </trkpt>
      <trkpt lat="43.8752" lon="7.28948">
        <ele>796.11</ele>
        <time>2013-02-03T12:16:33Z</time>
      </trkpt>
      <trkpt lat="43.87518" lon="7.28947">
        <ele>795.63</ele>
        <time>2013-02-03T12:16:35Z</time>
      </trkpt>
      <trkpt lat="43.87515" lon="7.28951">
        <ele>794.19</ele>
        <time>2013-02-03T12:16:40Z</time>
      </trkpt>
      <trkpt lat="43.87507" lon="7.28959">
        <ele>793.22</ele>
        <time>2013-02-03T12:16:45Z</time>
      </trkpt>
      <trkpt lat="43.87499" lon="7.2896">
        <ele>791.78</ele>
        <time>2013-02-03T12:16:48Z</time>
      </trkpt>
      <trkpt lat="43.87482" lon="7.28973">
        <ele>793.22</ele>
        <time>2013-02-03T12:16:56Z</time>
      </trkpt>
      <trkpt lat="43.87468" lon="7.28994">
        <ele>793.22</ele>
        <time>2013-02-03T12:17:03Z</time>
      </trkpt>
      <trkpt lat="43.87449" lon="7.2901">
        <ele>791.3</ele>
        <time>2013-02-03T12:17:11Z</time>
      </trkpt>
      <trkpt lat="43.87435" lon="7.29028">
        <ele>788.9</ele>
        <time>2013-02-03T12:17:14Z</time>
      </trkpt>
      <trkpt lat="43.87421" lon="7.29059">
        <ele>786.5</ele>
        <time>2013-02-03T12:17:19Z</time>
      </trkpt>
      <trkpt lat="43.87415" lon="7.29089">
        <ele>779.29</ele>
        <time>2013-02-03T12:17:25Z</time>
      </trkpt>
      <trkpt lat="43.87413" lon="7.29131">
        <ele>767.27</ele>
        <time>2013-02-03T12:17:34Z</time>
      </trkpt>
      <trkpt lat="43.87416" lon="7.29139">
        <ele>764.39</ele>
        <time>2013-02-03T12:17:36Z</time>
      </trkpt>
      <trkpt lat="43.87413" lon="7.29166">
        <ele>756.69</ele>
        <time>2013-02-03T12:17:43Z</time>
      </trkpt>
      <trkpt lat="43.8741" lon="7.29168">
        <ele>755.25</ele>
        <time>2013-02-03T12:17:45Z</time>
      </trkpt>
      <trkpt lat="43.87404" lon="7.29171">
        <ele>753.81</ele>
        <time>2013-02-03T12:17:47Z</time>
      </trkpt>
      <trkpt lat="43.87371" lon="7.29161">
        <ele>746.6</ele>
        <time>2013-02-03T12:17:54Z</time>
      </trkpt>
      <trkpt lat="43.8736" lon="7.29144">
        <ele>742.76</ele>
        <time>2013-02-03T12:18:00Z</time>
      </trkpt>
      <trkpt lat="43.87359" lon="7.2914">
        <ele>743.24</ele>
        <time>2013-02-03T12:18:11Z</time>
      </trkpt>
      <trkpt lat="43.87352" lon="7.29132">
        <ele>741.31</ele>
        <time>2013-02-03T12:18:16Z</time>
      </trkpt>
      <trkpt lat="43.8735" lon="7.29122">
        <ele>740.35</ele>
        <time>2013-02-03T12:18:19Z</time>
      </trkpt>
      <trkpt lat="43.87344" lon="7.2911">
        <ele>739.87</ele>
        <time>2013-02-03T12:18:27Z</time>
      </trkpt>
      <trkpt lat="43.87346" lon="7.29083">
        <ele>736.99</ele>
        <time>2013-02-03T12:18:33Z</time>
      </trkpt>
      <trkpt lat="43.87351" lon="7.29053">
        <ele>736.99</ele>
        <time>2013-02-03T12:18:41Z</time>
      </trkpt>
      <trkpt lat="43.87335" lon="7.29032">
        <ele>735.07</ele>
        <time>2013-02-03T12:18:48Z</time>
      </trkpt>
      <trkpt lat="43.87312" lon="7.29004">
        <ele>732.66</ele>
        <time>2013-02-03T12:18:56Z</time>
      </trkpt>
      <trkpt lat="43.87312" lon="7.28973">
        <ele>727.37</ele>
        <time>2013-02-03T12:19:03Z</time>
      </trkpt>
      <trkpt lat="43.87308" lon="7.28962">
        <ele>722.09</ele>
        <time>2013-02-03T12:19:11Z</time>
      </trkpt>
      <trkpt lat="43.87307" lon="7.28964">
        <ele>720.16</ele>
        <time>2013-02-03T12:19:16Z</time>
      </trkpt>
      <trkpt lat="43.87304" lon="7.28976">
        <ele>712.47</ele>
        <time>2013-02-03T12:19:26Z</time>
      </trkpt>
      <trkpt lat="43.87302" lon="7.28972">
        <ele>711.03</ele>
        <time>2013-02-03T12:19:30Z</time>
      </trkpt>
      <trkpt lat="43.87296" lon="7.28964">
        <ele>709.59</ele>
        <time>2013-02-03T12:19:40Z</time>
      </trkpt>
      <trkpt lat="43.87292" lon="7.28955">
        <ele>707.67</ele>
        <time>2013-02-03T12:19:44Z</time>
      </trkpt>
      <trkpt lat="43.87285" lon="7.2893">
        <ele>706.23</ele>
        <time>2013-02-03T12:19:52Z</time>
      </trkpt>
      <trkpt lat="43.87275" lon="7.28906">
        <ele>702.38</ele>
        <time>2013-02-03T12:20:00Z</time>
      </trkpt>
      <trkpt lat="43.87273" lon="7.28919">
        <ele>698.05</ele>
        <time>2013-02-03T12:20:06Z</time>
      </trkpt>
      <trkpt lat="43.87269" lon="7.28926">
        <ele>696.13</ele>
        <time>2013-02-03T12:20:14Z</time>
      </trkpt>
      <trkpt lat="43.87268" lon="7.28927">
        <ele>697.09</ele>
        <time>2013-02-03T12:20:30Z</time>
      </trkpt>
      <trkpt lat="43.8727" lon="7.28928">
        <ele>697.09</ele>
        <time>2013-02-03T12:20:51Z</time>
      </trkpt>
      <trkpt lat="43.87268" lon="7.28929">
        <ele>696.61</ele>
        <time>2013-02-03T12:21:03Z</time>
      </trkpt>
      <trkpt lat="43.87256" lon="7.2894">
        <ele>698.05</ele>
        <time>2013-02-03T12:21:17Z</time>
      </trkpt>
      <trkpt lat="43.87251" lon="7.28943">
        <ele>699.98</ele>
        <time>2013-02-03T12:21:22Z</time>
      </trkpt>
      <trkpt lat="43.8725" lon="7.28955">
        <ele>703.82</ele>
        <time>2013-02-03T12:21:30Z</time>
      </trkpt>
      <trkpt lat="43.87239" lon="7.28968">
        <ele>704.78</ele>
        <time>2013-02-03T12:21:42Z</time>
      </trkpt>
      <trkpt lat="43.87218" lon="7.28987">
        <ele>704.3</ele>
        <time>2013-02-03T12:21:51Z</time>
      </trkpt>
      <trkpt lat="43.87206" lon="7.28975">
        <ele>705.75</ele>
        <time>2013-02-03T12:21:58Z</time>
      </trkpt>
      <trkpt lat="43.87198" lon="7.28973">
        <ele>703.82</ele>
        <time>2013-02-03T12:22:11Z</time>
      </trkpt>
      <trkpt lat="43.87193" lon="7.2897">
        <ele>702.38</ele>
        <time>2013-02-03T12:22:20Z</time>
      </trkpt>
      <trkpt lat="43.87187" lon="7.28973">
        <ele>700.46</ele>
        <time>2013-02-03T12:22:25Z</time>
      </trkpt>
      <trkpt lat="43.87185" lon="7.28978">
        <ele>697.57</ele>
        <time>2013-02-03T12:22:40Z</time>
      </trkpt>
      <trkpt lat="43.87182" lon="7.28982">
        <ele>695.65</ele>
        <time>2013-02-03T12:22:57Z</time>
      </trkpt>
      <trkpt lat="43.87181" lon="7.28983">
        <ele>695.65</ele>
        <time>2013-02-03T12:22:58Z</time>
      </trkpt>
      <trkpt lat="43.87185" lon="7.28985">
        <ele>692.77</ele>
        <time>2013-02-03T12:23:06Z</time>
      </trkpt>
      <trkpt lat="43.87188" lon="7.28986">
        <ele>690.36</ele>
        <time>2013-02-03T12:23:13Z</time>
      </trkpt>
      <trkpt lat="43.87189" lon="7.2899">
        <ele>689.4</ele>
        <time>2013-02-03T12:23:17Z</time>
      </trkpt>
      <trkpt lat="43.87193" lon="7.28995">
        <ele>688.92</ele>
        <time>2013-02-03T12:23:23Z</time>
      </trkpt>
      <trkpt lat="43.87194" lon="7.28999">
        <ele>688.44</ele>
        <time>2013-02-03T12:23:29Z</time>
      </trkpt>
      <trkpt lat="43.87194" lon="7.29001">
        <ele>688.44</ele>
        <time>2013-02-03T12:23:31Z</time>
      </trkpt>
      <trkpt lat="43.87205" lon="7.29031">
        <ele>692.77</ele>
        <time>2013-02-03T12:23:41Z</time>
      </trkpt>
      <trkpt lat="43.87199" lon="7.29045">
        <ele>692.29</ele>
        <time>2013-02-03T12:23:47Z</time>
      </trkpt>
      <trkpt lat="43.87195" lon="7.29052">
        <ele>691.81</ele>
        <time>2013-02-03T12:23:49Z</time>
      </trkpt>
      <trkpt lat="43.8719" lon="7.29063">
        <ele>691.81</ele>
        <time>2013-02-03T12:23:52Z</time>
      </trkpt>
      <trkpt lat="43.87179" lon="7.29095">
        <ele>692.77</ele>
        <time>2013-02-03T12:23:59Z</time>
      </trkpt>
      <trkpt lat="43.87166" lon="7.29108">
        <ele>691.81</ele>
        <time>2013-02-03T12:24:03Z</time>
      </trkpt>
      <trkpt lat="43.87136" lon="7.29096">
        <ele>692.29</ele>
        <time>2013-02-03T12:24:13Z</time>
      </trkpt>
      <trkpt lat="43.8713" lon="7.29094">
        <ele>693.25</ele>
        <time>2013-02-03T12:24:16Z</time>
      </trkpt>
      <trkpt lat="43.87121" lon="7.29088">
        <ele>692.29</ele>
        <time>2013-02-03T12:24:26Z</time>
      </trkpt>
      <trkpt lat="43.87118" lon="7.29086">
        <ele>691.33</ele>
        <time>2013-02-03T12:24:30Z</time>
      </trkpt>
      <trkpt lat="43.87113" lon="7.29086">
        <ele>690.36</ele>
        <time>2013-02-03T12:24:33Z</time>
      </trkpt>
      <trkpt lat="43.87108" lon="7.29082">
        <ele>689.4</ele>
        <time>2013-02-03T12:24:37Z</time>
      </trkpt>
      <trkpt lat="43.87103" lon="7.29081">
        <ele>689.4</ele>
        <time>2013-02-03T12:24:41Z</time>
      </trkpt>
      <trkpt lat="43.87097" lon="7.29095">
        <ele>689.88</ele>
        <time>2013-02-03T12:24:50Z</time>
      </trkpt>
      <trkpt lat="43.87096" lon="7.291">
        <ele>690.36</ele>
        <time>2013-02-03T12:24:53Z</time>
      </trkpt>
      <trkpt lat="43.87103" lon="7.29133">
        <ele>690.84</ele>
        <time>2013-02-03T12:25:03Z</time>
      </trkpt>
      <trkpt lat="43.87092" lon="7.29154">
        <ele>690.36</ele>
        <time>2013-02-03T12:25:08Z</time>
      </trkpt>
      <trkpt lat="43.87079" lon="7.29177">
        <ele>688.92</ele>
        <time>2013-02-03T12:25:14Z</time>
      </trkpt>
      <trkpt lat="43.87077" lon="7.29181">
        <ele>688.92</ele>
        <time>2013-02-03T12:25:16Z</time>
      </trkpt>
      <trkpt lat="43.87074" lon="7.292">
        <ele>689.4</ele>
        <time>2013-02-03T12:25:21Z</time>
      </trkpt>
      <trkpt lat="43.87067" lon="7.29226">
        <ele>688.92</ele>
        <time>2013-02-03T12:25:26Z</time>
      </trkpt>
      <trkpt lat="43.87058" lon="7.29247">
        <ele>688.92</ele>
        <time>2013-02-03T12:25:30Z</time>
      </trkpt>
      <trkpt lat="43.87045" lon="7.29276">
        <ele>688.44</ele>
        <time>2013-02-03T12:25:36Z</time>
      </trkpt>
      <trkpt lat="43.87028" lon="7.29317">
        <ele>687.96</ele>
        <time>2013-02-03T12:25:45Z</time>
      </trkpt>
      <trkpt lat="43.87018" lon="7.29335">
        <ele>687.96</ele>
        <time>2013-02-03T12:25:50Z</time>
      </trkpt>
      <trkpt lat="43.87008" lon="7.29359">
        <ele>688.92</ele>
        <time>2013-02-03T12:26:00Z</time>
      </trkpt>
      <trkpt lat="43.87005" lon="7.29391">
        <ele>692.77</ele>
        <time>2013-02-03T12:26:07Z</time>
      </trkpt>
      <trkpt lat="43.86999" lon="7.29412">
        <ele>694.69</ele>
        <time>2013-02-03T12:26:13Z</time>
      </trkpt>
      <trkpt lat="43.86993" lon="7.29426">
        <ele>696.13</ele>
        <time>2013-02-03T12:26:23Z</time>
      </trkpt>
      <trkpt lat="43.86993" lon="7.29427">
        <ele>695.17</ele>
        <time>2013-02-03T12:26:32Z</time>
      </trkpt>
      <trkpt lat="43.86992" lon="7.29431">
        <ele>694.21</ele>
        <time>2013-02-03T12:26:35Z</time>
      </trkpt>
      <trkpt lat="43.86984" lon="7.29452">
        <ele>696.61</ele>
        <time>2013-02-03T12:26:51Z</time>
      </trkpt>
      <trkpt lat="43.86981" lon="7.29459">
        <ele>697.09</ele>
        <time>2013-02-03T12:26:57Z</time>
      </trkpt>
      <trkpt lat="43.86976" lon="7.29467">
        <ele>698.05</ele>
        <time>2013-02-03T12:27:10Z</time>
      </trkpt>
      <trkpt lat="43.8697" lon="7.29482">
        <ele>699.5</ele>
        <time>2013-02-03T12:27:24Z</time>
      </trkpt>
      <trkpt lat="43.8697" lon="7.29482">
        <ele>699.02</ele>
        <time>2013-02-03T12:27:40Z</time>
      </trkpt>
      <trkpt lat="43.86971" lon="7.29482">
        <ele>699.98</ele>
        <time>2013-02-03T12:28:06Z</time>
      </trkpt>
      <trkpt lat="43.86967" lon="7.29482">
        <ele>699.5</ele>
        <time>2013-02-03T12:28:18Z</time>
      </trkpt>
      <trkpt lat="43.8696" lon="7.29482">
        <ele>698.05</ele>
        <time>2013-02-03T12:28:22Z</time>
      </trkpt>
      <trkpt lat="43.86943" lon="7.29454">
        <ele>693.25</ele>
        <time>2013-02-03T12:28:29Z</time>
      </trkpt>
      <trkpt lat="43.86928" lon="7.29435">
        <ele>690.36</ele>
        <time>2013-02-03T12:28:33Z</time>
      </trkpt>
      <trkpt lat="43.8689" lon="7.29409">
        <ele>684.12</ele>
        <time>2013-02-03T12:28:40Z</time>
      </trkpt>
      <trkpt lat="43.86869" lon="7.29386">
        <ele>680.27</ele>
        <time>2013-02-03T12:28:44Z</time>
      </trkpt>
      <trkpt lat="43.86849" lon="7.29341">
        <ele>675.46</ele>
        <time>2013-02-03T12:28:49Z</time>
      </trkpt>
      <trkpt lat="43.86835" lon="7.29316">
        <ele>672.1</ele>
        <time>2013-02-03T12:28:54Z</time>
      </trkpt>
      <trkpt lat="43.86822" lon="7.29279">
        <ele>671.62</ele>
        <time>2013-02-03T12:29:02Z</time>
      </trkpt>
      <trkpt lat="43.8681" lon="7.29251">
        <ele>670.18</ele>
        <time>2013-02-03T12:29:07Z</time>
      </trkpt>
      <trkpt lat="43.86783" lon="7.29224">
        <ele>667.77</ele>
        <time>2013-02-03T12:29:13Z</time>
      </trkpt>
      <trkpt lat="43.86752" lon="7.2919">
        <ele>664.89</ele>
        <time>2013-02-03T12:29:19Z</time>
      </trkpt>
      <trkpt lat="43.86726" lon="7.2918">
        <ele>662.49</ele>
        <time>2013-02-03T12:29:23Z</time>
      </trkpt>
      <trkpt lat="43.86709" lon="7.29177">
        <ele>659.6</ele>
        <time>2013-02-03T12:29:26Z</time>
      </trkpt>
      <trkpt lat="43.86687" lon="7.29175">
        <ele>655.28</ele>
        <time>2013-02-03T12:29:31Z</time>
      </trkpt>
      <trkpt lat="43.86654" lon="7.2917">
        <ele>650.47</ele>
        <time>2013-02-03T12:29:39Z</time>
      </trkpt>
      <trkpt lat="43.86653" lon="7.29163">
        <ele>650.47</ele>
        <time>2013-02-03T12:29:40Z</time>
      </trkpt>
      <trkpt lat="43.86653" lon="7.29131">
        <ele>649.99</ele>
        <time>2013-02-03T12:29:45Z</time>
      </trkpt>
      <trkpt lat="43.86627" lon="7.291">
        <ele>645.66</ele>
        <time>2013-02-03T12:29:51Z</time>
      </trkpt>
      <trkpt lat="43.86586" lon="7.29101">
        <ele>641.82</ele>
        <time>2013-02-03T12:29:56Z</time>
      </trkpt>
      <trkpt lat="43.86557" lon="7.29136">
        <ele>637.49</ele>
        <time>2013-02-03T12:30:01Z</time>
      </trkpt>
      <trkpt lat="43.86537" lon="7.29185">
        <ele>633.17</ele>
        <time>2013-02-03T12:30:05Z</time>
      </trkpt>
      <trkpt lat="43.86513" lon="7.29197">
        <ele>628.84</ele>
        <time>2013-02-03T12:30:09Z</time>
      </trkpt>
      <trkpt lat="43.86497" lon="7.29215">
        <ele>626.44</ele>
        <time>2013-02-03T12:30:14Z</time>
      </trkpt>
      <trkpt lat="43.86503" lon="7.29244">
        <ele>623.55</ele>
        <time>2013-02-03T12:30:18Z</time>
      </trkpt>
      <trkpt lat="43.86502" lon="7.293">
        <ele>620.19</ele>
        <time>2013-02-03T12:30:25Z</time>
      </trkpt>
      <trkpt lat="43.86508" lon="7.2929">
        <ele>620.67</ele>
        <time>2013-02-03T12:30:32Z</time>
      </trkpt>
      <trkpt lat="43.86507" lon="7.29291">
        <ele>620.19</ele>
        <time>2013-02-03T12:30:50Z</time>
      </trkpt>
      <trkpt lat="43.86507" lon="7.29293">
        <ele>619.23</ele>
        <time>2013-02-03T12:31:32Z</time>
      </trkpt>
      <trkpt lat="43.8651" lon="7.29293">
        <ele>619.23</ele>
        <time>2013-02-03T12:32:14Z</time>
      </trkpt>
      <trkpt lat="43.86508" lon="7.29299">
        <ele>621.63</ele>
        <time>2013-02-03T12:32:28Z</time>
      </trkpt>
      <trkpt lat="43.86507" lon="7.29301">
        <ele>622.11</ele>
        <time>2013-02-03T12:32:39Z</time>
      </trkpt>
      <trkpt lat="43.86504" lon="7.29304">
        <ele>622.11</ele>
        <time>2013-02-03T12:32:46Z</time>
      </trkpt>
      <trkpt lat="43.86509" lon="7.29316">
        <ele>621.63</ele>
        <time>2013-02-03T12:32:51Z</time>
      </trkpt>
      <trkpt lat="43.86524" lon="7.29343">
        <ele>621.63</ele>
        <time>2013-02-03T12:33:01Z</time>
      </trkpt>
      <trkpt lat="43.86522" lon="7.29352">
        <ele>621.63</ele>
        <time>2013-02-03T12:33:05Z</time>
      </trkpt>
      <trkpt lat="43.865" lon="7.29381">
        <ele>624.51</ele>
        <time>2013-02-03T12:33:19Z</time>
      </trkpt>
      <trkpt lat="43.86499" lon="7.29383">
        <ele>624.51</ele>
        <time>2013-02-03T12:33:20Z</time>
      </trkpt>
      <trkpt lat="43.86504" lon="7.29394">
        <ele>624.03</ele>
        <time>2013-02-03T12:33:32Z</time>
      </trkpt>
      <trkpt lat="43.865" lon="7.29393">
        <ele>624.51</ele>
        <time>2013-02-03T12:33:40Z</time>
      </trkpt>
      <trkpt lat="43.86494" lon="7.29396">
        <ele>624.99</ele>
        <time>2013-02-03T12:33:44Z</time>
      </trkpt>
      <trkpt lat="43.86474" lon="7.29428">
        <ele>627.88</ele>
        <time>2013-02-03T12:33:59Z</time>
      </trkpt>
      <trkpt lat="43.86472" lon="7.29432">
        <ele>629.32</ele>
        <time>2013-02-03T12:34:01Z</time>
      </trkpt>
      <trkpt lat="43.86469" lon="7.29438">
        <ele>631.24</ele>
        <time>2013-02-03T12:34:05Z</time>
      </trkpt>
      <trkpt lat="43.86462" lon="7.29454">
        <ele>632.2</ele>
        <time>2013-02-03T12:34:21Z</time>
      </trkpt>
      <trkpt lat="43.86461" lon="7.29454">
        <ele>633.17</ele>
        <time>2013-02-03T12:34:29Z</time>
      </trkpt>
      <trkpt lat="43.86466" lon="7.29463">
        <ele>633.17</ele>
        <time>2013-02-03T12:34:33Z</time>
      </trkpt>
      <trkpt lat="43.86476" lon="7.29479">
        <ele>631.72</ele>
        <time>2013-02-03T12:34:36Z</time>
      </trkpt>
      <trkpt lat="43.86488" lon="7.29502">
        <ele>627.4</ele>
        <time>2013-02-03T12:34:40Z</time>
      </trkpt>
      <trkpt lat="43.86493" lon="7.29513">
        <ele>624.99</ele>
        <time>2013-02-03T12:34:42Z</time>
      </trkpt>
      <trkpt lat="43.86498" lon="7.29533">
        <ele>619.71</ele>
        <time>2013-02-03T12:34:46Z</time>
      </trkpt>
      <trkpt lat="43.86516" lon="7.29558">
        <ele>611.54</ele>
        <time>2013-02-03T12:34:52Z</time>
      </trkpt>
      <trkpt lat="43.86531" lon="7.29595">
        <ele>603.85</ele>
        <time>2013-02-03T12:34:59Z</time>
      </trkpt>
      <trkpt lat="43.86532" lon="7.29609">
        <ele>599.52</ele>
        <time>2013-02-03T12:35:06Z</time>
      </trkpt>
      <trkpt lat="43.86532" lon="7.2961">
        <ele>599.04</ele>
        <time>2013-02-03T12:35:07Z</time>
      </trkpt>
      <trkpt lat="43.86529" lon="7.29616">
        <ele>598.08</ele>
        <time>2013-02-03T12:35:11Z</time>
      </trkpt>
      <trkpt lat="43.86521" lon="7.29631">
        <ele>595.19</ele>
        <time>2013-02-03T12:35:17Z</time>
      </trkpt>
      <trkpt lat="43.86529" lon="7.29644">
        <ele>592.79</ele>
        <time>2013-02-03T12:35:21Z</time>
      </trkpt>
      <trkpt lat="43.86538" lon="7.29654">
        <ele>588.46</ele>
        <time>2013-02-03T12:35:26Z</time>
      </trkpt>
      <trkpt lat="43.8655" lon="7.29673">
        <ele>581.25</ele>
        <time>2013-02-03T12:35:33Z</time>
      </trkpt>
      <trkpt lat="43.8655" lon="7.29691">
        <ele>572.12</ele>
        <time>2013-02-03T12:35:41Z</time>
      </trkpt>
      <trkpt lat="43.8655" lon="7.29693">
        <ele>571.64</ele>
        <time>2013-02-03T12:35:42Z</time>
      </trkpt>
      <trkpt lat="43.86554" lon="7.29704">
        <ele>570.2</ele>
        <time>2013-02-03T12:35:46Z</time>
      </trkpt>
      <trkpt lat="43.86554" lon="7.29716">
        <ele>571.64</ele>
        <time>2013-02-03T12:35:56Z</time>
      </trkpt>
      <trkpt lat="43.86552" lon="7.29731">
        <ele>569.24</ele>
        <time>2013-02-03T12:36:00Z</time>
      </trkpt>
      <trkpt lat="43.86551" lon="7.29743">
        <ele>567.8</ele>
        <time>2013-02-03T12:36:02Z</time>
      </trkpt>
      <trkpt lat="43.86548" lon="7.29764">
        <ele>563.95</ele>
        <time>2013-02-03T12:36:07Z</time>
      </trkpt>
      <trkpt lat="43.86546" lon="7.29766">
        <ele>562.03</ele>
        <time>2013-02-03T12:36:09Z</time>
      </trkpt>
      <trkpt lat="43.86548" lon="7.29766">
        <ele>561.07</ele>
        <time>2013-02-03T12:36:12Z</time>
      </trkpt>
      <trkpt lat="43.86549" lon="7.2977">
        <ele>560.59</ele>
        <time>2013-02-03T12:36:15Z</time>
      </trkpt>
      <trkpt lat="43.86537" lon="7.29773">
        <ele>557.22</ele>
        <time>2013-02-03T12:36:23Z</time>
      </trkpt>
      <trkpt lat="43.86536" lon="7.29776">
        <ele>556.26</ele>
        <time>2013-02-03T12:36:26Z</time>
      </trkpt>
      <trkpt lat="43.86541" lon="7.29796">
        <ele>553.86</ele>
        <time>2013-02-03T12:36:36Z</time>
      </trkpt>
      <trkpt lat="43.86542" lon="7.29803">
        <ele>552.9</ele>
        <time>2013-02-03T12:36:38Z</time>
      </trkpt>
      <trkpt lat="43.86541" lon="7.29837">
        <ele>546.65</ele>
        <time>2013-02-03T12:36:49Z</time>
      </trkpt>
      <trkpt lat="43.86542" lon="7.29844">
        <ele>545.2</ele>
        <time>2013-02-03T12:36:51Z</time>
      </trkpt>
      <trkpt lat="43.86547" lon="7.2986">
        <ele>542.32</ele>
        <time>2013-02-03T12:36:55Z</time>
      </trkpt>
      <trkpt lat="43.86546" lon="7.29879">
        <ele>535.59</ele>
        <time>2013-02-03T12:37:03Z</time>
      </trkpt>
      <trkpt lat="43.86548" lon="7.29883">
        <ele>533.67</ele>
        <time>2013-02-03T12:37:07Z</time>
      </trkpt>
      <trkpt lat="43.86549" lon="7.29897">
        <ele>530.3</ele>
        <time>2013-02-03T12:37:14Z</time>
      </trkpt>
      <trkpt lat="43.8655" lon="7.29905">
        <ele>527.9</ele>
        <time>2013-02-03T12:37:23Z</time>
      </trkpt>
      <trkpt lat="43.86549" lon="7.29912">
        <ele>528.86</ele>
        <time>2013-02-03T12:37:29Z</time>
      </trkpt>
      <trkpt lat="43.86552" lon="7.2992">
        <ele>527.42</ele>
        <time>2013-02-03T12:37:43Z</time>
      </trkpt>
      <trkpt lat="43.86554" lon="7.29925">
        <ele>527.42</ele>
        <time>2013-02-03T12:38:01Z</time>
      </trkpt>
      <trkpt lat="43.86557" lon="7.29927">
        <ele>531.27</ele>
        <time>2013-02-03T12:38:25Z</time>
      </trkpt>
      <trkpt lat="43.86557" lon="7.29926">
        <ele>531.75</ele>
        <time>2013-02-03T12:38:57Z</time>
      </trkpt>
      <trkpt lat="43.86555" lon="7.29927">
        <ele>530.79</ele>
        <time>2013-02-03T12:39:12Z</time>
      </trkpt>
      <trkpt lat="43.86554" lon="7.29931">
        <ele>530.3</ele>
        <time>2013-02-03T12:39:24Z</time>
      </trkpt>
      <trkpt lat="43.86552" lon="7.29952">
        <ele>528.86</ele>
        <time>2013-02-03T12:39:29Z</time>
      </trkpt>
      <trkpt lat="43.86545" lon="7.29968">
        <ele>525.98</ele>
        <time>2013-02-03T12:39:33Z</time>
      </trkpt>
      <trkpt lat="43.86538" lon="7.29968">
        <ele>525.02</ele>
        <time>2013-02-03T12:39:36Z</time>
      </trkpt>
      <trkpt lat="43.86521" lon="7.29989">
        <ele>520.69</ele>
        <time>2013-02-03T12:39:42Z</time>
      </trkpt>
      <trkpt lat="43.86514" lon="7.30021">
        <ele>514.44</ele>
        <time>2013-02-03T12:39:49Z</time>
      </trkpt>
      <trkpt lat="43.86506" lon="7.30085">
        <ele>507.71</ele>
        <time>2013-02-03T12:39:57Z</time>
      </trkpt>
      <trkpt lat="43.86504" lon="7.30108">
        <ele>506.27</ele>
        <time>2013-02-03T12:40:00Z</time>
      </trkpt>
      <trkpt lat="43.86505" lon="7.30121">
        <ele>504.83</ele>
        <time>2013-02-03T12:40:02Z</time>
      </trkpt>
      <trkpt lat="43.86486" lon="7.30155">
        <ele>496.66</ele>
        <time>2013-02-03T12:40:09Z</time>
      </trkpt>
      <trkpt lat="43.86471" lon="7.30172">
        <ele>492.33</ele>
        <time>2013-02-03T12:40:12Z</time>
      </trkpt>
      <trkpt lat="43.86463" lon="7.30181">
        <ele>489.93</ele>
        <time>2013-02-03T12:40:14Z</time>
      </trkpt>
      <trkpt lat="43.86448" lon="7.30198">
        <ele>485.12</ele>
        <time>2013-02-03T12:40:18Z</time>
      </trkpt>
      <trkpt lat="43.86439" lon="7.30205">
        <ele>482.72</ele>
        <time>2013-02-03T12:40:20Z</time>
      </trkpt>
      <trkpt lat="43.86427" lon="7.30221">
        <ele>478.39</ele>
        <time>2013-02-03T12:40:28Z</time>
      </trkpt>
      <trkpt lat="43.86428" lon="7.30219">
        <ele>479.84</ele>
        <time>2013-02-03T12:40:32Z</time>
      </trkpt>
      <trkpt lat="43.86431" lon="7.30216">
        <ele>481.28</ele>
        <time>2013-02-03T12:40:36Z</time>
      </trkpt>
      <trkpt lat="43.86429" lon="7.30212">
        <ele>480.8</ele>
        <time>2013-02-03T12:40:42Z</time>
      </trkpt>
      <trkpt lat="43.86416" lon="7.30218">
        <ele>478.87</ele>
        <time>2013-02-03T12:40:51Z</time>
      </trkpt>
      <trkpt lat="43.86415" lon="7.30218">
        <ele>478.87</ele>
        <time>2013-02-03T12:40:55Z</time>
      </trkpt>
      <trkpt lat="43.8641" lon="7.30224">
        <ele>476.95</ele>
        <time>2013-02-03T12:40:59Z</time>
      </trkpt>
      <trkpt lat="43.86397" lon="7.30221">
        <ele>474.07</ele>
        <time>2013-02-03T12:41:05Z</time>
      </trkpt>
      <trkpt lat="43.86387" lon="7.30223">
        <ele>470.7</ele>
        <time>2013-02-03T12:41:08Z</time>
      </trkpt>
      <trkpt lat="43.86386" lon="7.30245">
        <ele>468.78</ele>
        <time>2013-02-03T12:41:17Z</time>
      </trkpt>
      <trkpt lat="43.86406" lon="7.30272">
        <ele>470.7</ele>
        <time>2013-02-03T12:41:29Z</time>
      </trkpt>
      <trkpt lat="43.86433" lon="7.30273">
        <ele>470.7</ele>
        <time>2013-02-03T12:41:36Z</time>
      </trkpt>
      <trkpt lat="43.86467" lon="7.30254">
        <ele>468.3</ele>
        <time>2013-02-03T12:41:42Z</time>
      </trkpt>
      <trkpt lat="43.86481" lon="7.30232">
        <ele>467.34</ele>
        <time>2013-02-03T12:41:45Z</time>
      </trkpt>
      <trkpt lat="43.86503" lon="7.30236">
        <ele>465.9</ele>
        <time>2013-02-03T12:41:50Z</time>
      </trkpt>
      <trkpt lat="43.86506" lon="7.30253">
        <ele>465.42</ele>
        <time>2013-02-03T12:41:52Z</time>
      </trkpt>
      <trkpt lat="43.86511" lon="7.30271">
        <ele>464.93</ele>
        <time>2013-02-03T12:41:54Z</time>
      </trkpt>
      <trkpt lat="43.86522" lon="7.30325">
        <ele>463.01</ele>
        <time>2013-02-03T12:42:00Z</time>
      </trkpt>
      <trkpt lat="43.86558" lon="7.30343">
        <ele>460.61</ele>
        <time>2013-02-03T12:42:05Z</time>
      </trkpt>
      <trkpt lat="43.86603" lon="7.30357">
        <ele>457.72</ele>
        <time>2013-02-03T12:42:11Z</time>
      </trkpt>
      <trkpt lat="43.86624" lon="7.30348">
        <ele>455.32</ele>
        <time>2013-02-03T12:42:15Z</time>
      </trkpt>
      <trkpt lat="43.86611" lon="7.30374">
        <ele>452.44</ele>
        <time>2013-02-03T12:42:20Z</time>
      </trkpt>
      <trkpt lat="43.8661" lon="7.30396">
        <ele>448.59</ele>
        <time>2013-02-03T12:42:26Z</time>
      </trkpt>
      <trkpt lat="43.86619" lon="7.30389">
        <ele>446.67</ele>
        <time>2013-02-03T12:42:28Z</time>
      </trkpt>
      <trkpt lat="43.86629" lon="7.30378">
        <ele>444.75</ele>
        <time>2013-02-03T12:42:30Z</time>
      </trkpt>
      <trkpt lat="43.86637" lon="7.30366">
        <ele>442.82</ele>
        <time>2013-02-03T12:42:32Z</time>
      </trkpt>
      <trkpt lat="43.86653" lon="7.30371">
        <ele>438.02</ele>
        <time>2013-02-03T12:42:37Z</time>
      </trkpt>
      <trkpt lat="43.86642" lon="7.30393">
        <ele>436.1</ele>
        <time>2013-02-03T12:42:40Z</time>
      </trkpt>
      <trkpt lat="43.86636" lon="7.30455">
        <ele>428.89</ele>
        <time>2013-02-03T12:42:46Z</time>
      </trkpt>
      <trkpt lat="43.86623" lon="7.30488">
        <ele>424.08</ele>
        <time>2013-02-03T12:42:52Z</time>
      </trkpt>
      <trkpt lat="43.86609" lon="7.30493">
        <ele>425.04</ele>
        <time>2013-02-03T12:42:55Z</time>
      </trkpt>
      <trkpt lat="43.86582" lon="7.3049">
        <ele>429.85</ele>
        <time>2013-02-03T12:43:05Z</time>
      </trkpt>
      <trkpt lat="43.86564" lon="7.305">
        <ele>435.13</ele>
        <time>2013-02-03T12:43:19Z</time>
      </trkpt>
      <trkpt lat="43.86562" lon="7.30503">
        <ele>435.13</ele>
        <time>2013-02-03T12:43:21Z</time>
      </trkpt>
      <trkpt lat="43.86549" lon="7.30522">
        <ele>437.54</ele>
        <time>2013-02-03T12:43:35Z</time>
      </trkpt>
      <trkpt lat="43.86532" lon="7.30544">
        <ele>438.5</ele>
        <time>2013-02-03T12:43:50Z</time>
      </trkpt>
      <trkpt lat="43.86505" lon="7.30571">
        <ele>440.9</ele>
        <time>2013-02-03T12:44:09Z</time>
      </trkpt>
      <trkpt lat="43.86481" lon="7.30604">
        <ele>441.38</ele>
        <time>2013-02-03T12:44:24Z</time>
      </trkpt>
      <trkpt lat="43.86448" lon="7.30634">
        <ele>442.82</ele>
        <time>2013-02-03T12:44:41Z</time>
      </trkpt>
      <trkpt lat="43.86436" lon="7.30673">
        <ele>444.27</ele>
        <time>2013-02-03T12:44:55Z</time>
      </trkpt>
      <trkpt lat="43.86454" lon="7.30721">
        <ele>447.63</ele>
        <time>2013-02-03T12:45:12Z</time>
      </trkpt>
      <trkpt lat="43.86466" lon="7.30768">
        <ele>448.11</ele>
        <time>2013-02-03T12:45:26Z</time>
      </trkpt>
      <trkpt lat="43.86448" lon="7.30813">
        <ele>448.11</ele>
        <time>2013-02-03T12:45:37Z</time>
      </trkpt>
      <trkpt lat="43.86423" lon="7.3082">
        <ele>451</ele>
        <time>2013-02-03T12:45:49Z</time>
      </trkpt>
      <trkpt lat="43.86404" lon="7.30821">
        <ele>456.28</ele>
        <time>2013-02-03T12:46:02Z</time>
      </trkpt>
      <trkpt lat="43.86375" lon="7.30839">
        <ele>458.69</ele>
        <time>2013-02-03T12:46:20Z</time>
      </trkpt>
      <trkpt lat="43.86353" lon="7.30863">
        <ele>458.69</ele>
        <time>2013-02-03T12:46:34Z</time>
      </trkpt>
      <trkpt lat="43.8635" lon="7.30876">
        <ele>459.17</ele>
        <time>2013-02-03T12:46:39Z</time>
      </trkpt>
      <trkpt lat="43.86352" lon="7.30889">
        <ele>458.21</ele>
        <time>2013-02-03T12:46:43Z</time>
      </trkpt>
      <trkpt lat="43.86357" lon="7.30943">
        <ele>457.24</ele>
        <time>2013-02-03T12:46:58Z</time>
      </trkpt>
      <trkpt lat="43.86352" lon="7.30975">
        <ele>460.13</ele>
        <time>2013-02-03T12:47:10Z</time>
      </trkpt>
      <trkpt lat="43.86327" lon="7.30966">
        <ele>463.49</ele>
        <time>2013-02-03T12:47:23Z</time>
      </trkpt>
      <trkpt lat="43.86322" lon="7.30962">
        <ele>464.45</ele>
        <time>2013-02-03T12:47:26Z</time>
      </trkpt>
      <trkpt lat="43.86291" lon="7.30963">
        <ele>466.86</ele>
        <time>2013-02-03T12:47:44Z</time>
      </trkpt>
      <trkpt lat="43.86274" lon="7.30977">
        <ele>470.22</ele>
        <time>2013-02-03T12:47:59Z</time>
      </trkpt>
      <trkpt lat="43.86265" lon="7.30988">
        <ele>471.18</ele>
        <time>2013-02-03T12:48:13Z</time>
      </trkpt>
      <trkpt lat="43.86254" lon="7.31009">
        <ele>471.66</ele>
        <time>2013-02-03T12:48:25Z</time>
      </trkpt>
      <trkpt lat="43.86253" lon="7.31013">
        <ele>471.66</ele>
        <time>2013-02-03T12:48:27Z</time>
      </trkpt>
      <trkpt lat="43.86241" lon="7.31041">
        <ele>472.14</ele>
        <time>2013-02-03T12:48:42Z</time>
      </trkpt>
      <trkpt lat="43.86223" lon="7.31053">
        <ele>473.59</ele>
        <time>2013-02-03T12:48:55Z</time>
      </trkpt>
      <trkpt lat="43.86207" lon="7.3106">
        <ele>475.51</ele>
        <time>2013-02-03T12:49:05Z</time>
      </trkpt>
      <trkpt lat="43.86205" lon="7.31067">
        <ele>476.47</ele>
        <time>2013-02-03T12:49:19Z</time>
      </trkpt>
      <trkpt lat="43.86204" lon="7.31067">
        <ele>476.47</ele>
        <time>2013-02-03T12:49:20Z</time>
      </trkpt>
      <trkpt lat="43.86197" lon="7.3106">
        <ele>477.91</ele>
        <time>2013-02-03T12:49:34Z</time>
      </trkpt>
      <trkpt lat="43.86202" lon="7.31063">
        <ele>478.39</ele>
        <time>2013-02-03T12:49:47Z</time>
      </trkpt>
      <trkpt lat="43.86203" lon="7.31061">
        <ele>475.51</ele>
        <time>2013-02-03T12:50:06Z</time>
      </trkpt>
      <trkpt lat="43.86201" lon="7.31058">
        <ele>474.55</ele>
        <time>2013-02-03T12:50:36Z</time>
      </trkpt>
      <trkpt lat="43.862" lon="7.31059">
        <ele>476.95</ele>
        <time>2013-02-03T12:51:15Z</time>
      </trkpt>
      <trkpt lat="43.86201" lon="7.31061">
        <ele>476.95</ele>
        <time>2013-02-03T12:51:51Z</time>
      </trkpt>
      <trkpt lat="43.86201" lon="7.31063">
        <ele>476.95</ele>
        <time>2013-02-03T12:52:15Z</time>
      </trkpt>
      <trkpt lat="43.86217" lon="7.31072">
        <ele>478.87</ele>
        <time>2013-02-03T12:52:27Z</time>
      </trkpt>
      <trkpt lat="43.86232" lon="7.31096">
        <ele>480.8</ele>
        <time>2013-02-03T12:52:42Z</time>
      </trkpt>
      <trkpt lat="43.86233" lon="7.31098">
        <ele>480.8</ele>
        <time>2013-02-03T12:52:43Z</time>
      </trkpt>
      <trkpt lat="43.86231" lon="7.31119">
        <ele>483.2</ele>
        <time>2013-02-03T12:52:54Z</time>
      </trkpt>
      <trkpt lat="43.86224" lon="7.31123">
        <ele>485.12</ele>
        <time>2013-02-03T12:53:00Z</time>
      </trkpt>
      <trkpt lat="43.86203" lon="7.31146">
        <ele>487.05</ele>
        <time>2013-02-03T12:53:17Z</time>
      </trkpt>
      <trkpt lat="43.86196" lon="7.31151">
        <ele>488.49</ele>
        <time>2013-02-03T12:53:26Z</time>
      </trkpt>
      <trkpt lat="43.86192" lon="7.31158">
        <ele>489.45</ele>
        <time>2013-02-03T12:53:32Z</time>
      </trkpt>
      <trkpt lat="43.86187" lon="7.31174">
        <ele>494.26</ele>
        <time>2013-02-03T12:53:47Z</time>
      </trkpt>
      <trkpt lat="43.86182" lon="7.31191">
        <ele>497.14</ele>
        <time>2013-02-03T12:54:02Z</time>
      </trkpt>
      <trkpt lat="43.86173" lon="7.31214">
        <ele>498.58</ele>
        <time>2013-02-03T12:54:18Z</time>
      </trkpt>
      <trkpt lat="43.86163" lon="7.31243">
        <ele>496.66</ele>
        <time>2013-02-03T12:54:31Z</time>
      </trkpt>
      <trkpt lat="43.86165" lon="7.3129">
        <ele>497.14</ele>
        <time>2013-02-03T12:54:44Z</time>
      </trkpt>
      <trkpt lat="43.86158" lon="7.31329">
        <ele>499.06</ele>
        <time>2013-02-03T12:54:56Z</time>
      </trkpt>
      <trkpt lat="43.86157" lon="7.31335">
        <ele>499.06</ele>
        <time>2013-02-03T12:54:57Z</time>
      </trkpt>
      <trkpt lat="43.86137" lon="7.3137">
        <ele>499.54</ele>
        <time>2013-02-03T12:55:07Z</time>
      </trkpt>
      <trkpt lat="43.86147" lon="7.31388">
        <ele>500.5</ele>
        <time>2013-02-03T12:55:15Z</time>
      </trkpt>
      <trkpt lat="43.86143" lon="7.31402">
        <ele>500.98</ele>
        <time>2013-02-03T12:55:20Z</time>
      </trkpt>
      <trkpt lat="43.86138" lon="7.31409">
        <ele>500.5</ele>
        <time>2013-02-03T12:55:22Z</time>
      </trkpt>
      <trkpt lat="43.86136" lon="7.31421">
        <ele>500.02</ele>
        <time>2013-02-03T12:55:26Z</time>
      </trkpt>
      <trkpt lat="43.86134" lon="7.31429">
        <ele>501.46</ele>
        <time>2013-02-03T12:55:33Z</time>
      </trkpt>
      <trkpt lat="43.86132" lon="7.31431">
        <ele>502.43</ele>
        <time>2013-02-03T12:55:35Z</time>
      </trkpt>
      <trkpt lat="43.86128" lon="7.31431">
        <ele>502.91</ele>
        <time>2013-02-03T12:55:44Z</time>
      </trkpt>
      <trkpt lat="43.86117" lon="7.31435">
        <ele>504.83</ele>
        <time>2013-02-03T12:55:55Z</time>
      </trkpt>
      <trkpt lat="43.86116" lon="7.31437">
        <ele>503.87</ele>
        <time>2013-02-03T12:55:59Z</time>
      </trkpt>
      <trkpt lat="43.86104" lon="7.31436">
        <ele>501.95</ele>
        <time>2013-02-03T12:56:05Z</time>
      </trkpt>
      <trkpt lat="43.8608" lon="7.31464">
        <ele>500.02</ele>
        <time>2013-02-03T12:56:15Z</time>
      </trkpt>
      <trkpt lat="43.86072" lon="7.31484">
        <ele>500.98</ele>
        <time>2013-02-03T12:56:21Z</time>
      </trkpt>
      <trkpt lat="43.86055" lon="7.31486">
        <ele>501.46</ele>
        <time>2013-02-03T12:56:29Z</time>
      </trkpt>
      <trkpt lat="43.86051" lon="7.31488">
        <ele>502.43</ele>
        <time>2013-02-03T12:56:34Z</time>
      </trkpt>
      <trkpt lat="43.86046" lon="7.31498">
        <ele>504.35</ele>
        <time>2013-02-03T12:56:44Z</time>
      </trkpt>
      <trkpt lat="43.86037" lon="7.31501">
        <ele>506.75</ele>
        <time>2013-02-03T12:56:54Z</time>
      </trkpt>
      <trkpt lat="43.8603" lon="7.315">
        <ele>510.6</ele>
        <time>2013-02-03T12:57:04Z</time>
      </trkpt>
      <trkpt lat="43.86022" lon="7.31504">
        <ele>513</ele>
        <time>2013-02-03T12:57:18Z</time>
      </trkpt>
      <trkpt lat="43.8602" lon="7.31522">
        <ele>515.4</ele>
        <time>2013-02-03T12:57:31Z</time>
      </trkpt>
      <trkpt lat="43.86016" lon="7.31522">
        <ele>518.77</ele>
        <time>2013-02-03T12:57:42Z</time>
      </trkpt>
      <trkpt lat="43.86012" lon="7.31515">
        <ele>519.73</ele>
        <time>2013-02-03T12:57:49Z</time>
      </trkpt>
      <trkpt lat="43.8601" lon="7.31524">
        <ele>521.17</ele>
        <time>2013-02-03T12:58:02Z</time>
      </trkpt>
      <trkpt lat="43.86013" lon="7.31539">
        <ele>522.13</ele>
        <time>2013-02-03T12:58:18Z</time>
      </trkpt>
      <trkpt lat="43.86016" lon="7.31551">
        <ele>523.58</ele>
        <time>2013-02-03T12:58:31Z</time>
      </trkpt>
      <trkpt lat="43.86013" lon="7.31557">
        <ele>525.5</ele>
        <time>2013-02-03T12:58:41Z</time>
      </trkpt>
      <trkpt lat="43.86005" lon="7.3156">
        <ele>527.9</ele>
        <time>2013-02-03T12:58:53Z</time>
      </trkpt>
      <trkpt lat="43.86005" lon="7.31561">
        <ele>528.38</ele>
        <time>2013-02-03T12:58:54Z</time>
      </trkpt>
      <trkpt lat="43.86" lon="7.31575">
        <ele>532.71</ele>
        <time>2013-02-03T12:59:09Z</time>
      </trkpt>
      <trkpt lat="43.85992" lon="7.31585">
        <ele>536.55</ele>
        <time>2013-02-03T12:59:22Z</time>
      </trkpt>
      <trkpt lat="43.85991" lon="7.31587">
        <ele>537.51</ele>
        <time>2013-02-03T12:59:27Z</time>
      </trkpt>
      <trkpt lat="43.85984" lon="7.31594">
        <ele>538.96</ele>
        <time>2013-02-03T12:59:38Z</time>
      </trkpt>
      <trkpt lat="43.85976" lon="7.31598">
        <ele>540.88</ele>
        <time>2013-02-03T12:59:52Z</time>
      </trkpt>
      <trkpt lat="43.85971" lon="7.31598">
        <ele>541.84</ele>
        <time>2013-02-03T13:00:01Z</time>
      </trkpt>
      <trkpt lat="43.85967" lon="7.31589">
        <ele>544.72</ele>
        <time>2013-02-03T13:00:14Z</time>
      </trkpt>
      <trkpt lat="43.85957" lon="7.31597">
        <ele>545.69</ele>
        <time>2013-02-03T13:00:28Z</time>
      </trkpt>
      <trkpt lat="43.85954" lon="7.31604">
        <ele>546.65</ele>
        <time>2013-02-03T13:00:40Z</time>
      </trkpt>
      <trkpt lat="43.85953" lon="7.31611">
        <ele>547.61</ele>
        <time>2013-02-03T13:00:47Z</time>
      </trkpt>
      <trkpt lat="43.85944" lon="7.31629">
        <ele>550.01</ele>
        <time>2013-02-03T13:01:05Z</time>
      </trkpt>
      <trkpt lat="43.85937" lon="7.31643">
        <ele>553.38</ele>
        <time>2013-02-03T13:01:19Z</time>
      </trkpt>
      <trkpt lat="43.8593" lon="7.3165">
        <ele>557.7</ele>
        <time>2013-02-03T13:01:35Z</time>
      </trkpt>
      <trkpt lat="43.85928" lon="7.31652">
        <ele>561.55</ele>
        <time>2013-02-03T13:01:45Z</time>
      </trkpt>
      <trkpt lat="43.85929" lon="7.31661">
        <ele>562.03</ele>
        <time>2013-02-03T13:01:57Z</time>
      </trkpt>
      <trkpt lat="43.8593" lon="7.31673">
        <ele>565.39</ele>
        <time>2013-02-03T13:02:10Z</time>
      </trkpt>
      <trkpt lat="43.85925" lon="7.31675">
        <ele>568.28</ele>
        <time>2013-02-03T13:02:22Z</time>
      </trkpt>
      <trkpt lat="43.85925" lon="7.31674">
        <ele>567.8</ele>
        <time>2013-02-03T13:02:23Z</time>
      </trkpt>
      <trkpt lat="43.85918" lon="7.31672">
        <ele>567.8</ele>
        <time>2013-02-03T13:02:29Z</time>
      </trkpt>
      <trkpt lat="43.8591" lon="7.31677">
        <ele>569.72</ele>
        <time>2013-02-03T13:02:44Z</time>
      </trkpt>
      <trkpt lat="43.8591" lon="7.31679">
        <ele>570.68</ele>
        <time>2013-02-03T13:02:50Z</time>
      </trkpt>
      <trkpt lat="43.85904" lon="7.31685">
        <ele>571.16</ele>
        <time>2013-02-03T13:03:02Z</time>
      </trkpt>
      <trkpt lat="43.85899" lon="7.31686">
        <ele>572.6</ele>
        <time>2013-02-03T13:03:08Z</time>
      </trkpt>
      <trkpt lat="43.85894" lon="7.31697">
        <ele>575.01</ele>
        <time>2013-02-03T13:03:22Z</time>
      </trkpt>
      <trkpt lat="43.85891" lon="7.31707">
        <ele>576.93</ele>
        <time>2013-02-03T13:03:35Z</time>
      </trkpt>
      <trkpt lat="43.85895" lon="7.31721">
        <ele>579.81</ele>
        <time>2013-02-03T13:03:49Z</time>
      </trkpt>
      <trkpt lat="43.85891" lon="7.31719">
        <ele>584.14</ele>
        <time>2013-02-03T13:04:01Z</time>
      </trkpt>
      <trkpt lat="43.85879" lon="7.31719">
        <ele>584.14</ele>
        <time>2013-02-03T13:04:15Z</time>
      </trkpt>
      <trkpt lat="43.85873" lon="7.31719">
        <ele>584.14</ele>
        <time>2013-02-03T13:04:23Z</time>
      </trkpt>
      <trkpt lat="43.85862" lon="7.31722">
        <ele>583.66</ele>
        <time>2013-02-03T13:04:37Z</time>
      </trkpt>
      <trkpt lat="43.85859" lon="7.31726">
        <ele>583.18</ele>
        <time>2013-02-03T13:04:42Z</time>
      </trkpt>
      <trkpt lat="43.85866" lon="7.3173">
        <ele>583.66</ele>
        <time>2013-02-03T13:04:52Z</time>
      </trkpt>
      <trkpt lat="43.85852" lon="7.31734">
        <ele>583.66</ele>
        <time>2013-02-03T13:05:04Z</time>
      </trkpt>
      <trkpt lat="43.85852" lon="7.31738">
        <ele>583.66</ele>
        <time>2013-02-03T13:05:07Z</time>
      </trkpt>
      <trkpt lat="43.85856" lon="7.31748">
        <ele>583.18</ele>
        <time>2013-02-03T13:05:21Z</time>
      </trkpt>
      <trkpt lat="43.85858" lon="7.31749">
        <ele>583.18</ele>
        <time>2013-02-03T13:05:30Z</time>
      </trkpt>
      <trkpt lat="43.85861" lon="7.31754">
        <ele>585.58</ele>
        <time>2013-02-03T13:05:42Z</time>
      </trkpt>
      <trkpt lat="43.85863" lon="7.31755">
        <ele>585.58</ele>
        <time>2013-02-03T13:05:47Z</time>
      </trkpt>
      <trkpt lat="43.85866" lon="7.31759">
        <ele>586.54</ele>
        <time>2013-02-03T13:05:56Z</time>
      </trkpt>
      <trkpt lat="43.85865" lon="7.31758">
        <ele>586.54</ele>
        <time>2013-02-03T13:05:57Z</time>
      </trkpt>
      <trkpt lat="43.85856" lon="7.31759">
        <ele>587.98</ele>
        <time>2013-02-03T13:06:09Z</time>
      </trkpt>
      <trkpt lat="43.85857" lon="7.31763">
        <ele>588.95</ele>
        <time>2013-02-03T13:06:27Z</time>
      </trkpt>
      <trkpt lat="43.8586" lon="7.31767">
        <ele>593.75</ele>
        <time>2013-02-03T13:06:41Z</time>
      </trkpt>
      <trkpt lat="43.85865" lon="7.31766">
        <ele>593.27</ele>
        <time>2013-02-03T13:07:03Z</time>
      </trkpt>
      <trkpt lat="43.85865" lon="7.31767">
        <ele>595.67</ele>
        <time>2013-02-03T13:07:35Z</time>
      </trkpt>
      <trkpt lat="43.85866" lon="7.31768">
        <ele>596.15</ele>
        <time>2013-02-03T13:07:42Z</time>
      </trkpt>
      <trkpt lat="43.85871" lon="7.31777">
        <ele>598.56</ele>
        <time>2013-02-03T13:07:54Z</time>
      </trkpt>
      <trkpt lat="43.85876" lon="7.31782">
        <ele>599.52</ele>
        <time>2013-02-03T13:08:01Z</time>
      </trkpt>
      <trkpt lat="43.85883" lon="7.31793">
        <ele>601.44</ele>
        <time>2013-02-03T13:08:12Z</time>
      </trkpt>
      <trkpt lat="43.85886" lon="7.31799">
        <ele>602.4</ele>
        <time>2013-02-03T13:08:17Z</time>
      </trkpt>
      <trkpt lat="43.85888" lon="7.318">
        <ele>603.36</ele>
        <time>2013-02-03T13:08:19Z</time>
      </trkpt>
      <trkpt lat="43.85894" lon="7.31802">
        <ele>604.81</ele>
        <time>2013-02-03T13:08:32Z</time>
      </trkpt>
      <trkpt lat="43.85899" lon="7.31803">
        <ele>605.29</ele>
        <time>2013-02-03T13:08:44Z</time>
      </trkpt>
      <trkpt lat="43.85902" lon="7.31804">
        <ele>606.25</ele>
        <time>2013-02-03T13:08:55Z</time>
      </trkpt>
      <trkpt lat="43.85903" lon="7.31809">
        <ele>608.17</ele>
        <time>2013-02-03T13:09:09Z</time>
      </trkpt>
      <trkpt lat="43.85904" lon="7.31809">
        <ele>608.65</ele>
        <time>2013-02-03T13:09:12Z</time>
      </trkpt>
      <trkpt lat="43.85909" lon="7.31809">
        <ele>609.13</ele>
        <time>2013-02-03T13:09:17Z</time>
      </trkpt>
      <trkpt lat="43.85917" lon="7.31809">
        <ele>609.13</ele>
        <time>2013-02-03T13:09:23Z</time>
      </trkpt>
      <trkpt lat="43.85926" lon="7.31814">
        <ele>609.61</ele>
        <time>2013-02-03T13:09:31Z</time>
      </trkpt>
      <trkpt lat="43.85932" lon="7.31821">
        <ele>609.61</ele>
        <time>2013-02-03T13:09:42Z</time>
      </trkpt>
      <trkpt lat="43.85933" lon="7.31822">
        <ele>609.61</ele>
        <time>2013-02-03T13:09:43Z</time>
      </trkpt>
      <trkpt lat="43.85944" lon="7.31827">
        <ele>611.54</ele>
        <time>2013-02-03T13:09:51Z</time>
      </trkpt>
      <trkpt lat="43.85956" lon="7.3184">
        <ele>613.94</ele>
        <time>2013-02-03T13:10:04Z</time>
      </trkpt>
      <trkpt lat="43.85963" lon="7.31853">
        <ele>614.42</ele>
        <time>2013-02-03T13:10:16Z</time>
      </trkpt>
      <trkpt lat="43.85971" lon="7.31865">
        <ele>618.75</ele>
        <time>2013-02-03T13:10:30Z</time>
      </trkpt>
      <trkpt lat="43.85976" lon="7.31877">
        <ele>620.19</ele>
        <time>2013-02-03T13:10:40Z</time>
      </trkpt>
      <trkpt lat="43.8598" lon="7.31886">
        <ele>621.63</ele>
        <time>2013-02-03T13:10:48Z</time>
      </trkpt>
      <trkpt lat="43.8599" lon="7.31895">
        <ele>623.55</ele>
        <time>2013-02-03T13:11:00Z</time>
      </trkpt>
      <trkpt lat="43.85994" lon="7.31898">
        <ele>624.03</ele>
        <time>2013-02-03T13:11:07Z</time>
      </trkpt>
      <trkpt lat="43.86003" lon="7.31911">
        <ele>625.96</ele>
        <time>2013-02-03T13:11:22Z</time>
      </trkpt>
      <trkpt lat="43.86014" lon="7.31927">
        <ele>626.92</ele>
        <time>2013-02-03T13:11:38Z</time>
      </trkpt>
      <trkpt lat="43.86018" lon="7.31946">
        <ele>628.36</ele>
        <time>2013-02-03T13:11:53Z</time>
      </trkpt>
      <trkpt lat="43.86021" lon="7.31952">
        <ele>628.84</ele>
        <time>2013-02-03T13:11:58Z</time>
      </trkpt>
      <trkpt lat="43.86024" lon="7.3196">
        <ele>628.84</ele>
        <time>2013-02-03T13:12:04Z</time>
      </trkpt>
      <trkpt lat="43.86026" lon="7.31966">
        <ele>630.28</ele>
        <time>2013-02-03T13:12:09Z</time>
      </trkpt>
      <trkpt lat="43.86023" lon="7.31976">
        <ele>631.72</ele>
        <time>2013-02-03T13:12:20Z</time>
      </trkpt>
      <trkpt lat="43.86022" lon="7.31983">
        <ele>633.17</ele>
        <time>2013-02-03T13:12:30Z</time>
      </trkpt>
      <trkpt lat="43.86021" lon="7.31992">
        <ele>635.09</ele>
        <time>2013-02-03T13:12:37Z</time>
      </trkpt>
      <trkpt lat="43.86021" lon="7.32004">
        <ele>637.01</ele>
        <time>2013-02-03T13:12:50Z</time>
      </trkpt>
      <trkpt lat="43.8602" lon="7.32009">
        <ele>638.45</ele>
        <time>2013-02-03T13:13:05Z</time>
      </trkpt>
      <trkpt lat="43.86017" lon="7.32015">
        <ele>638.93</ele>
        <time>2013-02-03T13:13:19Z</time>
      </trkpt>
      <trkpt lat="43.86017" lon="7.32023">
        <ele>642.3</ele>
        <time>2013-02-03T13:13:32Z</time>
      </trkpt>
      <trkpt lat="43.86012" lon="7.32028">
        <ele>645.18</ele>
        <time>2013-02-03T13:13:45Z</time>
      </trkpt>
      <trkpt lat="43.8601" lon="7.32035">
        <ele>647.59</ele>
        <time>2013-02-03T13:13:58Z</time>
      </trkpt>
      <trkpt lat="43.86011" lon="7.32043">
        <ele>649.03</ele>
        <time>2013-02-03T13:14:08Z</time>
      </trkpt>
      <trkpt lat="43.86023" lon="7.32055">
        <ele>647.1</ele>
        <time>2013-02-03T13:14:20Z</time>
      </trkpt>
      <trkpt lat="43.86025" lon="7.32065">
        <ele>646.62</ele>
        <time>2013-02-03T13:14:36Z</time>
      </trkpt>
      <trkpt lat="43.86027" lon="7.32066">
        <ele>643.74</ele>
        <time>2013-02-03T13:15:08Z</time>
      </trkpt>
      <trkpt lat="43.86026" lon="7.32067">
        <ele>647.1</ele>
        <time>2013-02-03T13:15:47Z</time>
      </trkpt>
      <trkpt lat="43.86027" lon="7.32067">
        <ele>645.66</ele>
        <time>2013-02-03T13:16:33Z</time>
      </trkpt>
      <trkpt lat="43.86028" lon="7.32067">
        <ele>642.3</ele>
        <time>2013-02-03T13:17:08Z</time>
      </trkpt>
      <trkpt lat="43.86028" lon="7.32068">
        <ele>644.22</ele>
        <time>2013-02-03T13:17:46Z</time>
      </trkpt>
      <trkpt lat="43.8603" lon="7.32069">
        <ele>642.78</ele>
        <time>2013-02-03T13:18:28Z</time>
      </trkpt>
      <trkpt lat="43.8603" lon="7.32072">
        <ele>642.78</ele>
        <time>2013-02-03T13:18:56Z</time>
      </trkpt>
      <trkpt lat="43.86032" lon="7.32074">
        <ele>638.93</ele>
        <time>2013-02-03T13:19:27Z</time>
      </trkpt>
      <trkpt lat="43.86031" lon="7.32073">
        <ele>638.45</ele>
        <time>2013-02-03T13:19:52Z</time>
      </trkpt>
      <trkpt lat="43.86029" lon="7.32071">
        <ele>637.97</ele>
        <time>2013-02-03T13:20:04Z</time>
      </trkpt>
      <trkpt lat="43.86025" lon="7.32067">
        <ele>641.82</ele>
        <time>2013-02-03T13:20:18Z</time>
      </trkpt>
      <trkpt lat="43.8602" lon="7.32065">
        <ele>642.78</ele>
        <time>2013-02-03T13:20:41Z</time>
      </trkpt>
      <trkpt lat="43.86012" lon="7.32067">
        <ele>640.86</ele>
        <time>2013-02-03T13:20:44Z</time>
      </trkpt>
      <trkpt lat="43.85997" lon="7.32086">
        <ele>636.05</ele>
        <time>2013-02-03T13:20:50Z</time>
      </trkpt>
      <trkpt lat="43.85984" lon="7.321">
        <ele>634.61</ele>
        <time>2013-02-03T13:20:54Z</time>
      </trkpt>
      <trkpt lat="43.85956" lon="7.3211">
        <ele>631.72</ele>
        <time>2013-02-03T13:21:02Z</time>
      </trkpt>
      <trkpt lat="43.85949" lon="7.32114">
        <ele>630.76</ele>
        <time>2013-02-03T13:21:04Z</time>
      </trkpt>
      <trkpt lat="43.85928" lon="7.32123">
        <ele>627.88</ele>
        <time>2013-02-03T13:21:10Z</time>
      </trkpt>
      <trkpt lat="43.85917" lon="7.3213">
        <ele>624.99</ele>
        <time>2013-02-03T13:21:14Z</time>
      </trkpt>
      <trkpt lat="43.85895" lon="7.32146">
        <ele>619.71</ele>
        <time>2013-02-03T13:21:22Z</time>
      </trkpt>
      <trkpt lat="43.85891" lon="7.32154">
        <ele>617.78</ele>
        <time>2013-02-03T13:21:24Z</time>
      </trkpt>
      <trkpt lat="43.8588" lon="7.32164">
        <ele>613.94</ele>
        <time>2013-02-03T13:21:29Z</time>
      </trkpt>
      <trkpt lat="43.8586" lon="7.32173">
        <ele>608.17</ele>
        <time>2013-02-03T13:21:37Z</time>
      </trkpt>
      <trkpt lat="43.85849" lon="7.32173">
        <ele>604.33</ele>
        <time>2013-02-03T13:21:45Z</time>
      </trkpt>
      <trkpt lat="43.85847" lon="7.32175">
        <ele>603.36</ele>
        <time>2013-02-03T13:21:47Z</time>
      </trkpt>
      <trkpt lat="43.85815" lon="7.32174">
        <ele>598.08</ele>
        <time>2013-02-03T13:21:57Z</time>
      </trkpt>
      <trkpt lat="43.85804" lon="7.32171">
        <ele>599.04</ele>
        <time>2013-02-03T13:22:00Z</time>
      </trkpt>
      <trkpt lat="43.85775" lon="7.32187">
        <ele>598.56</ele>
        <time>2013-02-03T13:22:07Z</time>
      </trkpt>
      <trkpt lat="43.85763" lon="7.32194">
        <ele>597.6</ele>
        <time>2013-02-03T13:22:10Z</time>
      </trkpt>
      <trkpt lat="43.85753" lon="7.32195">
        <ele>597.12</ele>
        <time>2013-02-03T13:22:12Z</time>
      </trkpt>
      <trkpt lat="43.85723" lon="7.32186">
        <ele>593.27</ele>
        <time>2013-02-03T13:22:20Z</time>
      </trkpt>
      <trkpt lat="43.85721" lon="7.32188">
        <ele>592.79</ele>
        <time>2013-02-03T13:22:21Z</time>
      </trkpt>
      <trkpt lat="43.85698" lon="7.32213">
        <ele>593.27</ele>
        <time>2013-02-03T13:22:31Z</time>
      </trkpt>
      <trkpt lat="43.85677" lon="7.32231">
        <ele>591.35</ele>
        <time>2013-02-03T13:22:40Z</time>
      </trkpt>
      <trkpt lat="43.85665" lon="7.32251">
        <ele>587.5</ele>
        <time>2013-02-03T13:22:44Z</time>
      </trkpt>
      <trkpt lat="43.85629" lon="7.32259">
        <ele>580.29</ele>
        <time>2013-02-03T13:22:52Z</time>
      </trkpt>
      <trkpt lat="43.85624" lon="7.3225">
        <ele>578.37</ele>
        <time>2013-02-03T13:22:54Z</time>
      </trkpt>
      <trkpt lat="43.85615" lon="7.32215">
        <ele>573.56</ele>
        <time>2013-02-03T13:23:02Z</time>
      </trkpt>
      <trkpt lat="43.85598" lon="7.32237">
        <ele>576.45</ele>
        <time>2013-02-03T13:23:11Z</time>
      </trkpt>
      <trkpt lat="43.85585" lon="7.32254">
        <ele>578.85</ele>
        <time>2013-02-03T13:23:19Z</time>
      </trkpt>
      <trkpt lat="43.85579" lon="7.3227">
        <ele>578.37</ele>
        <time>2013-02-03T13:23:23Z</time>
      </trkpt>
      <trkpt lat="43.85557" lon="7.32276">
        <ele>574.53</ele>
        <time>2013-02-03T13:23:31Z</time>
      </trkpt>
      <trkpt lat="43.85543" lon="7.32275">
        <ele>570.68</ele>
        <time>2013-02-03T13:23:38Z</time>
      </trkpt>
      <trkpt lat="43.8554" lon="7.32276">
        <ele>570.2</ele>
        <time>2013-02-03T13:23:39Z</time>
      </trkpt>
      <trkpt lat="43.85533" lon="7.32282">
        <ele>569.24</ele>
        <time>2013-02-03T13:23:41Z</time>
      </trkpt>
      <trkpt lat="43.85512" lon="7.32292">
        <ele>567.32</ele>
        <time>2013-02-03T13:23:48Z</time>
      </trkpt>
      <trkpt lat="43.8551" lon="7.32294">
        <ele>567.32</ele>
        <time>2013-02-03T13:23:49Z</time>
      </trkpt>
      <trkpt lat="43.85498" lon="7.32306">
        <ele>568.76</ele>
        <time>2013-02-03T13:23:54Z</time>
      </trkpt>
      <trkpt lat="43.85487" lon="7.32328">
        <ele>569.24</ele>
        <time>2013-02-03T13:24:01Z</time>
      </trkpt>
      <trkpt lat="43.85475" lon="7.32348">
        <ele>567.8</ele>
        <time>2013-02-03T13:24:06Z</time>
      </trkpt>
      <trkpt lat="43.85474" lon="7.32397">
        <ele>568.28</ele>
        <time>2013-02-03T13:24:17Z</time>
      </trkpt>
      <trkpt lat="43.85464" lon="7.32425">
        <ele>565.87</ele>
        <time>2013-02-03T13:24:23Z</time>
      </trkpt>
      <trkpt lat="43.85451" lon="7.32454">
        <ele>563.47</ele>
        <time>2013-02-03T13:24:29Z</time>
      </trkpt>
      <trkpt lat="43.85441" lon="7.32469">
        <ele>562.03</ele>
        <time>2013-02-03T13:24:32Z</time>
      </trkpt>
      <trkpt lat="43.85415" lon="7.32494">
        <ele>560.11</ele>
        <time>2013-02-03T13:24:38Z</time>
      </trkpt>
      <trkpt lat="43.85406" lon="7.32501">
        <ele>559.62</ele>
        <time>2013-02-03T13:24:45Z</time>
      </trkpt>
      <trkpt lat="43.85402" lon="7.32509">
        <ele>557.22</ele>
        <time>2013-02-03T13:24:56Z</time>
      </trkpt>
      <trkpt lat="43.85401" lon="7.32509">
        <ele>557.22</ele>
        <time>2013-02-03T13:24:57Z</time>
      </trkpt>
      <trkpt lat="43.85385" lon="7.32527">
        <ele>555.78</ele>
        <time>2013-02-03T13:25:05Z</time>
      </trkpt>
      <trkpt lat="43.85362" lon="7.3258">
        <ele>549.05</ele>
        <time>2013-02-03T13:25:13Z</time>
      </trkpt>
      <trkpt lat="43.85362" lon="7.32604">
        <ele>546.65</ele>
        <time>2013-02-03T13:25:16Z</time>
      </trkpt>
      <trkpt lat="43.85362" lon="7.32638">
        <ele>543.76</ele>
        <time>2013-02-03T13:25:22Z</time>
      </trkpt>
      <trkpt lat="43.85363" lon="7.32644">
        <ele>545.2</ele>
        <time>2013-02-03T13:25:35Z</time>
      </trkpt>
      <trkpt lat="43.85371" lon="7.32686">
        <ele>545.69</ele>
        <time>2013-02-03T13:25:46Z</time>
      </trkpt>
      <trkpt lat="43.85376" lon="7.32747">
        <ele>545.2</ele>
        <time>2013-02-03T13:25:59Z</time>
      </trkpt>
      <trkpt lat="43.85378" lon="7.32769">
        <ele>544.24</ele>
        <time>2013-02-03T13:26:02Z</time>
      </trkpt>
      <trkpt lat="43.85366" lon="7.32829">
        <ele>540.88</ele>
        <time>2013-02-03T13:26:10Z</time>
      </trkpt>
      <trkpt lat="43.85364" lon="7.32842">
        <ele>539.92</ele>
        <time>2013-02-03T13:26:12Z</time>
      </trkpt>
      <trkpt lat="43.85356" lon="7.32879">
        <ele>537.51</ele>
        <time>2013-02-03T13:26:17Z</time>
      </trkpt>
      <trkpt lat="43.85343" lon="7.3291">
        <ele>535.59</ele>
        <time>2013-02-03T13:26:21Z</time>
      </trkpt>
      <trkpt lat="43.85316" lon="7.32964">
        <ele>534.15</ele>
        <time>2013-02-03T13:26:29Z</time>
      </trkpt>
      <trkpt lat="43.85254" lon="7.33065">
        <ele>530.79</ele>
        <time>2013-02-03T13:26:45Z</time>
      </trkpt>
      <trkpt lat="43.85238" lon="7.33099">
        <ele>530.79</ele>
        <time>2013-02-03T13:26:50Z</time>
      </trkpt>
      <trkpt lat="43.8519" lon="7.33173">
        <ele>530.3</ele>
        <time>2013-02-03T13:27:02Z</time>
      </trkpt>
      <trkpt lat="43.85184" lon="7.33185">
        <ele>529.82</ele>
        <time>2013-02-03T13:27:04Z</time>
      </trkpt>
      <trkpt lat="43.8516" lon="7.33226">
        <ele>527.9</ele>
        <time>2013-02-03T13:27:11Z</time>
      </trkpt>
      <trkpt lat="43.85154" lon="7.33244">
        <ele>528.38</ele>
        <time>2013-02-03T13:27:14Z</time>
      </trkpt>
      <trkpt lat="43.8514" lon="7.33276">
        <ele>528.86</ele>
        <time>2013-02-03T13:27:20Z</time>
      </trkpt>
      <trkpt lat="43.85121" lon="7.33327">
        <ele>527.9</ele>
        <time>2013-02-03T13:27:29Z</time>
      </trkpt>
      <trkpt lat="43.85107" lon="7.33362">
        <ele>525.98</ele>
        <time>2013-02-03T13:27:35Z</time>
      </trkpt>
      <trkpt lat="43.85062" lon="7.33397">
        <ele>522.61</ele>
        <time>2013-02-03T13:27:44Z</time>
      </trkpt>
      <trkpt lat="43.85058" lon="7.33396">
        <ele>522.13</ele>
        <time>2013-02-03T13:27:45Z</time>
      </trkpt>
      <trkpt lat="43.85054" lon="7.33394">
        <ele>522.61</ele>
        <time>2013-02-03T13:27:55Z</time>
      </trkpt>
      <trkpt lat="43.85054" lon="7.33396">
        <ele>525.02</ele>
        <time>2013-02-03T13:28:21Z</time>
      </trkpt>
      <trkpt lat="43.85055" lon="7.33397">
        <ele>525.98</ele>
        <time>2013-02-03T13:28:43Z</time>
      </trkpt>
      <trkpt lat="43.85055" lon="7.33395">
        <ele>525.5</ele>
        <time>2013-02-03T13:29:02Z</time>
      </trkpt>
      <trkpt lat="43.8505" lon="7.33404">
        <ele>524.54</ele>
        <time>2013-02-03T13:29:07Z</time>
      </trkpt>
      <trkpt lat="43.85019" lon="7.33409">
        <ele>515.4</ele>
        <time>2013-02-03T13:29:15Z</time>
      </trkpt>
      <trkpt lat="43.8499" lon="7.33422">
        <ele>511.08</ele>
        <time>2013-02-03T13:29:21Z</time>
      </trkpt>
      <trkpt lat="43.84977" lon="7.33434">
        <ele>508.19</ele>
        <time>2013-02-03T13:29:24Z</time>
      </trkpt>
      <trkpt lat="43.84956" lon="7.33451">
        <ele>504.35</ele>
        <time>2013-02-03T13:29:28Z</time>
      </trkpt>
      <trkpt lat="43.84939" lon="7.3347">
        <ele>500.98</ele>
        <time>2013-02-03T13:29:32Z</time>
      </trkpt>
      <trkpt lat="43.84915" lon="7.33508">
        <ele>492.81</ele>
        <time>2013-02-03T13:29:38Z</time>
      </trkpt>
      <trkpt lat="43.849" lon="7.33534">
        <ele>487.05</ele>
        <time>2013-02-03T13:29:42Z</time>
      </trkpt>
      <trkpt lat="43.84885" lon="7.33565">
        <ele>481.28</ele>
        <time>2013-02-03T13:29:49Z</time>
      </trkpt>
      <trkpt lat="43.84883" lon="7.3359">
        <ele>476.47</ele>
        <time>2013-02-03T13:29:55Z</time>
      </trkpt>
      <trkpt lat="43.84877" lon="7.33625">
        <ele>463.01</ele>
        <time>2013-02-03T13:30:04Z</time>
      </trkpt>
      <trkpt lat="43.84876" lon="7.33635">
        <ele>459.17</ele>
        <time>2013-02-03T13:30:12Z</time>
      </trkpt>
      <trkpt lat="43.84875" lon="7.33638">
        <ele>459.17</ele>
        <time>2013-02-03T13:30:16Z</time>
      </trkpt>
      <trkpt lat="43.84873" lon="7.33642">
        <ele>459.17</ele>
        <time>2013-02-03T13:30:20Z</time>
      </trkpt>
      <trkpt lat="43.84873" lon="7.33648">
        <ele>457.72</ele>
        <time>2013-02-03T13:30:28Z</time>
      </trkpt>
      <trkpt lat="43.84871" lon="7.33654">
        <ele>457.24</ele>
        <time>2013-02-03T13:30:31Z</time>
      </trkpt>
      <trkpt lat="43.84873" lon="7.33662">
        <ele>453.88</ele>
        <time>2013-02-03T13:30:36Z</time>
      </trkpt>
      <trkpt lat="43.84874" lon="7.33663">
        <ele>453.4</ele>
        <time>2013-02-03T13:30:38Z</time>
      </trkpt>
      <trkpt lat="43.84873" lon="7.33669">
        <ele>451.96</ele>
        <time>2013-02-03T13:30:42Z</time>
      </trkpt>
      <trkpt lat="43.84865" lon="7.33676">
        <ele>451.48</ele>
        <time>2013-02-03T13:30:48Z</time>
      </trkpt>
      <trkpt lat="43.84852" lon="7.33672">
        <ele>448.59</ele>
        <time>2013-02-03T13:30:57Z</time>
      </trkpt>
      <trkpt lat="43.84846" lon="7.33668">
        <ele>447.15</ele>
        <time>2013-02-03T13:30:59Z</time>
      </trkpt>
      <trkpt lat="43.8484" lon="7.33663">
        <ele>444.27</ele>
        <time>2013-02-03T13:31:05Z</time>
      </trkpt>
      <trkpt lat="43.84837" lon="7.33669">
        <ele>442.34</ele>
        <time>2013-02-03T13:31:15Z</time>
      </trkpt>
      <trkpt lat="43.84829" lon="7.33676">
        <ele>438.98</ele>
        <time>2013-02-03T13:31:23Z</time>
      </trkpt>
      <trkpt lat="43.84828" lon="7.33675">
        <ele>438.5</ele>
        <time>2013-02-03T13:31:24Z</time>
      </trkpt>
      <trkpt lat="43.84825" lon="7.33685">
        <ele>433.69</ele>
        <time>2013-02-03T13:31:31Z</time>
      </trkpt>
      <trkpt lat="43.84827" lon="7.33695">
        <ele>432.73</ele>
        <time>2013-02-03T13:31:35Z</time>
      </trkpt>
      <trkpt lat="43.84818" lon="7.33704">
        <ele>428.89</ele>
        <time>2013-02-03T13:31:44Z</time>
      </trkpt>
      <trkpt lat="43.84815" lon="7.33705">
        <ele>427.92</ele>
        <time>2013-02-03T13:31:48Z</time>
      </trkpt>
      <trkpt lat="43.84814" lon="7.33709">
        <ele>426.96</ele>
        <time>2013-02-03T13:31:52Z</time>
      </trkpt>
      <trkpt lat="43.8481" lon="7.33735">
        <ele>423.12</ele>
        <time>2013-02-03T13:32:01Z</time>
      </trkpt>
      <trkpt lat="43.84806" lon="7.3374">
        <ele>418.79</ele>
        <time>2013-02-03T13:32:11Z</time>
      </trkpt>
      <trkpt lat="43.84803" lon="7.33741">
        <ele>415.91</ele>
        <time>2013-02-03T13:32:43Z</time>
      </trkpt>
      <trkpt lat="43.84803" lon="7.33739">
        <ele>417.83</ele>
        <time>2013-02-03T13:33:06Z</time>
      </trkpt>
      <trkpt lat="43.84806" lon="7.33739">
        <ele>415.91</ele>
        <time>2013-02-03T13:33:32Z</time>
      </trkpt>
      <trkpt lat="43.84803" lon="7.3374">
        <ele>415.91</ele>
        <time>2013-02-03T13:33:38Z</time>
      </trkpt>
      <trkpt lat="43.848" lon="7.33732">
        <ele>415.43</ele>
        <time>2013-02-03T13:33:42Z</time>
      </trkpt>
      <trkpt lat="43.84799" lon="7.33727">
        <ele>414.95</ele>
        <time>2013-02-03T13:33:44Z</time>
      </trkpt>
      <trkpt lat="43.84797" lon="7.33723">
        <ele>414.47</ele>
        <time>2013-02-03T13:33:48Z</time>
      </trkpt>
      <trkpt lat="43.8479" lon="7.3375">
        <ele>413.02</ele>
        <time>2013-02-03T13:33:56Z</time>
      </trkpt>
      <trkpt lat="43.84792" lon="7.33774">
        <ele>410.62</ele>
        <time>2013-02-03T13:34:04Z</time>
      </trkpt>
      <trkpt lat="43.8479" lon="7.33777">
        <ele>409.66</ele>
        <time>2013-02-03T13:34:06Z</time>
      </trkpt>
      <trkpt lat="43.8479" lon="7.33788">
        <ele>407.74</ele>
        <time>2013-02-03T13:34:15Z</time>
      </trkpt>
      <trkpt lat="43.84783" lon="7.33783">
        <ele>404.37</ele>
        <time>2013-02-03T13:34:27Z</time>
      </trkpt>
      <trkpt lat="43.84782" lon="7.33786">
        <ele>404.85</ele>
        <time>2013-02-03T13:34:31Z</time>
      </trkpt>
      <trkpt lat="43.84779" lon="7.33791">
        <ele>403.41</ele>
        <time>2013-02-03T13:34:46Z</time>
      </trkpt>
      <trkpt lat="43.8478" lon="7.33793">
        <ele>403.89</ele>
        <time>2013-02-03T13:34:58Z</time>
      </trkpt>
      <trkpt lat="43.84778" lon="7.33802">
        <ele>400.53</ele>
        <time>2013-02-03T13:35:07Z</time>
      </trkpt>
      <trkpt lat="43.84774" lon="7.33799">
        <ele>399.08</ele>
        <time>2013-02-03T13:35:12Z</time>
      </trkpt>
      <trkpt lat="43.84774" lon="7.33786">
        <ele>398.12</ele>
        <time>2013-02-03T13:35:25Z</time>
      </trkpt>
      <trkpt lat="43.84773" lon="7.3378">
        <ele>396.68</ele>
        <time>2013-02-03T13:35:36Z</time>
      </trkpt>
      <trkpt lat="43.84771" lon="7.33783">
        <ele>396.2</ele>
        <time>2013-02-03T13:35:40Z</time>
      </trkpt>
      <trkpt lat="43.84767" lon="7.33784">
        <ele>397.64</ele>
        <time>2013-02-03T13:35:51Z</time>
      </trkpt>
      <trkpt lat="43.84763" lon="7.3379">
        <ele>398.12</ele>
        <time>2013-02-03T13:36:07Z</time>
      </trkpt>
      <trkpt lat="43.84757" lon="7.33799">
        <ele>399.08</ele>
        <time>2013-02-03T13:36:22Z</time>
      </trkpt>
      <trkpt lat="43.84756" lon="7.338">
        <ele>399.08</ele>
        <time>2013-02-03T13:36:23Z</time>
      </trkpt>
      <trkpt lat="43.84755" lon="7.33806">
        <ele>400.05</ele>
        <time>2013-02-03T13:36:27Z</time>
      </trkpt>
      <trkpt lat="43.84752" lon="7.33809">
        <ele>401.01</ele>
        <time>2013-02-03T13:36:31Z</time>
      </trkpt>
      <trkpt lat="43.84747" lon="7.33819">
        <ele>403.41</ele>
        <time>2013-02-03T13:36:38Z</time>
      </trkpt>
      <trkpt lat="43.84742" lon="7.33823">
        <ele>405.33</ele>
        <time>2013-02-03T13:36:49Z</time>
      </trkpt>
      <trkpt lat="43.84739" lon="7.33825">
        <ele>404.85</ele>
        <time>2013-02-03T13:36:59Z</time>
      </trkpt>
      <trkpt lat="43.84736" lon="7.33828">
        <ele>404.85</ele>
        <time>2013-02-03T13:37:13Z</time>
      </trkpt>
      <trkpt lat="43.84722" lon="7.3384">
        <ele>407.74</ele>
        <time>2013-02-03T13:37:21Z</time>
      </trkpt>
      <trkpt lat="43.84717" lon="7.33846">
        <ele>409.18</ele>
        <time>2013-02-03T13:37:30Z</time>
      </trkpt>
      <trkpt lat="43.84717" lon="7.33842">
        <ele>409.18</ele>
        <time>2013-02-03T13:37:34Z</time>
      </trkpt>
      <trkpt lat="43.84725" lon="7.33821">
        <ele>411.1</ele>
        <time>2013-02-03T13:37:50Z</time>
      </trkpt>
      <trkpt lat="43.84727" lon="7.33818">
        <ele>411.58</ele>
        <time>2013-02-03T13:37:52Z</time>
      </trkpt>
      <trkpt lat="43.84736" lon="7.33809">
        <ele>412.54</ele>
        <time>2013-02-03T13:38:03Z</time>
      </trkpt>
      <trkpt lat="43.84732" lon="7.33807">
        <ele>413.98</ele>
        <time>2013-02-03T13:38:13Z</time>
      </trkpt>
      <trkpt lat="43.84717" lon="7.33816">
        <ele>415.43</ele>
        <time>2013-02-03T13:38:26Z</time>
      </trkpt>
      <trkpt lat="43.84717" lon="7.33818">
        <ele>415.91</ele>
        <time>2013-02-03T13:38:27Z</time>
      </trkpt>
      <trkpt lat="43.84706" lon="7.33838">
        <ele>416.87</ele>
        <time>2013-02-03T13:38:39Z</time>
      </trkpt>
      <trkpt lat="43.84701" lon="7.33852">
        <ele>416.39</ele>
        <time>2013-02-03T13:38:44Z</time>
      </trkpt>
      <trkpt lat="43.84695" lon="7.33851">
        <ele>416.39</ele>
        <time>2013-02-03T13:38:47Z</time>
      </trkpt>
      <trkpt lat="43.84689" lon="7.33857">
        <ele>415.91</ele>
        <time>2013-02-03T13:38:51Z</time>
      </trkpt>
      <trkpt lat="43.84683" lon="7.33878">
        <ele>415.43</ele>
        <time>2013-02-03T13:39:00Z</time>
      </trkpt>
      <trkpt lat="43.84681" lon="7.33888">
        <ele>413.98</ele>
        <time>2013-02-03T13:39:04Z</time>
      </trkpt>
      <trkpt lat="43.84675" lon="7.33895">
        <ele>412.54</ele>
        <time>2013-02-03T13:39:07Z</time>
      </trkpt>
      <trkpt lat="43.84671" lon="7.33926">
        <ele>414.47</ele>
        <time>2013-02-03T13:39:15Z</time>
      </trkpt>
      <trkpt lat="43.84651" lon="7.3393">
        <ele>415.43</ele>
        <time>2013-02-03T13:39:24Z</time>
      </trkpt>
      <trkpt lat="43.84648" lon="7.3393">
        <ele>415.91</ele>
        <time>2013-02-03T13:39:25Z</time>
      </trkpt>
      <trkpt lat="43.84646" lon="7.3395">
        <ele>417.35</ele>
        <time>2013-02-03T13:39:33Z</time>
      </trkpt>
      <trkpt lat="43.84637" lon="7.33958">
        <ele>417.83</ele>
        <time>2013-02-03T13:39:38Z</time>
      </trkpt>
      <trkpt lat="43.84623" lon="7.3396">
        <ele>417.35</ele>
        <time>2013-02-03T13:39:45Z</time>
      </trkpt>
      <trkpt lat="43.84613" lon="7.33958">
        <ele>416.87</ele>
        <time>2013-02-03T13:39:49Z</time>
      </trkpt>
      <trkpt lat="43.84613" lon="7.33976">
        <ele>415.91</ele>
        <time>2013-02-03T13:39:56Z</time>
      </trkpt>
      <trkpt lat="43.84626" lon="7.34003">
        <ele>416.39</ele>
        <time>2013-02-03T13:40:04Z</time>
      </trkpt>
      <trkpt lat="43.84614" lon="7.3401">
        <ele>416.87</ele>
        <time>2013-02-03T13:40:11Z</time>
      </trkpt>
      <trkpt lat="43.84591" lon="7.34025">
        <ele>416.87</ele>
        <time>2013-02-03T13:40:20Z</time>
      </trkpt>
      <trkpt lat="43.84578" lon="7.34026">
        <ele>415.91</ele>
        <time>2013-02-03T13:40:23Z</time>
      </trkpt>
      <trkpt lat="43.84551" lon="7.34032">
        <ele>414.47</ele>
        <time>2013-02-03T13:40:31Z</time>
      </trkpt>
      <trkpt lat="43.84523" lon="7.34034">
        <ele>413.02</ele>
        <time>2013-02-03T13:40:39Z</time>
      </trkpt>
      <trkpt lat="43.84503" lon="7.34038">
        <ele>413.5</ele>
        <time>2013-02-03T13:40:46Z</time>
      </trkpt>
      <trkpt lat="43.84489" lon="7.34062">
        <ele>411.1</ele>
        <time>2013-02-03T13:40:53Z</time>
      </trkpt>
      <trkpt lat="43.8447" lon="7.34071">
        <ele>411.58</ele>
        <time>2013-02-03T13:41:00Z</time>
      </trkpt>
      <trkpt lat="43.84465" lon="7.34078">
        <ele>410.14</ele>
        <time>2013-02-03T13:41:02Z</time>
      </trkpt>
      <trkpt lat="43.84453" lon="7.3409">
        <ele>408.22</ele>
        <time>2013-02-03T13:41:06Z</time>
      </trkpt>
      <trkpt lat="43.84445" lon="7.34104">
        <ele>407.26</ele>
        <time>2013-02-03T13:41:09Z</time>
      </trkpt>
      <trkpt lat="43.84428" lon="7.34146">
        <ele>402.45</ele>
        <time>2013-02-03T13:41:17Z</time>
      </trkpt>
      <trkpt lat="43.84427" lon="7.34152">
        <ele>401.97</ele>
        <time>2013-02-03T13:41:18Z</time>
      </trkpt>
      <trkpt lat="43.84422" lon="7.34174">
        <ele>400.53</ele>
        <time>2013-02-03T13:41:23Z</time>
      </trkpt>
      <trkpt lat="43.84415" lon="7.34196">
        <ele>399.08</ele>
        <time>2013-02-03T13:41:27Z</time>
      </trkpt>
      <trkpt lat="43.84403" lon="7.34208">
        <ele>398.6</ele>
        <time>2013-02-03T13:41:30Z</time>
      </trkpt>
      <trkpt lat="43.84384" lon="7.34214">
        <ele>396.2</ele>
        <time>2013-02-03T13:41:34Z</time>
      </trkpt>
      <trkpt lat="43.84373" lon="7.34213">
        <ele>395.72</ele>
        <time>2013-02-03T13:41:36Z</time>
      </trkpt>
      <trkpt lat="43.84359" lon="7.34209">
        <ele>394.28</ele>
        <time>2013-02-03T13:41:39Z</time>
      </trkpt>
      <trkpt lat="43.84342" lon="7.34194">
        <ele>392.84</ele>
        <time>2013-02-03T13:41:43Z</time>
      </trkpt>
      <trkpt lat="43.84331" lon="7.34178">
        <ele>391.39</ele>
        <time>2013-02-03T13:41:46Z</time>
      </trkpt>
      <trkpt lat="43.84319" lon="7.34189">
        <ele>386.11</ele>
        <time>2013-02-03T13:41:53Z</time>
      </trkpt>
      <trkpt lat="43.84318" lon="7.34198">
        <ele>384.66</ele>
        <time>2013-02-03T13:41:55Z</time>
      </trkpt>
      <trkpt lat="43.84317" lon="7.34218">
        <ele>379.38</ele>
        <time>2013-02-03T13:42:02Z</time>
      </trkpt>
      <trkpt lat="43.84317" lon="7.34215">
        <ele>378.9</ele>
        <time>2013-02-03T13:42:04Z</time>
      </trkpt>
      <trkpt lat="43.84319" lon="7.34192">
        <ele>381.78</ele>
        <time>2013-02-03T13:42:20Z</time>
      </trkpt>
      <trkpt lat="43.84319" lon="7.34187">
        <ele>383.22</ele>
        <time>2013-02-03T13:42:26Z</time>
      </trkpt>
      <trkpt lat="43.84313" lon="7.34179">
        <ele>379.38</ele>
        <time>2013-02-03T13:42:35Z</time>
      </trkpt>
      <trkpt lat="43.84304" lon="7.34188">
        <ele>377.45</ele>
        <time>2013-02-03T13:42:45Z</time>
      </trkpt>
      <trkpt lat="43.84302" lon="7.34192">
        <ele>377.45</ele>
        <time>2013-02-03T13:42:49Z</time>
      </trkpt>
      <trkpt lat="43.84298" lon="7.342">
        <ele>379.86</ele>
        <time>2013-02-03T13:42:59Z</time>
      </trkpt>
      <trkpt lat="43.84291" lon="7.34185">
        <ele>385.63</ele>
        <time>2013-02-03T13:43:16Z</time>
      </trkpt>
      <trkpt lat="43.8429" lon="7.34184">
        <ele>386.59</ele>
        <time>2013-02-03T13:43:25Z</time>
      </trkpt>
      <trkpt lat="43.84284" lon="7.34186">
        <ele>386.59</ele>
        <time>2013-02-03T13:43:37Z</time>
      </trkpt>
      <trkpt lat="43.84278" lon="7.34192">
        <ele>389.47</ele>
        <time>2013-02-03T13:43:50Z</time>
      </trkpt>
      <trkpt lat="43.84267" lon="7.34207">
        <ele>393.32</ele>
        <time>2013-02-03T13:44:08Z</time>
      </trkpt>
      <trkpt lat="43.84267" lon="7.34208">
        <ele>393.8</ele>
        <time>2013-02-03T13:44:21Z</time>
      </trkpt>
      <trkpt lat="43.84267" lon="7.34209">
        <ele>394.76</ele>
        <time>2013-02-03T13:44:23Z</time>
      </trkpt>
      <trkpt lat="43.84271" lon="7.34217">
        <ele>396.68</ele>
        <time>2013-02-03T13:44:29Z</time>
      </trkpt>
      <trkpt lat="43.84273" lon="7.3422">
        <ele>396.68</ele>
        <time>2013-02-03T13:44:31Z</time>
      </trkpt>
      <trkpt lat="43.84274" lon="7.34223">
        <ele>397.16</ele>
        <time>2013-02-03T13:44:43Z</time>
      </trkpt>
      <trkpt lat="43.84277" lon="7.34227">
        <ele>397.64</ele>
        <time>2013-02-03T13:44:56Z</time>
      </trkpt>
      <trkpt lat="43.84278" lon="7.34227">
        <ele>396.68</ele>
        <time>2013-02-03T13:45:03Z</time>
      </trkpt>
      <trkpt lat="43.84284" lon="7.3424">
        <ele>397.16</ele>
        <time>2013-02-03T13:45:12Z</time>
      </trkpt>
      <trkpt lat="43.84285" lon="7.34266">
        <ele>401.97</ele>
        <time>2013-02-03T13:45:28Z</time>
      </trkpt>
      <trkpt lat="43.84278" lon="7.34291">
        <ele>405.81</ele>
        <time>2013-02-03T13:45:44Z</time>
      </trkpt>
      <trkpt lat="43.84275" lon="7.34301">
        <ele>406.77</ele>
        <time>2013-02-03T13:45:50Z</time>
      </trkpt>
      <trkpt lat="43.8427" lon="7.34315">
        <ele>409.66</ele>
        <time>2013-02-03T13:46:04Z</time>
      </trkpt>
      <trkpt lat="43.84271" lon="7.34316">
        <ele>407.74</ele>
        <time>2013-02-03T13:46:35Z</time>
      </trkpt>
      <trkpt lat="43.84271" lon="7.34317">
        <ele>407.26</ele>
        <time>2013-02-03T13:47:08Z</time>
      </trkpt>
      <trkpt lat="43.84272" lon="7.34317">
        <ele>409.66</ele>
        <time>2013-02-03T13:47:31Z</time>
      </trkpt>
      <trkpt lat="43.84271" lon="7.34316">
        <ele>409.18</ele>
        <time>2013-02-03T13:47:57Z</time>
      </trkpt>
      <trkpt lat="43.84271" lon="7.34315">
        <ele>408.22</ele>
        <time>2013-02-03T13:48:23Z</time>
      </trkpt>
      <trkpt lat="43.84269" lon="7.34317">
        <ele>407.74</ele>
        <time>2013-02-03T13:48:24Z</time>
      </trkpt>
      <trkpt lat="43.84264" lon="7.34337">
        <ele>408.22</ele>
        <time>2013-02-03T13:48:32Z</time>
      </trkpt>
      <trkpt lat="43.84253" lon="7.34379">
        <ele>405.81</ele>
        <time>2013-02-03T13:48:43Z</time>
      </trkpt>
      <trkpt lat="43.84238" lon="7.344">
        <ele>403.89</ele>
        <time>2013-02-03T13:48:48Z</time>
      </trkpt>
      <trkpt lat="43.84202" lon="7.34428">
        <ele>401.01</ele>
        <time>2013-02-03T13:48:55Z</time>
      </trkpt>
      <trkpt lat="43.84187" lon="7.34451">
        <ele>400.05</ele>
        <time>2013-02-03T13:49:01Z</time>
      </trkpt>
      <trkpt lat="43.8416" lon="7.3449">
        <ele>400.05</ele>
        <time>2013-02-03T13:49:16Z</time>
      </trkpt>
      <trkpt lat="43.84138" lon="7.34534">
        <ele>400.53</ele>
        <time>2013-02-03T13:49:29Z</time>
      </trkpt>
      <trkpt lat="43.84124" lon="7.34547">
        <ele>401.01</ele>
        <time>2013-02-03T13:49:34Z</time>
      </trkpt>
      <trkpt lat="43.84111" lon="7.34572">
        <ele>399.08</ele>
        <time>2013-02-03T13:49:39Z</time>
      </trkpt>
      <trkpt lat="43.84107" lon="7.34604">
        <ele>397.16</ele>
        <time>2013-02-03T13:49:43Z</time>
      </trkpt>
      <trkpt lat="43.84108" lon="7.34628">
        <ele>395.24</ele>
        <time>2013-02-03T13:49:46Z</time>
      </trkpt>
      <trkpt lat="43.84093" lon="7.34654">
        <ele>391.87</ele>
        <time>2013-02-03T13:49:51Z</time>
      </trkpt>
      <trkpt lat="43.84076" lon="7.34664">
        <ele>389.95</ele>
        <time>2013-02-03T13:49:54Z</time>
      </trkpt>
      <trkpt lat="43.84052" lon="7.34687">
        <ele>386.59</ele>
        <time>2013-02-03T13:49:58Z</time>
      </trkpt>
      <trkpt lat="43.84042" lon="7.34702">
        <ele>384.66</ele>
        <time>2013-02-03T13:50:00Z</time>
      </trkpt>
      <trkpt lat="43.84034" lon="7.34768">
        <ele>378.9</ele>
        <time>2013-02-03T13:50:06Z</time>
      </trkpt>
      <trkpt lat="43.84039" lon="7.34796">
        <ele>375.53</ele>
        <time>2013-02-03T13:50:09Z</time>
      </trkpt>
      <trkpt lat="43.84028" lon="7.34806">
        <ele>372.65</ele>
        <time>2013-02-03T13:50:13Z</time>
      </trkpt>
      <trkpt lat="43.8401" lon="7.34794">
        <ele>370.24</ele>
        <time>2013-02-03T13:50:16Z</time>
      </trkpt>
      <trkpt lat="43.83966" lon="7.34784">
        <ele>365.44</ele>
        <time>2013-02-03T13:50:22Z</time>
      </trkpt>
      <trkpt lat="43.83916" lon="7.34813">
        <ele>361.11</ele>
        <time>2013-02-03T13:50:28Z</time>
      </trkpt>
      <trkpt lat="43.8387" lon="7.34846">
        <ele>360.15</ele>
        <time>2013-02-03T13:50:35Z</time>
      </trkpt>
      <trkpt lat="43.83853" lon="7.34854">
        <ele>360.15</ele>
        <time>2013-02-03T13:50:38Z</time>
      </trkpt>
      <trkpt lat="43.83843" lon="7.34857">
        <ele>360.15</ele>
        <time>2013-02-03T13:50:40Z</time>
      </trkpt>
      <trkpt lat="43.83806" lon="7.34872">
        <ele>359.67</ele>
        <time>2013-02-03T13:50:46Z</time>
      </trkpt>
      <trkpt lat="43.83769" lon="7.34929">
        <ele>357.75</ele>
        <time>2013-02-03T13:50:55Z</time>
      </trkpt>
      <trkpt lat="43.83763" lon="7.34975">
        <ele>357.27</ele>
        <time>2013-02-03T13:51:01Z</time>
      </trkpt>
      <trkpt lat="43.8376" lon="7.35003">
        <ele>357.27</ele>
        <time>2013-02-03T13:51:05Z</time>
      </trkpt>
      <trkpt lat="43.83755" lon="7.35018">
        <ele>357.27</ele>
        <time>2013-02-03T13:51:07Z</time>
      </trkpt>
      <trkpt lat="43.83748" lon="7.35042">
        <ele>357.27</ele>
        <time>2013-02-03T13:51:10Z</time>
      </trkpt>
      <trkpt lat="43.8373" lon="7.35082">
        <ele>357.27</ele>
        <time>2013-02-03T13:51:16Z</time>
      </trkpt>
      <trkpt lat="43.83723" lon="7.35103">
        <ele>357.75</ele>
        <time>2013-02-03T13:51:19Z</time>
      </trkpt>
      <trkpt lat="43.83705" lon="7.35134">
        <ele>357.75</ele>
        <time>2013-02-03T13:51:24Z</time>
      </trkpt>
      <trkpt lat="43.83672" lon="7.35166">
        <ele>357.27</ele>
        <time>2013-02-03T13:51:31Z</time>
      </trkpt>
      <trkpt lat="43.83623" lon="7.35217">
        <ele>358.23</ele>
        <time>2013-02-03T13:51:44Z</time>
      </trkpt>
      <trkpt lat="43.83622" lon="7.35217">
        <ele>359.19</ele>
        <time>2013-02-03T13:51:56Z</time>
      </trkpt>
      <trkpt lat="43.83622" lon="7.35217">
        <ele>360.15</ele>
        <time>2013-02-03T13:52:20Z</time>
      </trkpt>
    </trkseg>
  </trk>
</gpx>